<?xml version="1.0" encoding="UTF-8" standalone="no" ?>
<gpx xmlns="http://www.topografix.com/GPX/1/1" xmlns:xsi="http://www.w3.org/2001/XMLSchema-instance" xsi:schemaLocation="http://www.topografix.com/GPX/1/1 http://www.topografix.com/GPX/1/1/gpx.xsd" version="1.1" creator="VisuGPX - https://www.visugpx.com">
  <metadata>
    <name>GR20</name>
    <desc><![CDATA[GR20 - Juin 2015]]></desc>
  </metadata>
  <trk>
    <name><![CDATA[GR20 Ascu Stagnu - Carrozu]]></name>
    <trkseg>
      <trkpt lat="42.40346" lon="8.92239">
        <ele>1409.8</ele>
        <time>2015-06-30T04:44:43Z</time>
      </trkpt>
      <trkpt lat="42.40344" lon="8.92241">
        <ele>1408</ele>
        <time>2015-06-30T04:44:53Z</time>
      </trkpt>
      <trkpt lat="42.40346" lon="8.92245">
        <ele>1406.4</ele>
        <time>2015-06-30T04:45:01Z</time>
      </trkpt>
      <trkpt lat="42.40346" lon="8.92247">
        <ele>1407.6</ele>
        <time>2015-06-30T04:45:06Z</time>
      </trkpt>
      <trkpt lat="42.40338" lon="8.92226">
        <ele>1406.4</ele>
        <time>2015-06-30T04:46:02Z</time>
      </trkpt>
      <trkpt lat="42.40338" lon="8.9222">
        <ele>1407.6</ele>
        <time>2015-06-30T04:46:10Z</time>
      </trkpt>
      <trkpt lat="42.40338" lon="8.92216">
        <ele>1408.6</ele>
        <time>2015-06-30T04:46:16Z</time>
      </trkpt>
      <trkpt lat="42.40339" lon="8.92213">
        <ele>1409.6</ele>
        <time>2015-06-30T04:46:22Z</time>
      </trkpt>
      <trkpt lat="42.40341" lon="8.92207">
        <ele>1411.4</ele>
        <time>2015-06-30T04:46:33Z</time>
      </trkpt>
      <trkpt lat="42.40339" lon="8.92199">
        <ele>1412.2</ele>
        <time>2015-06-30T04:46:42Z</time>
      </trkpt>
      <trkpt lat="42.40336" lon="8.92192">
        <ele>1413.4</ele>
        <time>2015-06-30T04:47:13Z</time>
      </trkpt>
      <trkpt lat="42.40337" lon="8.92187">
        <ele>1414.4</ele>
        <time>2015-06-30T04:47:22Z</time>
      </trkpt>
      <trkpt lat="42.40336" lon="8.92185">
        <ele>1415.4</ele>
        <time>2015-06-30T04:47:35Z</time>
      </trkpt>
      <trkpt lat="42.40333" lon="8.92182">
        <ele>1416.2</ele>
        <time>2015-06-30T04:47:42Z</time>
      </trkpt>
      <trkpt lat="42.40332" lon="8.92179">
        <ele>1417.6</ele>
        <time>2015-06-30T04:47:52Z</time>
      </trkpt>
      <trkpt lat="42.40332" lon="8.92175">
        <ele>1419</ele>
        <time>2015-06-30T04:48:02Z</time>
      </trkpt>
      <trkpt lat="42.40332" lon="8.9217">
        <ele>1419.6</ele>
        <time>2015-06-30T04:48:10Z</time>
      </trkpt>
      <trkpt lat="42.40331" lon="8.92166">
        <ele>1420.4</ele>
        <time>2015-06-30T04:48:16Z</time>
      </trkpt>
      <trkpt lat="42.4033" lon="8.92162">
        <ele>1421.2</ele>
        <time>2015-06-30T04:48:20Z</time>
      </trkpt>
      <trkpt lat="42.40323" lon="8.92157">
        <ele>1422.4</ele>
        <time>2015-06-30T04:48:38Z</time>
      </trkpt>
      <trkpt lat="42.40314" lon="8.92153">
        <ele>1423.4</ele>
        <time>2015-06-30T04:48:51Z</time>
      </trkpt>
      <trkpt lat="42.40308" lon="8.92142">
        <ele>1424.6</ele>
        <time>2015-06-30T04:49:08Z</time>
      </trkpt>
      <trkpt lat="42.40306" lon="8.92128">
        <ele>1426.2</ele>
        <time>2015-06-30T04:49:27Z</time>
      </trkpt>
      <trkpt lat="42.40305" lon="8.92122">
        <ele>1426.6</ele>
        <time>2015-06-30T04:49:33Z</time>
      </trkpt>
      <trkpt lat="42.40303" lon="8.92118">
        <ele>1428</ele>
        <time>2015-06-30T04:49:41Z</time>
      </trkpt>
      <trkpt lat="42.40305" lon="8.92115">
        <ele>1428.6</ele>
        <time>2015-06-30T04:49:47Z</time>
      </trkpt>
      <trkpt lat="42.40307" lon="8.92112">
        <ele>1429.6</ele>
        <time>2015-06-30T04:49:52Z</time>
      </trkpt>
      <trkpt lat="42.40307" lon="8.9211">
        <ele>1430.2</ele>
        <time>2015-06-30T04:49:56Z</time>
      </trkpt>
      <trkpt lat="42.4031" lon="8.9211">
        <ele>1431.2</ele>
        <time>2015-06-30T04:50:06Z</time>
      </trkpt>
      <trkpt lat="42.40311" lon="8.92106">
        <ele>1432.6</ele>
        <time>2015-06-30T04:50:15Z</time>
      </trkpt>
      <trkpt lat="42.40313" lon="8.92108">
        <ele>1433.4</ele>
        <time>2015-06-30T04:50:22Z</time>
      </trkpt>
      <trkpt lat="42.40315" lon="8.92107">
        <ele>1435</ele>
        <time>2015-06-30T04:50:35Z</time>
      </trkpt>
      <trkpt lat="42.40319" lon="8.92104">
        <ele>1436.4</ele>
        <time>2015-06-30T04:50:45Z</time>
      </trkpt>
      <trkpt lat="42.40322" lon="8.921">
        <ele>1437</ele>
        <time>2015-06-30T04:50:53Z</time>
      </trkpt>
      <trkpt lat="42.40326" lon="8.921">
        <ele>1438.8</ele>
        <time>2015-06-30T04:51:05Z</time>
      </trkpt>
      <trkpt lat="42.40336" lon="8.92098">
        <ele>1440</ele>
        <time>2015-06-30T04:51:20Z</time>
      </trkpt>
      <trkpt lat="42.40344" lon="8.921">
        <ele>1441.4</ele>
        <time>2015-06-30T04:51:37Z</time>
      </trkpt>
      <trkpt lat="42.40346" lon="8.921">
        <ele>1441.6</ele>
        <time>2015-06-30T04:51:39Z</time>
      </trkpt>
      <trkpt lat="42.40351" lon="8.921">
        <ele>1441.8</ele>
        <time>2015-06-30T04:51:44Z</time>
      </trkpt>
      <trkpt lat="42.40353" lon="8.92099">
        <ele>1442</ele>
        <time>2015-06-30T04:51:46Z</time>
      </trkpt>
      <trkpt lat="42.40353" lon="8.92099">
        <ele>1442</ele>
        <time>2015-06-30T04:51:47Z</time>
      </trkpt>
      <trkpt lat="42.40354" lon="8.92095">
        <ele>1443.2</ele>
        <time>2015-06-30T04:51:54Z</time>
      </trkpt>
      <trkpt lat="42.40356" lon="8.92095">
        <ele>1444.4</ele>
        <time>2015-06-30T04:52:01Z</time>
      </trkpt>
      <trkpt lat="42.40364" lon="8.92096">
        <ele>1446</ele>
        <time>2015-06-30T04:52:13Z</time>
      </trkpt>
      <trkpt lat="42.4037" lon="8.92095">
        <ele>1446.8</ele>
        <time>2015-06-30T04:52:21Z</time>
      </trkpt>
      <trkpt lat="42.40373" lon="8.92094">
        <ele>1448.2</ele>
        <time>2015-06-30T04:52:29Z</time>
      </trkpt>
      <trkpt lat="42.40377" lon="8.92091">
        <ele>1449.2</ele>
        <time>2015-06-30T04:52:37Z</time>
      </trkpt>
      <trkpt lat="42.40378" lon="8.9209">
        <ele>1449.6</ele>
        <time>2015-06-30T04:52:41Z</time>
      </trkpt>
      <trkpt lat="42.40379" lon="8.9209">
        <ele>1450.2</ele>
        <time>2015-06-30T04:52:44Z</time>
      </trkpt>
      <trkpt lat="42.40381" lon="8.92091">
        <ele>1451.6</ele>
        <time>2015-06-30T04:52:52Z</time>
      </trkpt>
      <trkpt lat="42.40387" lon="8.92093">
        <ele>1452.8</ele>
        <time>2015-06-30T04:53:00Z</time>
      </trkpt>
      <trkpt lat="42.40391" lon="8.92092">
        <ele>1454</ele>
        <time>2015-06-30T04:53:07Z</time>
      </trkpt>
      <trkpt lat="42.40394" lon="8.92088">
        <ele>1454.6</ele>
        <time>2015-06-30T04:53:12Z</time>
      </trkpt>
      <trkpt lat="42.40395" lon="8.92086">
        <ele>1455.2</ele>
        <time>2015-06-30T04:53:15Z</time>
      </trkpt>
      <trkpt lat="42.40396" lon="8.92085">
        <ele>1455.2</ele>
        <time>2015-06-30T04:53:16Z</time>
      </trkpt>
      <trkpt lat="42.404" lon="8.92083">
        <ele>1456.8</ele>
        <time>2015-06-30T04:53:28Z</time>
      </trkpt>
      <trkpt lat="42.404" lon="8.92083">
        <ele>1456.8</ele>
        <time>2015-06-30T04:53:30Z</time>
      </trkpt>
      <trkpt lat="42.40401" lon="8.92083">
        <ele>1457.6</ele>
        <time>2015-06-30T04:53:35Z</time>
      </trkpt>
      <trkpt lat="42.40404" lon="8.92085">
        <ele>1458.8</ele>
        <time>2015-06-30T04:53:44Z</time>
      </trkpt>
      <trkpt lat="42.40409" lon="8.92084">
        <ele>1459.8</ele>
        <time>2015-06-30T04:53:51Z</time>
      </trkpt>
      <trkpt lat="42.4041" lon="8.92085">
        <ele>1460.2</ele>
        <time>2015-06-30T04:53:54Z</time>
      </trkpt>
      <trkpt lat="42.4041" lon="8.92082">
        <ele>1461.2</ele>
        <time>2015-06-30T04:54:01Z</time>
      </trkpt>
      <trkpt lat="42.40413" lon="8.9208">
        <ele>1462.8</ele>
        <time>2015-06-30T04:54:10Z</time>
      </trkpt>
      <trkpt lat="42.40412" lon="8.92077">
        <ele>1464</ele>
        <time>2015-06-30T04:54:20Z</time>
      </trkpt>
      <trkpt lat="42.40411" lon="8.92075">
        <ele>1465.2</ele>
        <time>2015-06-30T04:54:30Z</time>
      </trkpt>
      <trkpt lat="42.40412" lon="8.92074">
        <ele>1466.2</ele>
        <time>2015-06-30T04:54:39Z</time>
      </trkpt>
      <trkpt lat="42.40411" lon="8.92073">
        <ele>1467.4</ele>
        <time>2015-06-30T04:54:47Z</time>
      </trkpt>
      <trkpt lat="42.40414" lon="8.92073">
        <ele>1468.6</ele>
        <time>2015-06-30T04:54:57Z</time>
      </trkpt>
      <trkpt lat="42.40417" lon="8.92067">
        <ele>1470</ele>
        <time>2015-06-30T04:55:09Z</time>
      </trkpt>
      <trkpt lat="42.4042" lon="8.92066">
        <ele>1471.4</ele>
        <time>2015-06-30T04:55:19Z</time>
      </trkpt>
      <trkpt lat="42.40421" lon="8.92065">
        <ele>1472.2</ele>
        <time>2015-06-30T04:55:26Z</time>
      </trkpt>
      <trkpt lat="42.40423" lon="8.92061">
        <ele>1474</ele>
        <time>2015-06-30T04:55:37Z</time>
      </trkpt>
      <trkpt lat="42.40425" lon="8.9206">
        <ele>1475</ele>
        <time>2015-06-30T04:55:47Z</time>
      </trkpt>
      <trkpt lat="42.40427" lon="8.92062">
        <ele>1476.6</ele>
        <time>2015-06-30T04:55:59Z</time>
      </trkpt>
      <trkpt lat="42.40433" lon="8.92065">
        <ele>1477.8</ele>
        <time>2015-06-30T04:56:11Z</time>
      </trkpt>
      <trkpt lat="42.40435" lon="8.92066">
        <ele>1478.2</ele>
        <time>2015-06-30T04:56:15Z</time>
      </trkpt>
      <trkpt lat="42.40443" lon="8.92063">
        <ele>1478.6</ele>
        <time>2015-06-30T04:56:24Z</time>
      </trkpt>
      <trkpt lat="42.40443" lon="8.92062">
        <ele>1479.2</ele>
        <time>2015-06-30T04:56:27Z</time>
      </trkpt>
      <trkpt lat="42.40445" lon="8.92059">
        <ele>1480.4</ele>
        <time>2015-06-30T04:56:39Z</time>
      </trkpt>
      <trkpt lat="42.40445" lon="8.92055">
        <ele>1481.4</ele>
        <time>2015-06-30T04:56:49Z</time>
      </trkpt>
      <trkpt lat="42.40443" lon="8.92052">
        <ele>1482.6</ele>
        <time>2015-06-30T04:56:56Z</time>
      </trkpt>
      <trkpt lat="42.40445" lon="8.92053">
        <ele>1484.4</ele>
        <time>2015-06-30T04:57:11Z</time>
      </trkpt>
      <trkpt lat="42.40445" lon="8.92051">
        <ele>1485.6</ele>
        <time>2015-06-30T04:57:21Z</time>
      </trkpt>
      <trkpt lat="42.40444" lon="8.92045">
        <ele>1486.8</ele>
        <time>2015-06-30T04:57:31Z</time>
      </trkpt>
      <trkpt lat="42.4044" lon="8.9204">
        <ele>1488.2</ele>
        <time>2015-06-30T04:57:40Z</time>
      </trkpt>
      <trkpt lat="42.40438" lon="8.92038">
        <ele>1489.4</ele>
        <time>2015-06-30T04:57:52Z</time>
      </trkpt>
      <trkpt lat="42.40441" lon="8.92036">
        <ele>1490.8</ele>
        <time>2015-06-30T04:58:08Z</time>
      </trkpt>
      <trkpt lat="42.40444" lon="8.92037">
        <ele>1492.4</ele>
        <time>2015-06-30T04:58:25Z</time>
      </trkpt>
      <trkpt lat="42.4045" lon="8.92033">
        <ele>1493.6</ele>
        <time>2015-06-30T04:58:34Z</time>
      </trkpt>
      <trkpt lat="42.40453" lon="8.92028">
        <ele>1494.6</ele>
        <time>2015-06-30T04:58:42Z</time>
      </trkpt>
      <trkpt lat="42.40455" lon="8.92021">
        <ele>1496.2</ele>
        <time>2015-06-30T04:58:54Z</time>
      </trkpt>
      <trkpt lat="42.40452" lon="8.92016">
        <ele>1497.6</ele>
        <time>2015-06-30T04:59:06Z</time>
      </trkpt>
      <trkpt lat="42.4045" lon="8.92014">
        <ele>1498.8</ele>
        <time>2015-06-30T04:59:15Z</time>
      </trkpt>
      <trkpt lat="42.40449" lon="8.9201">
        <ele>1500</ele>
        <time>2015-06-30T04:59:26Z</time>
      </trkpt>
      <trkpt lat="42.40445" lon="8.92005">
        <ele>1501.6</ele>
        <time>2015-06-30T04:59:37Z</time>
      </trkpt>
      <trkpt lat="42.40441" lon="8.92004">
        <ele>1502.8</ele>
        <time>2015-06-30T04:59:46Z</time>
      </trkpt>
      <trkpt lat="42.4044" lon="8.91999">
        <ele>1504.4</ele>
        <time>2015-06-30T05:00:01Z</time>
      </trkpt>
      <trkpt lat="42.4044" lon="8.91993">
        <ele>1505.4</ele>
        <time>2015-06-30T05:00:09Z</time>
      </trkpt>
      <trkpt lat="42.40438" lon="8.91991">
        <ele>1506.6</ele>
        <time>2015-06-30T05:00:18Z</time>
      </trkpt>
      <trkpt lat="42.40439" lon="8.91988">
        <ele>1507.8</ele>
        <time>2015-06-30T05:00:26Z</time>
      </trkpt>
      <trkpt lat="42.40436" lon="8.91982">
        <ele>1509.6</ele>
        <time>2015-06-30T05:00:37Z</time>
      </trkpt>
      <trkpt lat="42.40436" lon="8.91975">
        <ele>1510.6</ele>
        <time>2015-06-30T05:00:47Z</time>
      </trkpt>
      <trkpt lat="42.40435" lon="8.91971">
        <ele>1511.6</ele>
        <time>2015-06-30T05:00:55Z</time>
      </trkpt>
      <trkpt lat="42.40435" lon="8.9197">
        <ele>1511.6</ele>
        <time>2015-06-30T05:00:56Z</time>
      </trkpt>
      <trkpt lat="42.40433" lon="8.91967">
        <ele>1513</ele>
        <time>2015-06-30T05:01:05Z</time>
      </trkpt>
      <trkpt lat="42.40435" lon="8.91959">
        <ele>1514.2</ele>
        <time>2015-06-30T05:01:18Z</time>
      </trkpt>
      <trkpt lat="42.40436" lon="8.91957">
        <ele>1514.2</ele>
        <time>2015-06-30T05:01:19Z</time>
      </trkpt>
      <trkpt lat="42.40435" lon="8.9195">
        <ele>1515.2</ele>
        <time>2015-06-30T05:01:26Z</time>
      </trkpt>
      <trkpt lat="42.40435" lon="8.91948">
        <ele>1515.2</ele>
        <time>2015-06-30T05:01:27Z</time>
      </trkpt>
      <trkpt lat="42.40434" lon="8.9194">
        <ele>1516.8</ele>
        <time>2015-06-30T05:01:37Z</time>
      </trkpt>
      <trkpt lat="42.4043" lon="8.91934">
        <ele>1517.8</ele>
        <time>2015-06-30T05:01:47Z</time>
      </trkpt>
      <trkpt lat="42.40427" lon="8.91927">
        <ele>1517.6</ele>
        <time>2015-06-30T05:02:03Z</time>
      </trkpt>
      <trkpt lat="42.40425" lon="8.91926">
        <ele>1518.2</ele>
        <time>2015-06-30T05:02:12Z</time>
      </trkpt>
      <trkpt lat="42.40424" lon="8.91924">
        <ele>1519.6</ele>
        <time>2015-06-30T05:02:20Z</time>
      </trkpt>
      <trkpt lat="42.40417" lon="8.91911">
        <ele>1520.8</ele>
        <time>2015-06-30T05:02:31Z</time>
      </trkpt>
      <trkpt lat="42.40417" lon="8.91909">
        <ele>1521</ele>
        <time>2015-06-30T05:02:34Z</time>
      </trkpt>
      <trkpt lat="42.40414" lon="8.9191">
        <ele>1521.2</ele>
        <time>2015-06-30T05:02:38Z</time>
      </trkpt>
      <trkpt lat="42.40415" lon="8.91909">
        <ele>1521.4</ele>
        <time>2015-06-30T05:02:40Z</time>
      </trkpt>
      <trkpt lat="42.40417" lon="8.91903">
        <ele>1523</ele>
        <time>2015-06-30T05:02:51Z</time>
      </trkpt>
      <trkpt lat="42.40419" lon="8.919">
        <ele>1524</ele>
        <time>2015-06-30T05:02:58Z</time>
      </trkpt>
      <trkpt lat="42.40421" lon="8.91901">
        <ele>1525.2</ele>
        <time>2015-06-30T05:03:06Z</time>
      </trkpt>
      <trkpt lat="42.4043" lon="8.91898">
        <ele>1526.6</ele>
        <time>2015-06-30T05:03:17Z</time>
      </trkpt>
      <trkpt lat="42.40431" lon="8.91896">
        <ele>1527.6</ele>
        <time>2015-06-30T05:03:25Z</time>
      </trkpt>
      <trkpt lat="42.40432" lon="8.91895">
        <ele>1528.4</ele>
        <time>2015-06-30T05:03:30Z</time>
      </trkpt>
      <trkpt lat="42.40431" lon="8.91892">
        <ele>1530.2</ele>
        <time>2015-06-30T05:03:38Z</time>
      </trkpt>
      <trkpt lat="42.40429" lon="8.91891">
        <ele>1531.2</ele>
        <time>2015-06-30T05:03:52Z</time>
      </trkpt>
      <trkpt lat="42.40428" lon="8.9189">
        <ele>1532</ele>
        <time>2015-06-30T05:03:58Z</time>
      </trkpt>
      <trkpt lat="42.40427" lon="8.91888">
        <ele>1533</ele>
        <time>2015-06-30T05:04:04Z</time>
      </trkpt>
      <trkpt lat="42.40427" lon="8.91885">
        <ele>1534.6</ele>
        <time>2015-06-30T05:04:13Z</time>
      </trkpt>
      <trkpt lat="42.40427" lon="8.91881">
        <ele>1535.6</ele>
        <time>2015-06-30T05:04:20Z</time>
      </trkpt>
      <trkpt lat="42.40427" lon="8.91876">
        <ele>1536.8</ele>
        <time>2015-06-30T05:04:29Z</time>
      </trkpt>
      <trkpt lat="42.40429" lon="8.91872">
        <ele>1537.6</ele>
        <time>2015-06-30T05:04:35Z</time>
      </trkpt>
      <trkpt lat="42.40428" lon="8.91872">
        <ele>1538</ele>
        <time>2015-06-30T05:04:37Z</time>
      </trkpt>
      <trkpt lat="42.40431" lon="8.9187">
        <ele>1539.4</ele>
        <time>2015-06-30T05:04:48Z</time>
      </trkpt>
      <trkpt lat="42.40433" lon="8.91865">
        <ele>1540.4</ele>
        <time>2015-06-30T05:05:00Z</time>
      </trkpt>
      <trkpt lat="42.40436" lon="8.91862">
        <ele>1541.2</ele>
        <time>2015-06-30T05:05:07Z</time>
      </trkpt>
      <trkpt lat="42.40433" lon="8.91858">
        <ele>1542.8</ele>
        <time>2015-06-30T05:05:17Z</time>
      </trkpt>
      <trkpt lat="42.40428" lon="8.91858">
        <ele>1544</ele>
        <time>2015-06-30T05:05:27Z</time>
      </trkpt>
      <trkpt lat="42.40427" lon="8.91857">
        <ele>1544</ele>
        <time>2015-06-30T05:05:28Z</time>
      </trkpt>
      <trkpt lat="42.40425" lon="8.9185">
        <ele>1545</ele>
        <time>2015-06-30T05:05:37Z</time>
      </trkpt>
      <trkpt lat="42.40424" lon="8.91848">
        <ele>1545.2</ele>
        <time>2015-06-30T05:05:38Z</time>
      </trkpt>
      <trkpt lat="42.40425" lon="8.91845">
        <ele>1546.6</ele>
        <time>2015-06-30T05:05:48Z</time>
      </trkpt>
      <trkpt lat="42.40427" lon="8.91843">
        <ele>1547.2</ele>
        <time>2015-06-30T05:05:57Z</time>
      </trkpt>
      <trkpt lat="42.40429" lon="8.91839">
        <ele>1548.2</ele>
        <time>2015-06-30T05:06:06Z</time>
      </trkpt>
      <trkpt lat="42.40433" lon="8.91839">
        <ele>1549.6</ele>
        <time>2015-06-30T05:06:15Z</time>
      </trkpt>
      <trkpt lat="42.40442" lon="8.91834">
        <ele>1550.8</ele>
        <time>2015-06-30T05:06:25Z</time>
      </trkpt>
      <trkpt lat="42.40442" lon="8.91834">
        <ele>1551</ele>
        <time>2015-06-30T05:06:27Z</time>
      </trkpt>
      <trkpt lat="42.40442" lon="8.91834">
        <ele>1551</ele>
        <time>2015-06-30T05:06:28Z</time>
      </trkpt>
      <trkpt lat="42.40444" lon="8.91832">
        <ele>1552.2</ele>
        <time>2015-06-30T05:06:42Z</time>
      </trkpt>
      <trkpt lat="42.40445" lon="8.91833">
        <ele>1553</ele>
        <time>2015-06-30T05:06:49Z</time>
      </trkpt>
      <trkpt lat="42.40445" lon="8.91836">
        <ele>1554.2</ele>
        <time>2015-06-30T05:06:58Z</time>
      </trkpt>
      <trkpt lat="42.40446" lon="8.91837">
        <ele>1555.6</ele>
        <time>2015-06-30T05:07:09Z</time>
      </trkpt>
      <trkpt lat="42.40451" lon="8.91833">
        <ele>1556.6</ele>
        <time>2015-06-30T05:07:22Z</time>
      </trkpt>
      <trkpt lat="42.40456" lon="8.91828">
        <ele>1557.6</ele>
        <time>2015-06-30T05:07:31Z</time>
      </trkpt>
      <trkpt lat="42.40456" lon="8.91823">
        <ele>1558.8</ele>
        <time>2015-06-30T05:07:42Z</time>
      </trkpt>
      <trkpt lat="42.40462" lon="8.9182">
        <ele>1560</ele>
        <time>2015-06-30T05:07:50Z</time>
      </trkpt>
      <trkpt lat="42.40463" lon="8.91818">
        <ele>1561</ele>
        <time>2015-06-30T05:07:57Z</time>
      </trkpt>
      <trkpt lat="42.40469" lon="8.91817">
        <ele>1562.4</ele>
        <time>2015-06-30T05:08:06Z</time>
      </trkpt>
      <trkpt lat="42.4047" lon="8.91817">
        <ele>1562.8</ele>
        <time>2015-06-30T05:08:09Z</time>
      </trkpt>
      <trkpt lat="42.40471" lon="8.91815">
        <ele>1563.2</ele>
        <time>2015-06-30T05:08:14Z</time>
      </trkpt>
      <trkpt lat="42.40472" lon="8.91813">
        <ele>1564.6</ele>
        <time>2015-06-30T05:08:22Z</time>
      </trkpt>
      <trkpt lat="42.40472" lon="8.91814">
        <ele>1566</ele>
        <time>2015-06-30T05:08:31Z</time>
      </trkpt>
      <trkpt lat="42.4047" lon="8.91811">
        <ele>1567</ele>
        <time>2015-06-30T05:08:40Z</time>
      </trkpt>
      <trkpt lat="42.40466" lon="8.91806">
        <ele>1568</ele>
        <time>2015-06-30T05:08:49Z</time>
      </trkpt>
      <trkpt lat="42.40467" lon="8.91804">
        <ele>1568.4</ele>
        <time>2015-06-30T05:08:51Z</time>
      </trkpt>
      <trkpt lat="42.40466" lon="8.91803">
        <ele>1568.4</ele>
        <time>2015-06-30T05:08:52Z</time>
      </trkpt>
      <trkpt lat="42.40467" lon="8.91801">
        <ele>1568.8</ele>
        <time>2015-06-30T05:08:55Z</time>
      </trkpt>
      <trkpt lat="42.40466" lon="8.918">
        <ele>1569</ele>
        <time>2015-06-30T05:08:57Z</time>
      </trkpt>
      <trkpt lat="42.40466" lon="8.918">
        <ele>1569</ele>
        <time>2015-06-30T05:08:58Z</time>
      </trkpt>
      <trkpt lat="42.40466" lon="8.91795">
        <ele>1570.6</ele>
        <time>2015-06-30T05:09:14Z</time>
      </trkpt>
      <trkpt lat="42.40466" lon="8.91793">
        <ele>1571.6</ele>
        <time>2015-06-30T05:09:23Z</time>
      </trkpt>
      <trkpt lat="42.40466" lon="8.91791">
        <ele>1572.6</ele>
        <time>2015-06-30T05:09:30Z</time>
      </trkpt>
      <trkpt lat="42.40468" lon="8.91789">
        <ele>1574.2</ele>
        <time>2015-06-30T05:09:41Z</time>
      </trkpt>
      <trkpt lat="42.40472" lon="8.91789">
        <ele>1575</ele>
        <time>2015-06-30T05:09:47Z</time>
      </trkpt>
      <trkpt lat="42.40474" lon="8.91788">
        <ele>1575</ele>
        <time>2015-06-30T05:09:49Z</time>
      </trkpt>
      <trkpt lat="42.40474" lon="8.91787">
        <ele>1575.2</ele>
        <time>2015-06-30T05:09:50Z</time>
      </trkpt>
      <trkpt lat="42.40474" lon="8.91787">
        <ele>1577</ele>
        <time>2015-06-30T05:10:07Z</time>
      </trkpt>
      <trkpt lat="42.40477" lon="8.91786">
        <ele>1578</ele>
        <time>2015-06-30T05:10:21Z</time>
      </trkpt>
      <trkpt lat="42.4048" lon="8.91788">
        <ele>1579</ele>
        <time>2015-06-30T05:10:30Z</time>
      </trkpt>
      <trkpt lat="42.40485" lon="8.91786">
        <ele>1579.8</ele>
        <time>2015-06-30T05:10:36Z</time>
      </trkpt>
      <trkpt lat="42.40488" lon="8.91783">
        <ele>1580.4</ele>
        <time>2015-06-30T05:10:44Z</time>
      </trkpt>
      <trkpt lat="42.40489" lon="8.91783">
        <ele>1581.6</ele>
        <time>2015-06-30T05:10:55Z</time>
      </trkpt>
      <trkpt lat="42.4049" lon="8.91783">
        <ele>1582.4</ele>
        <time>2015-06-30T05:11:04Z</time>
      </trkpt>
      <trkpt lat="42.40492" lon="8.91782">
        <ele>1584</ele>
        <time>2015-06-30T05:11:16Z</time>
      </trkpt>
      <trkpt lat="42.40492" lon="8.91781">
        <ele>1584.8</ele>
        <time>2015-06-30T05:11:25Z</time>
      </trkpt>
      <trkpt lat="42.40492" lon="8.91779">
        <ele>1586.6</ele>
        <time>2015-06-30T05:11:42Z</time>
      </trkpt>
      <trkpt lat="42.40492" lon="8.91776">
        <ele>1587.8</ele>
        <time>2015-06-30T05:11:53Z</time>
      </trkpt>
      <trkpt lat="42.40494" lon="8.91767">
        <ele>1589.2</ele>
        <time>2015-06-30T05:12:58Z</time>
      </trkpt>
      <trkpt lat="42.40496" lon="8.91763">
        <ele>1590.8</ele>
        <time>2015-06-30T05:13:09Z</time>
      </trkpt>
      <trkpt lat="42.40498" lon="8.91763">
        <ele>1591.2</ele>
        <time>2015-06-30T05:13:15Z</time>
      </trkpt>
      <trkpt lat="42.405" lon="8.91762">
        <ele>1593</ele>
        <time>2015-06-30T05:13:25Z</time>
      </trkpt>
      <trkpt lat="42.40501" lon="8.91758">
        <ele>1594.2</ele>
        <time>2015-06-30T05:13:33Z</time>
      </trkpt>
      <trkpt lat="42.40503" lon="8.91754">
        <ele>1595.4</ele>
        <time>2015-06-30T05:13:42Z</time>
      </trkpt>
      <trkpt lat="42.40503" lon="8.91751">
        <ele>1596.2</ele>
        <time>2015-06-30T05:13:49Z</time>
      </trkpt>
      <trkpt lat="42.40503" lon="8.91749">
        <ele>1597.6</ele>
        <time>2015-06-30T05:13:59Z</time>
      </trkpt>
      <trkpt lat="42.40499" lon="8.91747">
        <ele>1598.8</ele>
        <time>2015-06-30T05:14:09Z</time>
      </trkpt>
      <trkpt lat="42.40502" lon="8.91744">
        <ele>1599.8</ele>
        <time>2015-06-30T05:14:18Z</time>
      </trkpt>
      <trkpt lat="42.405" lon="8.91739">
        <ele>1601</ele>
        <time>2015-06-30T05:14:30Z</time>
      </trkpt>
      <trkpt lat="42.40501" lon="8.91735">
        <ele>1602</ele>
        <time>2015-06-30T05:14:38Z</time>
      </trkpt>
      <trkpt lat="42.405" lon="8.91733">
        <ele>1602.4</ele>
        <time>2015-06-30T05:14:41Z</time>
      </trkpt>
      <trkpt lat="42.405" lon="8.91728">
        <ele>1603</ele>
        <time>2015-06-30T05:14:47Z</time>
      </trkpt>
      <trkpt lat="42.405" lon="8.91722">
        <ele>1603.4</ele>
        <time>2015-06-30T05:14:57Z</time>
      </trkpt>
      <trkpt lat="42.40502" lon="8.91714">
        <ele>1605</ele>
        <time>2015-06-30T05:15:10Z</time>
      </trkpt>
      <trkpt lat="42.40499" lon="8.91697">
        <ele>1606</ele>
        <time>2015-06-30T05:15:39Z</time>
      </trkpt>
      <trkpt lat="42.405" lon="8.9169">
        <ele>1607</ele>
        <time>2015-06-30T05:15:51Z</time>
      </trkpt>
      <trkpt lat="42.405" lon="8.91685">
        <ele>1608.2</ele>
        <time>2015-06-30T05:16:02Z</time>
      </trkpt>
      <trkpt lat="42.40499" lon="8.9168">
        <ele>1609.6</ele>
        <time>2015-06-30T05:16:12Z</time>
      </trkpt>
      <trkpt lat="42.40499" lon="8.9168">
        <ele>1609.6</ele>
        <time>2015-06-30T05:16:13Z</time>
      </trkpt>
      <trkpt lat="42.40502" lon="8.91676">
        <ele>1610.8</ele>
        <time>2015-06-30T05:16:24Z</time>
      </trkpt>
      <trkpt lat="42.40506" lon="8.91674">
        <ele>1611.8</ele>
        <time>2015-06-30T05:16:38Z</time>
      </trkpt>
      <trkpt lat="42.40505" lon="8.91673">
        <ele>1613.2</ele>
        <time>2015-06-30T05:16:50Z</time>
      </trkpt>
      <trkpt lat="42.40504" lon="8.91671">
        <ele>1614.2</ele>
        <time>2015-06-30T05:16:59Z</time>
      </trkpt>
      <trkpt lat="42.40504" lon="8.91669">
        <ele>1615.2</ele>
        <time>2015-06-30T05:17:10Z</time>
      </trkpt>
      <trkpt lat="42.40503" lon="8.91666">
        <ele>1616.4</ele>
        <time>2015-06-30T05:17:20Z</time>
      </trkpt>
      <trkpt lat="42.40502" lon="8.9166">
        <ele>1617.8</ele>
        <time>2015-06-30T05:17:31Z</time>
      </trkpt>
      <trkpt lat="42.40502" lon="8.91658">
        <ele>1618.8</ele>
        <time>2015-06-30T05:17:42Z</time>
      </trkpt>
      <trkpt lat="42.40501" lon="8.91656">
        <ele>1620.8</ele>
        <time>2015-06-30T05:17:58Z</time>
      </trkpt>
      <trkpt lat="42.40501" lon="8.91655">
        <ele>1621.2</ele>
        <time>2015-06-30T05:18:07Z</time>
      </trkpt>
      <trkpt lat="42.40501" lon="8.91651">
        <ele>1622.6</ele>
        <time>2015-06-30T05:18:20Z</time>
      </trkpt>
      <trkpt lat="42.405" lon="8.91647">
        <ele>1623.8</ele>
        <time>2015-06-30T05:18:35Z</time>
      </trkpt>
      <trkpt lat="42.405" lon="8.91642">
        <ele>1624.8</ele>
        <time>2015-06-30T05:18:45Z</time>
      </trkpt>
      <trkpt lat="42.40506" lon="8.91634">
        <ele>1626.2</ele>
        <time>2015-06-30T05:19:03Z</time>
      </trkpt>
      <trkpt lat="42.40506" lon="8.91625">
        <ele>1627.8</ele>
        <time>2015-06-30T05:19:19Z</time>
      </trkpt>
      <trkpt lat="42.40507" lon="8.91621">
        <ele>1629.2</ele>
        <time>2015-06-30T05:19:36Z</time>
      </trkpt>
      <trkpt lat="42.40505" lon="8.91617">
        <ele>1630.2</ele>
        <time>2015-06-30T05:19:46Z</time>
      </trkpt>
      <trkpt lat="42.40504" lon="8.91614">
        <ele>1631.6</ele>
        <time>2015-06-30T05:19:54Z</time>
      </trkpt>
      <trkpt lat="42.40502" lon="8.91611">
        <ele>1633</ele>
        <time>2015-06-30T05:20:04Z</time>
      </trkpt>
      <trkpt lat="42.40501" lon="8.91618">
        <ele>1632.2</ele>
        <time>2015-06-30T05:20:18Z</time>
      </trkpt>
      <trkpt lat="42.40502" lon="8.91621">
        <ele>1631.6</ele>
        <time>2015-06-30T05:20:25Z</time>
      </trkpt>
      <trkpt lat="42.40501" lon="8.91624">
        <ele>1630.8</ele>
        <time>2015-06-30T05:20:33Z</time>
      </trkpt>
      <trkpt lat="42.40498" lon="8.91627">
        <ele>1629.6</ele>
        <time>2015-06-30T05:20:43Z</time>
      </trkpt>
      <trkpt lat="42.405" lon="8.9163">
        <ele>1629.6</ele>
        <time>2015-06-30T05:20:47Z</time>
      </trkpt>
      <trkpt lat="42.40501" lon="8.91631">
        <ele>1629.4</ele>
        <time>2015-06-30T05:20:48Z</time>
      </trkpt>
      <trkpt lat="42.40504" lon="8.91632">
        <ele>1628.6</ele>
        <time>2015-06-30T05:20:50Z</time>
      </trkpt>
      <trkpt lat="42.40506" lon="8.91633">
        <ele>1628</ele>
        <time>2015-06-30T05:20:52Z</time>
      </trkpt>
      <trkpt lat="42.40515" lon="8.91622">
        <ele>1628.6</ele>
        <time>2015-06-30T05:21:15Z</time>
      </trkpt>
      <trkpt lat="42.40521" lon="8.9161">
        <ele>1630</ele>
        <time>2015-06-30T05:21:39Z</time>
      </trkpt>
      <trkpt lat="42.40521" lon="8.91608">
        <ele>1631.4</ele>
        <time>2015-06-30T05:21:48Z</time>
      </trkpt>
      <trkpt lat="42.40521" lon="8.91607">
        <ele>1632.4</ele>
        <time>2015-06-30T05:21:57Z</time>
      </trkpt>
      <trkpt lat="42.4052" lon="8.91596">
        <ele>1634</ele>
        <time>2015-06-30T05:22:17Z</time>
      </trkpt>
      <trkpt lat="42.40527" lon="8.91569">
        <ele>1634</ele>
        <time>2015-06-30T05:23:17Z</time>
      </trkpt>
      <trkpt lat="42.40531" lon="8.91562">
        <ele>1635.6</ele>
        <time>2015-06-30T05:23:26Z</time>
      </trkpt>
      <trkpt lat="42.40532" lon="8.91558">
        <ele>1636.2</ele>
        <time>2015-06-30T05:23:32Z</time>
      </trkpt>
      <trkpt lat="42.40532" lon="8.91554">
        <ele>1637.8</ele>
        <time>2015-06-30T05:23:40Z</time>
      </trkpt>
      <trkpt lat="42.40531" lon="8.91551">
        <ele>1638.6</ele>
        <time>2015-06-30T05:23:46Z</time>
      </trkpt>
      <trkpt lat="42.40532" lon="8.91549">
        <ele>1640</ele>
        <time>2015-06-30T05:23:54Z</time>
      </trkpt>
      <trkpt lat="42.40533" lon="8.91547">
        <ele>1641.2</ele>
        <time>2015-06-30T05:24:04Z</time>
      </trkpt>
      <trkpt lat="42.40532" lon="8.91544">
        <ele>1642.6</ele>
        <time>2015-06-30T05:24:14Z</time>
      </trkpt>
      <trkpt lat="42.40536" lon="8.91542">
        <ele>1643.6</ele>
        <time>2015-06-30T05:24:24Z</time>
      </trkpt>
      <trkpt lat="42.40539" lon="8.91538">
        <ele>1645.2</ele>
        <time>2015-06-30T05:24:34Z</time>
      </trkpt>
      <trkpt lat="42.40542" lon="8.91537">
        <ele>1645.8</ele>
        <time>2015-06-30T05:24:40Z</time>
      </trkpt>
      <trkpt lat="42.40545" lon="8.91536">
        <ele>1647.2</ele>
        <time>2015-06-30T05:24:49Z</time>
      </trkpt>
      <trkpt lat="42.40543" lon="8.91529">
        <ele>1648.6</ele>
        <time>2015-06-30T05:25:00Z</time>
      </trkpt>
      <trkpt lat="42.40546" lon="8.91526">
        <ele>1649.8</ele>
        <time>2015-06-30T05:25:15Z</time>
      </trkpt>
      <trkpt lat="42.40544" lon="8.91517">
        <ele>1650.8</ele>
        <time>2015-06-30T05:25:41Z</time>
      </trkpt>
      <trkpt lat="42.40545" lon="8.91516">
        <ele>1650.8</ele>
        <time>2015-06-30T05:25:43Z</time>
      </trkpt>
      <trkpt lat="42.40548" lon="8.91513">
        <ele>1651.6</ele>
        <time>2015-06-30T05:26:03Z</time>
      </trkpt>
      <trkpt lat="42.4055" lon="8.91509">
        <ele>1652.8</ele>
        <time>2015-06-30T05:26:11Z</time>
      </trkpt>
      <trkpt lat="42.40548" lon="8.91507">
        <ele>1653.2</ele>
        <time>2015-06-30T05:26:18Z</time>
      </trkpt>
      <trkpt lat="42.40544" lon="8.91504">
        <ele>1654.6</ele>
        <time>2015-06-30T05:26:26Z</time>
      </trkpt>
      <trkpt lat="42.40544" lon="8.91504">
        <ele>1655.4</ele>
        <time>2015-06-30T05:26:31Z</time>
      </trkpt>
      <trkpt lat="42.40543" lon="8.91501">
        <ele>1655.8</ele>
        <time>2015-06-30T05:26:36Z</time>
      </trkpt>
      <trkpt lat="42.40545" lon="8.915">
        <ele>1656.8</ele>
        <time>2015-06-30T05:26:44Z</time>
      </trkpt>
      <trkpt lat="42.40547" lon="8.91501">
        <ele>1657.8</ele>
        <time>2015-06-30T05:26:51Z</time>
      </trkpt>
      <trkpt lat="42.40547" lon="8.91504">
        <ele>1659</ele>
        <time>2015-06-30T05:26:59Z</time>
      </trkpt>
      <trkpt lat="42.40549" lon="8.91504">
        <ele>1659.8</ele>
        <time>2015-06-30T05:27:05Z</time>
      </trkpt>
      <trkpt lat="42.40548" lon="8.91499">
        <ele>1661.4</ele>
        <time>2015-06-30T05:27:21Z</time>
      </trkpt>
      <trkpt lat="42.40547" lon="8.91494">
        <ele>1662.4</ele>
        <time>2015-06-30T05:27:30Z</time>
      </trkpt>
      <trkpt lat="42.40547" lon="8.91491">
        <ele>1664</ele>
        <time>2015-06-30T05:28:14Z</time>
      </trkpt>
      <trkpt lat="42.40545" lon="8.9149">
        <ele>1665.2</ele>
        <time>2015-06-30T05:28:33Z</time>
      </trkpt>
      <trkpt lat="42.4055" lon="8.91493">
        <ele>1665.6</ele>
        <time>2015-06-30T05:28:44Z</time>
      </trkpt>
      <trkpt lat="42.40548" lon="8.91493">
        <ele>1666.8</ele>
        <time>2015-06-30T05:29:03Z</time>
      </trkpt>
      <trkpt lat="42.40548" lon="8.91491">
        <ele>1667.8</ele>
        <time>2015-06-30T05:29:10Z</time>
      </trkpt>
      <trkpt lat="42.40546" lon="8.91486">
        <ele>1669</ele>
        <time>2015-06-30T05:29:20Z</time>
      </trkpt>
      <trkpt lat="42.40547" lon="8.91484">
        <ele>1670.4</ele>
        <time>2015-06-30T05:29:32Z</time>
      </trkpt>
      <trkpt lat="42.40547" lon="8.91483">
        <ele>1671</ele>
        <time>2015-06-30T05:29:38Z</time>
      </trkpt>
      <trkpt lat="42.40547" lon="8.91478">
        <ele>1672.4</ele>
        <time>2015-06-30T05:29:46Z</time>
      </trkpt>
      <trkpt lat="42.4055" lon="8.91475">
        <ele>1673.2</ele>
        <time>2015-06-30T05:29:52Z</time>
      </trkpt>
      <trkpt lat="42.40553" lon="8.91474">
        <ele>1674.2</ele>
        <time>2015-06-30T05:30:00Z</time>
      </trkpt>
      <trkpt lat="42.40554" lon="8.91467">
        <ele>1675.6</ele>
        <time>2015-06-30T05:30:17Z</time>
      </trkpt>
      <trkpt lat="42.40555" lon="8.91465">
        <ele>1677</ele>
        <time>2015-06-30T05:30:33Z</time>
      </trkpt>
      <trkpt lat="42.40555" lon="8.91463">
        <ele>1678.2</ele>
        <time>2015-06-30T05:30:46Z</time>
      </trkpt>
      <trkpt lat="42.40551" lon="8.91465">
        <ele>1679.2</ele>
        <time>2015-06-30T05:31:03Z</time>
      </trkpt>
      <trkpt lat="42.40551" lon="8.91467">
        <ele>1680.4</ele>
        <time>2015-06-30T05:31:18Z</time>
      </trkpt>
      <trkpt lat="42.40556" lon="8.91468">
        <ele>1680.6</ele>
        <time>2015-06-30T05:31:20Z</time>
      </trkpt>
      <trkpt lat="42.40556" lon="8.91468">
        <ele>1680.8</ele>
        <time>2015-06-30T05:31:22Z</time>
      </trkpt>
      <trkpt lat="42.40558" lon="8.91465">
        <ele>1681.6</ele>
        <time>2015-06-30T05:31:34Z</time>
      </trkpt>
      <trkpt lat="42.40561" lon="8.91463">
        <ele>1682.6</ele>
        <time>2015-06-30T05:31:43Z</time>
      </trkpt>
      <trkpt lat="42.40563" lon="8.91463">
        <ele>1683.2</ele>
        <time>2015-06-30T05:31:49Z</time>
      </trkpt>
      <trkpt lat="42.4056" lon="8.91459">
        <ele>1684.6</ele>
        <time>2015-06-30T05:31:58Z</time>
      </trkpt>
      <trkpt lat="42.4056" lon="8.9146">
        <ele>1686.2</ele>
        <time>2015-06-30T05:32:10Z</time>
      </trkpt>
      <trkpt lat="42.40561" lon="8.91457">
        <ele>1687.4</ele>
        <time>2015-06-30T05:32:21Z</time>
      </trkpt>
      <trkpt lat="42.40553" lon="8.91455">
        <ele>1687.4</ele>
        <time>2015-06-30T05:32:25Z</time>
      </trkpt>
      <trkpt lat="42.40551" lon="8.91453">
        <ele>1688</ele>
        <time>2015-06-30T05:32:29Z</time>
      </trkpt>
      <trkpt lat="42.40539" lon="8.91451">
        <ele>1689</ele>
        <time>2015-06-30T05:32:36Z</time>
      </trkpt>
      <trkpt lat="42.40542" lon="8.91447">
        <ele>1690.2</ele>
        <time>2015-06-30T05:32:45Z</time>
      </trkpt>
      <trkpt lat="42.40551" lon="8.91447">
        <ele>1690.6</ele>
        <time>2015-06-30T05:32:47Z</time>
      </trkpt>
      <trkpt lat="42.40557" lon="8.91446">
        <ele>1691</ele>
        <time>2015-06-30T05:32:50Z</time>
      </trkpt>
      <trkpt lat="42.40559" lon="8.91445">
        <ele>1691.2</ele>
        <time>2015-06-30T05:32:52Z</time>
      </trkpt>
      <trkpt lat="42.40559" lon="8.91445">
        <ele>1691.4</ele>
        <time>2015-06-30T05:32:53Z</time>
      </trkpt>
      <trkpt lat="42.40559" lon="8.91444">
        <ele>1691.6</ele>
        <time>2015-06-30T05:32:54Z</time>
      </trkpt>
      <trkpt lat="42.40563" lon="8.91439">
        <ele>1692.8</ele>
        <time>2015-06-30T05:33:09Z</time>
      </trkpt>
      <trkpt lat="42.40565" lon="8.91439">
        <ele>1693.6</ele>
        <time>2015-06-30T05:33:18Z</time>
      </trkpt>
      <trkpt lat="42.40567" lon="8.91438">
        <ele>1694.8</ele>
        <time>2015-06-30T05:33:29Z</time>
      </trkpt>
      <trkpt lat="42.40565" lon="8.91432">
        <ele>1696</ele>
        <time>2015-06-30T05:33:38Z</time>
      </trkpt>
      <trkpt lat="42.40564" lon="8.91428">
        <ele>1696.8</ele>
        <time>2015-06-30T05:33:45Z</time>
      </trkpt>
      <trkpt lat="42.4056" lon="8.91422">
        <ele>1698.2</ele>
        <time>2015-06-30T05:33:56Z</time>
      </trkpt>
      <trkpt lat="42.4056" lon="8.91421">
        <ele>1699</ele>
        <time>2015-06-30T05:34:08Z</time>
      </trkpt>
      <trkpt lat="42.4056" lon="8.91418">
        <ele>1700.6</ele>
        <time>2015-06-30T05:34:21Z</time>
      </trkpt>
      <trkpt lat="42.40557" lon="8.91414">
        <ele>1702</ele>
        <time>2015-06-30T05:34:46Z</time>
      </trkpt>
      <trkpt lat="42.40555" lon="8.91412">
        <ele>1702.8</ele>
        <time>2015-06-30T05:34:54Z</time>
      </trkpt>
      <trkpt lat="42.40553" lon="8.91409">
        <ele>1703.8</ele>
        <time>2015-06-30T05:35:02Z</time>
      </trkpt>
      <trkpt lat="42.40556" lon="8.91408">
        <ele>1705.2</ele>
        <time>2015-06-30T05:35:12Z</time>
      </trkpt>
      <trkpt lat="42.40561" lon="8.91407">
        <ele>1706.4</ele>
        <time>2015-06-30T05:35:24Z</time>
      </trkpt>
      <trkpt lat="42.40562" lon="8.91405">
        <ele>1707.4</ele>
        <time>2015-06-30T05:35:32Z</time>
      </trkpt>
      <trkpt lat="42.40569" lon="8.91403">
        <ele>1708.4</ele>
        <time>2015-06-30T05:35:41Z</time>
      </trkpt>
      <trkpt lat="42.40568" lon="8.91401">
        <ele>1709.4</ele>
        <time>2015-06-30T05:35:50Z</time>
      </trkpt>
      <trkpt lat="42.40574" lon="8.91401">
        <ele>1710.4</ele>
        <time>2015-06-30T05:36:21Z</time>
      </trkpt>
      <trkpt lat="42.40576" lon="8.91401">
        <ele>1711.2</ele>
        <time>2015-06-30T05:36:31Z</time>
      </trkpt>
      <trkpt lat="42.40578" lon="8.91399">
        <ele>1712.2</ele>
        <time>2015-06-30T05:36:40Z</time>
      </trkpt>
      <trkpt lat="42.40575" lon="8.91397">
        <ele>1713.6</ele>
        <time>2015-06-30T05:36:59Z</time>
      </trkpt>
      <trkpt lat="42.40571" lon="8.91392">
        <ele>1714</ele>
        <time>2015-06-30T05:37:03Z</time>
      </trkpt>
      <trkpt lat="42.40572" lon="8.91391">
        <ele>1714</ele>
        <time>2015-06-30T05:37:04Z</time>
      </trkpt>
      <trkpt lat="42.40572" lon="8.9139">
        <ele>1714.4</ele>
        <time>2015-06-30T05:37:06Z</time>
      </trkpt>
      <trkpt lat="42.40573" lon="8.9139">
        <ele>1714.8</ele>
        <time>2015-06-30T05:37:08Z</time>
      </trkpt>
      <trkpt lat="42.40573" lon="8.91389">
        <ele>1715.8</ele>
        <time>2015-06-30T05:37:12Z</time>
      </trkpt>
      <trkpt lat="42.40576" lon="8.91404">
        <ele>1717.2</ele>
        <time>2015-06-30T05:37:45Z</time>
      </trkpt>
      <trkpt lat="42.40584" lon="8.91406">
        <ele>1717.8</ele>
        <time>2015-06-30T05:37:53Z</time>
      </trkpt>
      <trkpt lat="42.40587" lon="8.9141">
        <ele>1718.2</ele>
        <time>2015-06-30T05:37:56Z</time>
      </trkpt>
      <trkpt lat="42.40588" lon="8.91411">
        <ele>1718.6</ele>
        <time>2015-06-30T05:37:58Z</time>
      </trkpt>
      <trkpt lat="42.40588" lon="8.9141">
        <ele>1718.8</ele>
        <time>2015-06-30T05:37:59Z</time>
      </trkpt>
      <trkpt lat="42.40585" lon="8.91414">
        <ele>1720.4</ele>
        <time>2015-06-30T05:38:33Z</time>
      </trkpt>
      <trkpt lat="42.4059" lon="8.91409">
        <ele>1720.4</ele>
        <time>2015-06-30T05:38:37Z</time>
      </trkpt>
      <trkpt lat="42.40593" lon="8.91413">
        <ele>1720.6</ele>
        <time>2015-06-30T05:38:39Z</time>
      </trkpt>
      <trkpt lat="42.40596" lon="8.91419">
        <ele>1721.2</ele>
        <time>2015-06-30T05:38:45Z</time>
      </trkpt>
      <trkpt lat="42.40596" lon="8.91423">
        <ele>1721.2</ele>
        <time>2015-06-30T05:38:48Z</time>
      </trkpt>
      <trkpt lat="42.40598" lon="8.91422">
        <ele>1721.4</ele>
        <time>2015-06-30T05:39:07Z</time>
      </trkpt>
      <trkpt lat="42.40604" lon="8.91414">
        <ele>1721.4</ele>
        <time>2015-06-30T05:39:12Z</time>
      </trkpt>
      <trkpt lat="42.40605" lon="8.91414">
        <ele>1721.8</ele>
        <time>2015-06-30T05:39:15Z</time>
      </trkpt>
      <trkpt lat="42.40606" lon="8.91417">
        <ele>1722</ele>
        <time>2015-06-30T05:39:23Z</time>
      </trkpt>
      <trkpt lat="42.40608" lon="8.91417">
        <ele>1722.8</ele>
        <time>2015-06-30T05:39:32Z</time>
      </trkpt>
      <trkpt lat="42.40608" lon="8.91418">
        <ele>1724.2</ele>
        <time>2015-06-30T05:39:43Z</time>
      </trkpt>
      <trkpt lat="42.40612" lon="8.91421">
        <ele>1725.4</ele>
        <time>2015-06-30T05:39:55Z</time>
      </trkpt>
      <trkpt lat="42.40613" lon="8.91421">
        <ele>1726.2</ele>
        <time>2015-06-30T05:40:04Z</time>
      </trkpt>
      <trkpt lat="42.40617" lon="8.91422">
        <ele>1727.6</ele>
        <time>2015-06-30T05:40:19Z</time>
      </trkpt>
      <trkpt lat="42.4062" lon="8.91424">
        <ele>1728.2</ele>
        <time>2015-06-30T05:40:29Z</time>
      </trkpt>
      <trkpt lat="42.40622" lon="8.91423">
        <ele>1729.4</ele>
        <time>2015-06-30T05:40:37Z</time>
      </trkpt>
      <trkpt lat="42.40624" lon="8.91425">
        <ele>1729.6</ele>
        <time>2015-06-30T05:40:40Z</time>
      </trkpt>
      <trkpt lat="42.40625" lon="8.91426">
        <ele>1730.2</ele>
        <time>2015-06-30T05:40:44Z</time>
      </trkpt>
      <trkpt lat="42.40627" lon="8.91429">
        <ele>1731.8</ele>
        <time>2015-06-30T05:40:54Z</time>
      </trkpt>
      <trkpt lat="42.40628" lon="8.9143">
        <ele>1732.4</ele>
        <time>2015-06-30T05:41:02Z</time>
      </trkpt>
      <trkpt lat="42.4063" lon="8.91427">
        <ele>1733.6</ele>
        <time>2015-06-30T05:41:16Z</time>
      </trkpt>
      <trkpt lat="42.40622" lon="8.91419">
        <ele>1735.2</ele>
        <time>2015-06-30T05:41:43Z</time>
      </trkpt>
      <trkpt lat="42.40621" lon="8.91419">
        <ele>1735.2</ele>
        <time>2015-06-30T05:41:47Z</time>
      </trkpt>
      <trkpt lat="42.4064" lon="8.91411">
        <ele>1736</ele>
        <time>2015-06-30T05:42:34Z</time>
      </trkpt>
      <trkpt lat="42.40642" lon="8.9141">
        <ele>1736.2</ele>
        <time>2015-06-30T05:42:37Z</time>
      </trkpt>
      <trkpt lat="42.40645" lon="8.91407">
        <ele>1736.8</ele>
        <time>2015-06-30T05:42:42Z</time>
      </trkpt>
      <trkpt lat="42.40646" lon="8.91403">
        <ele>1737.2</ele>
        <time>2015-06-30T05:42:45Z</time>
      </trkpt>
      <trkpt lat="42.40644" lon="8.91396">
        <ele>1738.2</ele>
        <time>2015-06-30T05:42:53Z</time>
      </trkpt>
      <trkpt lat="42.40641" lon="8.91397">
        <ele>1738.4</ele>
        <time>2015-06-30T05:42:55Z</time>
      </trkpt>
      <trkpt lat="42.4064" lon="8.91397">
        <ele>1738.8</ele>
        <time>2015-06-30T05:42:58Z</time>
      </trkpt>
      <trkpt lat="42.40643" lon="8.91391">
        <ele>1739.6</ele>
        <time>2015-06-30T05:43:04Z</time>
      </trkpt>
      <trkpt lat="42.40647" lon="8.91389">
        <ele>1740</ele>
        <time>2015-06-30T05:43:08Z</time>
      </trkpt>
      <trkpt lat="42.40648" lon="8.91388">
        <ele>1740.4</ele>
        <time>2015-06-30T05:43:11Z</time>
      </trkpt>
      <trkpt lat="42.40651" lon="8.91387">
        <ele>1740.8</ele>
        <time>2015-06-30T05:43:14Z</time>
      </trkpt>
      <trkpt lat="42.40654" lon="8.91383">
        <ele>1741</ele>
        <time>2015-06-30T05:43:18Z</time>
      </trkpt>
      <trkpt lat="42.40656" lon="8.91382">
        <ele>1741.6</ele>
        <time>2015-06-30T05:43:23Z</time>
      </trkpt>
      <trkpt lat="42.40662" lon="8.91381">
        <ele>1743</ele>
        <time>2015-06-30T05:43:33Z</time>
      </trkpt>
      <trkpt lat="42.40663" lon="8.91381">
        <ele>1743.2</ele>
        <time>2015-06-30T05:43:34Z</time>
      </trkpt>
      <trkpt lat="42.40664" lon="8.9138">
        <ele>1743.8</ele>
        <time>2015-06-30T05:43:41Z</time>
      </trkpt>
      <trkpt lat="42.40664" lon="8.91379">
        <ele>1745</ele>
        <time>2015-06-30T05:43:51Z</time>
      </trkpt>
      <trkpt lat="42.40668" lon="8.91378">
        <ele>1746.2</ele>
        <time>2015-06-30T05:44:02Z</time>
      </trkpt>
      <trkpt lat="42.40669" lon="8.9138">
        <ele>1747</ele>
        <time>2015-06-30T05:44:10Z</time>
      </trkpt>
      <trkpt lat="42.4067" lon="8.9138">
        <ele>1748.6</ele>
        <time>2015-06-30T05:44:19Z</time>
      </trkpt>
      <trkpt lat="42.40678" lon="8.91378">
        <ele>1749.8</ele>
        <time>2015-06-30T05:44:38Z</time>
      </trkpt>
      <trkpt lat="42.40678" lon="8.91376">
        <ele>1750.4</ele>
        <time>2015-06-30T05:44:47Z</time>
      </trkpt>
      <trkpt lat="42.40677" lon="8.91371">
        <ele>1751.4</ele>
        <time>2015-06-30T05:44:56Z</time>
      </trkpt>
      <trkpt lat="42.40677" lon="8.9137">
        <ele>1752.6</ele>
        <time>2015-06-30T05:45:04Z</time>
      </trkpt>
      <trkpt lat="42.40675" lon="8.91371">
        <ele>1753.8</ele>
        <time>2015-06-30T05:45:18Z</time>
      </trkpt>
      <trkpt lat="42.4068" lon="8.9137">
        <ele>1754.4</ele>
        <time>2015-06-30T05:45:27Z</time>
      </trkpt>
      <trkpt lat="42.40682" lon="8.91368">
        <ele>1755.8</ele>
        <time>2015-06-30T05:45:37Z</time>
      </trkpt>
      <trkpt lat="42.40688" lon="8.9136">
        <ele>1757</ele>
        <time>2015-06-30T05:45:53Z</time>
      </trkpt>
      <trkpt lat="42.40688" lon="8.91365">
        <ele>1757.8</ele>
        <time>2015-06-30T05:46:04Z</time>
      </trkpt>
      <trkpt lat="42.40686" lon="8.91364">
        <ele>1759.2</ele>
        <time>2015-06-30T05:46:17Z</time>
      </trkpt>
      <trkpt lat="42.40686" lon="8.91363">
        <ele>1759.8</ele>
        <time>2015-06-30T05:46:26Z</time>
      </trkpt>
      <trkpt lat="42.40685" lon="8.91359">
        <ele>1761.2</ele>
        <time>2015-06-30T05:46:41Z</time>
      </trkpt>
      <trkpt lat="42.40682" lon="8.91357">
        <ele>1762.6</ele>
        <time>2015-06-30T05:47:00Z</time>
      </trkpt>
      <trkpt lat="42.40681" lon="8.91356">
        <ele>1762.6</ele>
        <time>2015-06-30T05:47:01Z</time>
      </trkpt>
      <trkpt lat="42.40681" lon="8.91358">
        <ele>1763.4</ele>
        <time>2015-06-30T05:47:13Z</time>
      </trkpt>
      <trkpt lat="42.40676" lon="8.9136">
        <ele>1764.8</ele>
        <time>2015-06-30T05:47:27Z</time>
      </trkpt>
      <trkpt lat="42.40678" lon="8.9136">
        <ele>1765.4</ele>
        <time>2015-06-30T05:47:35Z</time>
      </trkpt>
      <trkpt lat="42.40681" lon="8.91356">
        <ele>1766.6</ele>
        <time>2015-06-30T05:47:43Z</time>
      </trkpt>
      <trkpt lat="42.40682" lon="8.91352">
        <ele>1767.8</ele>
        <time>2015-06-30T05:47:54Z</time>
      </trkpt>
      <trkpt lat="42.40685" lon="8.91355">
        <ele>1768.8</ele>
        <time>2015-06-30T05:48:06Z</time>
      </trkpt>
      <trkpt lat="42.40688" lon="8.9135">
        <ele>1769.8</ele>
        <time>2015-06-30T05:48:24Z</time>
      </trkpt>
      <trkpt lat="42.40692" lon="8.91345">
        <ele>1771.2</ele>
        <time>2015-06-30T05:48:34Z</time>
      </trkpt>
      <trkpt lat="42.40691" lon="8.91344">
        <ele>1771.6</ele>
        <time>2015-06-30T05:48:41Z</time>
      </trkpt>
      <trkpt lat="42.40688" lon="8.91342">
        <ele>1772.8</ele>
        <time>2015-06-30T05:48:48Z</time>
      </trkpt>
      <trkpt lat="42.40682" lon="8.91338">
        <ele>1774</ele>
        <time>2015-06-30T05:48:55Z</time>
      </trkpt>
      <trkpt lat="42.40682" lon="8.91338">
        <ele>1774</ele>
        <time>2015-06-30T05:48:56Z</time>
      </trkpt>
      <trkpt lat="42.40688" lon="8.91329">
        <ele>1775.2</ele>
        <time>2015-06-30T05:49:03Z</time>
      </trkpt>
      <trkpt lat="42.40684" lon="8.91333">
        <ele>1775.2</ele>
        <time>2015-06-30T05:49:16Z</time>
      </trkpt>
      <trkpt lat="42.40683" lon="8.91333">
        <ele>1776.2</ele>
        <time>2015-06-30T05:49:24Z</time>
      </trkpt>
      <trkpt lat="42.40681" lon="8.91329">
        <ele>1777.8</ele>
        <time>2015-06-30T05:49:38Z</time>
      </trkpt>
      <trkpt lat="42.40681" lon="8.91325">
        <ele>1778.2</ele>
        <time>2015-06-30T05:49:44Z</time>
      </trkpt>
      <trkpt lat="42.40682" lon="8.91322">
        <ele>1779.2</ele>
        <time>2015-06-30T05:49:50Z</time>
      </trkpt>
      <trkpt lat="42.40685" lon="8.91319">
        <ele>1780</ele>
        <time>2015-06-30T05:49:55Z</time>
      </trkpt>
      <trkpt lat="42.40685" lon="8.91318">
        <ele>1780.4</ele>
        <time>2015-06-30T05:50:02Z</time>
      </trkpt>
      <trkpt lat="42.40682" lon="8.91312">
        <ele>1781.8</ele>
        <time>2015-06-30T05:50:15Z</time>
      </trkpt>
      <trkpt lat="42.40677" lon="8.91295">
        <ele>1783.2</ele>
        <time>2015-06-30T05:50:34Z</time>
      </trkpt>
      <trkpt lat="42.40674" lon="8.91298">
        <ele>1783.4</ele>
        <time>2015-06-30T05:50:37Z</time>
      </trkpt>
      <trkpt lat="42.40672" lon="8.91304">
        <ele>1783.2</ele>
        <time>2015-06-30T05:50:39Z</time>
      </trkpt>
      <trkpt lat="42.40674" lon="8.91311">
        <ele>1783.2</ele>
        <time>2015-06-30T05:50:57Z</time>
      </trkpt>
      <trkpt lat="42.40674" lon="8.91308">
        <ele>1783.4</ele>
        <time>2015-06-30T05:51:03Z</time>
      </trkpt>
      <trkpt lat="42.40671" lon="8.91301">
        <ele>1784.8</ele>
        <time>2015-06-30T05:51:23Z</time>
      </trkpt>
      <trkpt lat="42.40673" lon="8.91296">
        <ele>1785.2</ele>
        <time>2015-06-30T05:51:49Z</time>
      </trkpt>
      <trkpt lat="42.40674" lon="8.91291">
        <ele>1786.2</ele>
        <time>2015-06-30T05:52:03Z</time>
      </trkpt>
      <trkpt lat="42.40663" lon="8.91289">
        <ele>1787.6</ele>
        <time>2015-06-30T05:52:27Z</time>
      </trkpt>
      <trkpt lat="42.4066" lon="8.91286">
        <ele>1788.2</ele>
        <time>2015-06-30T05:52:37Z</time>
      </trkpt>
      <trkpt lat="42.40655" lon="8.91286">
        <ele>1789.4</ele>
        <time>2015-06-30T05:52:53Z</time>
      </trkpt>
      <trkpt lat="42.40656" lon="8.91284">
        <ele>1790</ele>
        <time>2015-06-30T05:53:04Z</time>
      </trkpt>
      <trkpt lat="42.40658" lon="8.91285">
        <ele>1790</ele>
        <time>2015-06-30T05:53:07Z</time>
      </trkpt>
      <trkpt lat="42.40662" lon="8.91285">
        <ele>1790.2</ele>
        <time>2015-06-30T05:53:10Z</time>
      </trkpt>
      <trkpt lat="42.40668" lon="8.91279">
        <ele>1791.6</ele>
        <time>2015-06-30T05:53:34Z</time>
      </trkpt>
      <trkpt lat="42.40663" lon="8.91278">
        <ele>1792</ele>
        <time>2015-06-30T05:53:54Z</time>
      </trkpt>
      <trkpt lat="42.40665" lon="8.9128">
        <ele>1793</ele>
        <time>2015-06-30T05:54:08Z</time>
      </trkpt>
      <trkpt lat="42.40672" lon="8.91285">
        <ele>1793.6</ele>
        <time>2015-06-30T05:54:32Z</time>
      </trkpt>
      <trkpt lat="42.40673" lon="8.91283">
        <ele>1794.4</ele>
        <time>2015-06-30T05:54:48Z</time>
      </trkpt>
      <trkpt lat="42.40674" lon="8.91282">
        <ele>1795</ele>
        <time>2015-06-30T05:55:17Z</time>
      </trkpt>
      <trkpt lat="42.40675" lon="8.91279">
        <ele>1796</ele>
        <time>2015-06-30T05:55:30Z</time>
      </trkpt>
      <trkpt lat="42.40675" lon="8.91272">
        <ele>1796.6</ele>
        <time>2015-06-30T05:55:35Z</time>
      </trkpt>
      <trkpt lat="42.40675" lon="8.91273">
        <ele>1797</ele>
        <time>2015-06-30T05:55:42Z</time>
      </trkpt>
      <trkpt lat="42.40671" lon="8.91276">
        <ele>1797.4</ele>
        <time>2015-06-30T05:56:07Z</time>
      </trkpt>
      <trkpt lat="42.40672" lon="8.91276">
        <ele>1797.6</ele>
        <time>2015-06-30T05:56:15Z</time>
      </trkpt>
      <trkpt lat="42.40673" lon="8.91274">
        <ele>1799</ele>
        <time>2015-06-30T05:56:26Z</time>
      </trkpt>
      <trkpt lat="42.40672" lon="8.91274">
        <ele>1799.8</ele>
        <time>2015-06-30T05:56:37Z</time>
      </trkpt>
      <trkpt lat="42.40674" lon="8.91271">
        <ele>1801</ele>
        <time>2015-06-30T05:56:52Z</time>
      </trkpt>
      <trkpt lat="42.40673" lon="8.9127">
        <ele>1801.8</ele>
        <time>2015-06-30T05:57:02Z</time>
      </trkpt>
      <trkpt lat="42.40669" lon="8.91268">
        <ele>1802.6</ele>
        <time>2015-06-30T05:57:09Z</time>
      </trkpt>
      <trkpt lat="42.4066" lon="8.91261">
        <ele>1803</ele>
        <time>2015-06-30T05:57:40Z</time>
      </trkpt>
      <trkpt lat="42.40659" lon="8.91262">
        <ele>1802.8</ele>
        <time>2015-06-30T05:57:48Z</time>
      </trkpt>
      <trkpt lat="42.4066" lon="8.91261">
        <ele>1803.6</ele>
        <time>2015-06-30T05:57:55Z</time>
      </trkpt>
      <trkpt lat="42.40661" lon="8.91256">
        <ele>1804.4</ele>
        <time>2015-06-30T05:58:03Z</time>
      </trkpt>
      <trkpt lat="42.40661" lon="8.91259">
        <ele>1805.8</ele>
        <time>2015-06-30T05:58:13Z</time>
      </trkpt>
      <trkpt lat="42.40662" lon="8.91256">
        <ele>1806.8</ele>
        <time>2015-06-30T05:58:25Z</time>
      </trkpt>
      <trkpt lat="42.40665" lon="8.91255">
        <ele>1808.2</ele>
        <time>2015-06-30T05:58:34Z</time>
      </trkpt>
      <trkpt lat="42.40666" lon="8.91252">
        <ele>1808.8</ele>
        <time>2015-06-30T05:58:41Z</time>
      </trkpt>
      <trkpt lat="42.40665" lon="8.91248">
        <ele>1809.6</ele>
        <time>2015-06-30T05:58:48Z</time>
      </trkpt>
      <trkpt lat="42.40664" lon="8.91245">
        <ele>1810.6</ele>
        <time>2015-06-30T05:58:54Z</time>
      </trkpt>
      <trkpt lat="42.40664" lon="8.91244">
        <ele>1812</ele>
        <time>2015-06-30T05:59:04Z</time>
      </trkpt>
      <trkpt lat="42.40663" lon="8.91239">
        <ele>1813</ele>
        <time>2015-06-30T05:59:16Z</time>
      </trkpt>
      <trkpt lat="42.40662" lon="8.91234">
        <ele>1814.2</ele>
        <time>2015-06-30T05:59:33Z</time>
      </trkpt>
      <trkpt lat="42.40662" lon="8.91237">
        <ele>1815</ele>
        <time>2015-06-30T05:59:41Z</time>
      </trkpt>
      <trkpt lat="42.40662" lon="8.91235">
        <ele>1816</ele>
        <time>2015-06-30T05:59:51Z</time>
      </trkpt>
      <trkpt lat="42.40663" lon="8.91233">
        <ele>1816.8</ele>
        <time>2015-06-30T05:59:58Z</time>
      </trkpt>
      <trkpt lat="42.40664" lon="8.91232">
        <ele>1817.8</ele>
        <time>2015-06-30T06:00:07Z</time>
      </trkpt>
      <trkpt lat="42.40665" lon="8.91229">
        <ele>1819.2</ele>
        <time>2015-06-30T06:00:22Z</time>
      </trkpt>
      <trkpt lat="42.40666" lon="8.91228">
        <ele>1819.8</ele>
        <time>2015-06-30T06:00:29Z</time>
      </trkpt>
      <trkpt lat="42.40666" lon="8.91227">
        <ele>1820.8</ele>
        <time>2015-06-30T06:00:36Z</time>
      </trkpt>
      <trkpt lat="42.40664" lon="8.91222">
        <ele>1822.2</ele>
        <time>2015-06-30T06:00:50Z</time>
      </trkpt>
      <trkpt lat="42.40663" lon="8.9122">
        <ele>1823.2</ele>
        <time>2015-06-30T06:00:59Z</time>
      </trkpt>
      <trkpt lat="42.40663" lon="8.91218">
        <ele>1824</ele>
        <time>2015-06-30T06:01:08Z</time>
      </trkpt>
      <trkpt lat="42.40664" lon="8.91214">
        <ele>1825</ele>
        <time>2015-06-30T06:01:16Z</time>
      </trkpt>
      <trkpt lat="42.40666" lon="8.91215">
        <ele>1826.2</ele>
        <time>2015-06-30T06:01:25Z</time>
      </trkpt>
      <trkpt lat="42.40669" lon="8.91215">
        <ele>1827</ele>
        <time>2015-06-30T06:01:32Z</time>
      </trkpt>
      <trkpt lat="42.40669" lon="8.91212">
        <ele>1828.2</ele>
        <time>2015-06-30T06:01:40Z</time>
      </trkpt>
      <trkpt lat="42.40671" lon="8.91212">
        <ele>1829.4</ele>
        <time>2015-06-30T06:01:49Z</time>
      </trkpt>
      <trkpt lat="42.40672" lon="8.9121">
        <ele>1830.4</ele>
        <time>2015-06-30T06:01:56Z</time>
      </trkpt>
      <trkpt lat="42.40671" lon="8.91205">
        <ele>1831.2</ele>
        <time>2015-06-30T06:02:04Z</time>
      </trkpt>
      <trkpt lat="42.40669" lon="8.91202">
        <ele>1832.4</ele>
        <time>2015-06-30T06:02:13Z</time>
      </trkpt>
      <trkpt lat="42.4067" lon="8.912">
        <ele>1833.2</ele>
        <time>2015-06-30T06:02:21Z</time>
      </trkpt>
      <trkpt lat="42.40671" lon="8.91201">
        <ele>1834.8</ele>
        <time>2015-06-30T06:02:32Z</time>
      </trkpt>
      <trkpt lat="42.40673" lon="8.91199">
        <ele>1835.4</ele>
        <time>2015-06-30T06:02:40Z</time>
      </trkpt>
      <trkpt lat="42.40676" lon="8.91195">
        <ele>1836.4</ele>
        <time>2015-06-30T06:02:50Z</time>
      </trkpt>
      <trkpt lat="42.40677" lon="8.91193">
        <ele>1837.2</ele>
        <time>2015-06-30T06:02:55Z</time>
      </trkpt>
      <trkpt lat="42.40679" lon="8.91187">
        <ele>1838.6</ele>
        <time>2015-06-30T06:03:05Z</time>
      </trkpt>
      <trkpt lat="42.40679" lon="8.91187">
        <ele>1839.6</ele>
        <time>2015-06-30T06:03:13Z</time>
      </trkpt>
      <trkpt lat="42.40679" lon="8.91184">
        <ele>1840.8</ele>
        <time>2015-06-30T06:03:23Z</time>
      </trkpt>
      <trkpt lat="42.4068" lon="8.91185">
        <ele>1840.8</ele>
        <time>2015-06-30T06:03:25Z</time>
      </trkpt>
      <trkpt lat="42.4068" lon="8.91185">
        <ele>1841.6</ele>
        <time>2015-06-30T06:03:36Z</time>
      </trkpt>
      <trkpt lat="42.40679" lon="8.91184">
        <ele>1842.4</ele>
        <time>2015-06-30T06:03:43Z</time>
      </trkpt>
      <trkpt lat="42.40677" lon="8.91185">
        <ele>1844</ele>
        <time>2015-06-30T06:03:52Z</time>
      </trkpt>
      <trkpt lat="42.40677" lon="8.91185">
        <ele>1844.6</ele>
        <time>2015-06-30T06:04:04Z</time>
      </trkpt>
      <trkpt lat="42.4068" lon="8.9118">
        <ele>1846</ele>
        <time>2015-06-30T06:04:17Z</time>
      </trkpt>
      <trkpt lat="42.40682" lon="8.91179">
        <ele>1846.2</ele>
        <time>2015-06-30T06:04:19Z</time>
      </trkpt>
      <trkpt lat="42.40684" lon="8.91176">
        <ele>1846.2</ele>
        <time>2015-06-30T06:04:22Z</time>
      </trkpt>
      <trkpt lat="42.40685" lon="8.91175">
        <ele>1846.2</ele>
        <time>2015-06-30T06:04:24Z</time>
      </trkpt>
      <trkpt lat="42.40686" lon="8.91174">
        <ele>1846.4</ele>
        <time>2015-06-30T06:04:25Z</time>
      </trkpt>
      <trkpt lat="42.40686" lon="8.91173">
        <ele>1846.8</ele>
        <time>2015-06-30T06:04:27Z</time>
      </trkpt>
      <trkpt lat="42.40689" lon="8.9117">
        <ele>1847.6</ele>
        <time>2015-06-30T06:04:32Z</time>
      </trkpt>
      <trkpt lat="42.40689" lon="8.9117">
        <ele>1847.6</ele>
        <time>2015-06-30T06:04:33Z</time>
      </trkpt>
      <trkpt lat="42.40688" lon="8.91165">
        <ele>1848.2</ele>
        <time>2015-06-30T06:04:38Z</time>
      </trkpt>
      <trkpt lat="42.40679" lon="8.91164">
        <ele>1850</ele>
        <time>2015-06-30T06:04:51Z</time>
      </trkpt>
      <trkpt lat="42.40673" lon="8.91173">
        <ele>1850.2</ele>
        <time>2015-06-30T06:04:58Z</time>
      </trkpt>
      <trkpt lat="42.40672" lon="8.91175">
        <ele>1851</ele>
        <time>2015-06-30T06:05:10Z</time>
      </trkpt>
      <trkpt lat="42.40672" lon="8.91172">
        <ele>1852</ele>
        <time>2015-06-30T06:05:19Z</time>
      </trkpt>
      <trkpt lat="42.40672" lon="8.91169">
        <ele>1852.4</ele>
        <time>2015-06-30T06:05:25Z</time>
      </trkpt>
      <trkpt lat="42.40672" lon="8.91167">
        <ele>1854</ele>
        <time>2015-06-30T06:05:33Z</time>
      </trkpt>
      <trkpt lat="42.40672" lon="8.91165">
        <ele>1854.8</ele>
        <time>2015-06-30T06:05:40Z</time>
      </trkpt>
      <trkpt lat="42.40673" lon="8.91165">
        <ele>1856</ele>
        <time>2015-06-30T06:05:48Z</time>
      </trkpt>
      <trkpt lat="42.40676" lon="8.91165">
        <ele>1857</ele>
        <time>2015-06-30T06:05:55Z</time>
      </trkpt>
      <trkpt lat="42.40677" lon="8.91161">
        <ele>1857.8</ele>
        <time>2015-06-30T06:06:03Z</time>
      </trkpt>
      <trkpt lat="42.4068" lon="8.91157">
        <ele>1859</ele>
        <time>2015-06-30T06:06:14Z</time>
      </trkpt>
      <trkpt lat="42.4068" lon="8.91156">
        <ele>1860.2</ele>
        <time>2015-06-30T06:06:21Z</time>
      </trkpt>
      <trkpt lat="42.40681" lon="8.91157">
        <ele>1861</ele>
        <time>2015-06-30T06:06:30Z</time>
      </trkpt>
      <trkpt lat="42.40683" lon="8.91157">
        <ele>1862</ele>
        <time>2015-06-30T06:06:41Z</time>
      </trkpt>
      <trkpt lat="42.40686" lon="8.91157">
        <ele>1863.2</ele>
        <time>2015-06-30T06:06:49Z</time>
      </trkpt>
      <trkpt lat="42.40687" lon="8.91158">
        <ele>1864</ele>
        <time>2015-06-30T06:06:56Z</time>
      </trkpt>
      <trkpt lat="42.40689" lon="8.9116">
        <ele>1865</ele>
        <time>2015-06-30T06:07:02Z</time>
      </trkpt>
      <trkpt lat="42.40694" lon="8.9116">
        <ele>1866</ele>
        <time>2015-06-30T06:07:11Z</time>
      </trkpt>
      <trkpt lat="42.40694" lon="8.91158">
        <ele>1867.2</ele>
        <time>2015-06-30T06:07:18Z</time>
      </trkpt>
      <trkpt lat="42.40694" lon="8.91154">
        <ele>1868</ele>
        <time>2015-06-30T06:07:25Z</time>
      </trkpt>
      <trkpt lat="42.40692" lon="8.91152">
        <ele>1869</ele>
        <time>2015-06-30T06:07:33Z</time>
      </trkpt>
      <trkpt lat="42.40695" lon="8.9115">
        <ele>1870.4</ele>
        <time>2015-06-30T06:07:41Z</time>
      </trkpt>
      <trkpt lat="42.40698" lon="8.91149">
        <ele>1871</ele>
        <time>2015-06-30T06:07:48Z</time>
      </trkpt>
      <trkpt lat="42.40699" lon="8.91147">
        <ele>1872</ele>
        <time>2015-06-30T06:07:55Z</time>
      </trkpt>
      <trkpt lat="42.40703" lon="8.91145">
        <ele>1873.2</ele>
        <time>2015-06-30T06:08:03Z</time>
      </trkpt>
      <trkpt lat="42.40703" lon="8.91144">
        <ele>1873.8</ele>
        <time>2015-06-30T06:08:10Z</time>
      </trkpt>
      <trkpt lat="42.40705" lon="8.91144">
        <ele>1874.8</ele>
        <time>2015-06-30T06:08:16Z</time>
      </trkpt>
      <trkpt lat="42.40705" lon="8.91144">
        <ele>1876</ele>
        <time>2015-06-30T06:08:24Z</time>
      </trkpt>
      <trkpt lat="42.40707" lon="8.91143">
        <ele>1876.6</ele>
        <time>2015-06-30T06:08:32Z</time>
      </trkpt>
      <trkpt lat="42.40707" lon="8.91141">
        <ele>1878</ele>
        <time>2015-06-30T06:08:41Z</time>
      </trkpt>
      <trkpt lat="42.40707" lon="8.9114">
        <ele>1879</ele>
        <time>2015-06-30T06:08:53Z</time>
      </trkpt>
      <trkpt lat="42.40709" lon="8.91137">
        <ele>1879.8</ele>
        <time>2015-06-30T06:09:03Z</time>
      </trkpt>
      <trkpt lat="42.40706" lon="8.91138">
        <ele>1880.2</ele>
        <time>2015-06-30T06:09:43Z</time>
      </trkpt>
      <trkpt lat="42.40707" lon="8.91137">
        <ele>1880.8</ele>
        <time>2015-06-30T06:09:50Z</time>
      </trkpt>
      <trkpt lat="42.40699" lon="8.91134">
        <ele>1881.8</ele>
        <time>2015-06-30T06:10:32Z</time>
      </trkpt>
      <trkpt lat="42.40699" lon="8.91131">
        <ele>1882</ele>
        <time>2015-06-30T06:10:37Z</time>
      </trkpt>
      <trkpt lat="42.40698" lon="8.91128">
        <ele>1883.2</ele>
        <time>2015-06-30T06:10:44Z</time>
      </trkpt>
      <trkpt lat="42.40699" lon="8.91126">
        <ele>1884</ele>
        <time>2015-06-30T06:10:51Z</time>
      </trkpt>
      <trkpt lat="42.40698" lon="8.91121">
        <ele>1885.2</ele>
        <time>2015-06-30T06:10:59Z</time>
      </trkpt>
      <trkpt lat="42.40698" lon="8.91118">
        <ele>1886.2</ele>
        <time>2015-06-30T06:11:07Z</time>
      </trkpt>
      <trkpt lat="42.40698" lon="8.91115">
        <ele>1886.8</ele>
        <time>2015-06-30T06:11:13Z</time>
      </trkpt>
      <trkpt lat="42.40697" lon="8.91115">
        <ele>1888.2</ele>
        <time>2015-06-30T06:11:23Z</time>
      </trkpt>
      <trkpt lat="42.40699" lon="8.91115">
        <ele>1889</ele>
        <time>2015-06-30T06:11:30Z</time>
      </trkpt>
      <trkpt lat="42.407" lon="8.91111">
        <ele>1890</ele>
        <time>2015-06-30T06:11:37Z</time>
      </trkpt>
      <trkpt lat="42.407" lon="8.91108">
        <ele>1891.2</ele>
        <time>2015-06-30T06:11:46Z</time>
      </trkpt>
      <trkpt lat="42.40699" lon="8.91106">
        <ele>1892.2</ele>
        <time>2015-06-30T06:11:55Z</time>
      </trkpt>
      <trkpt lat="42.40698" lon="8.91104">
        <ele>1892.8</ele>
        <time>2015-06-30T06:12:02Z</time>
      </trkpt>
      <trkpt lat="42.40692" lon="8.91095">
        <ele>1894.2</ele>
        <time>2015-06-30T06:12:21Z</time>
      </trkpt>
      <trkpt lat="42.40692" lon="8.91094">
        <ele>1894.8</ele>
        <time>2015-06-30T06:12:28Z</time>
      </trkpt>
      <trkpt lat="42.40692" lon="8.9109">
        <ele>1895.6</ele>
        <time>2015-06-30T06:12:35Z</time>
      </trkpt>
      <trkpt lat="42.4069" lon="8.91086">
        <ele>1896.6</ele>
        <time>2015-06-30T06:12:42Z</time>
      </trkpt>
      <trkpt lat="42.40691" lon="8.91085">
        <ele>1897.8</ele>
        <time>2015-06-30T06:12:52Z</time>
      </trkpt>
      <trkpt lat="42.40692" lon="8.91084">
        <ele>1898.6</ele>
        <time>2015-06-30T06:12:58Z</time>
      </trkpt>
      <trkpt lat="42.40693" lon="8.91083">
        <ele>1899.8</ele>
        <time>2015-06-30T06:13:06Z</time>
      </trkpt>
      <trkpt lat="42.40693" lon="8.91085">
        <ele>1901</ele>
        <time>2015-06-30T06:13:18Z</time>
      </trkpt>
      <trkpt lat="42.40694" lon="8.91085">
        <ele>1901.6</ele>
        <time>2015-06-30T06:13:28Z</time>
      </trkpt>
      <trkpt lat="42.40696" lon="8.91085">
        <ele>1903</ele>
        <time>2015-06-30T06:13:38Z</time>
      </trkpt>
      <trkpt lat="42.40697" lon="8.91085">
        <ele>1903.4</ele>
        <time>2015-06-30T06:13:45Z</time>
      </trkpt>
      <trkpt lat="42.40697" lon="8.91085">
        <ele>1904.6</ele>
        <time>2015-06-30T06:13:54Z</time>
      </trkpt>
      <trkpt lat="42.40698" lon="8.91084">
        <ele>1906</ele>
        <time>2015-06-30T06:14:01Z</time>
      </trkpt>
      <trkpt lat="42.40701" lon="8.91082">
        <ele>1907</ele>
        <time>2015-06-30T06:14:12Z</time>
      </trkpt>
      <trkpt lat="42.40703" lon="8.91081">
        <ele>1907.6</ele>
        <time>2015-06-30T06:14:18Z</time>
      </trkpt>
      <trkpt lat="42.40705" lon="8.91082">
        <ele>1908.8</ele>
        <time>2015-06-30T06:14:26Z</time>
      </trkpt>
      <trkpt lat="42.40708" lon="8.91083">
        <ele>1909.8</ele>
        <time>2015-06-30T06:14:33Z</time>
      </trkpt>
      <trkpt lat="42.4071" lon="8.91081">
        <ele>1911</ele>
        <time>2015-06-30T06:14:43Z</time>
      </trkpt>
      <trkpt lat="42.40711" lon="8.91083">
        <ele>1911.8</ele>
        <time>2015-06-30T06:14:53Z</time>
      </trkpt>
      <trkpt lat="42.40713" lon="8.91083">
        <ele>1912.4</ele>
        <time>2015-06-30T06:15:00Z</time>
      </trkpt>
      <trkpt lat="42.40714" lon="8.91081">
        <ele>1913.8</ele>
        <time>2015-06-30T06:15:09Z</time>
      </trkpt>
      <trkpt lat="42.40717" lon="8.91082">
        <ele>1914.6</ele>
        <time>2015-06-30T06:15:17Z</time>
      </trkpt>
      <trkpt lat="42.40718" lon="8.91082">
        <ele>1916</ele>
        <time>2015-06-30T06:15:26Z</time>
      </trkpt>
      <trkpt lat="42.4072" lon="8.91082">
        <ele>1916.4</ele>
        <time>2015-06-30T06:15:33Z</time>
      </trkpt>
      <trkpt lat="42.40721" lon="8.91082">
        <ele>1917.8</ele>
        <time>2015-06-30T06:15:42Z</time>
      </trkpt>
      <trkpt lat="42.40723" lon="8.9108">
        <ele>1918.4</ele>
        <time>2015-06-30T06:15:49Z</time>
      </trkpt>
      <trkpt lat="42.40724" lon="8.9108">
        <ele>1919.6</ele>
        <time>2015-06-30T06:15:56Z</time>
      </trkpt>
      <trkpt lat="42.40727" lon="8.91081">
        <ele>1920.4</ele>
        <time>2015-06-30T06:16:03Z</time>
      </trkpt>
      <trkpt lat="42.4073" lon="8.9108">
        <ele>1922.2</ele>
        <time>2015-06-30T06:16:20Z</time>
      </trkpt>
      <trkpt lat="42.40733" lon="8.91077">
        <ele>1923</ele>
        <time>2015-06-30T06:16:30Z</time>
      </trkpt>
      <trkpt lat="42.40736" lon="8.91079">
        <ele>1923.6</ele>
        <time>2015-06-30T06:16:37Z</time>
      </trkpt>
      <trkpt lat="42.40737" lon="8.91078">
        <ele>1924.6</ele>
        <time>2015-06-30T06:16:43Z</time>
      </trkpt>
      <trkpt lat="42.4074" lon="8.91081">
        <ele>1926</ele>
        <time>2015-06-30T06:16:55Z</time>
      </trkpt>
      <trkpt lat="42.40742" lon="8.91079">
        <ele>1926.8</ele>
        <time>2015-06-30T06:17:03Z</time>
      </trkpt>
      <trkpt lat="42.40743" lon="8.91077">
        <ele>1928.2</ele>
        <time>2015-06-30T06:17:17Z</time>
      </trkpt>
      <trkpt lat="42.40743" lon="8.91073">
        <ele>1928.8</ele>
        <time>2015-06-30T06:17:24Z</time>
      </trkpt>
      <trkpt lat="42.40745" lon="8.91072">
        <ele>1930</ele>
        <time>2015-06-30T06:17:36Z</time>
      </trkpt>
      <trkpt lat="42.40746" lon="8.91071">
        <ele>1931</ele>
        <time>2015-06-30T06:17:44Z</time>
      </trkpt>
      <trkpt lat="42.40747" lon="8.91071">
        <ele>1932</ele>
        <time>2015-06-30T06:17:50Z</time>
      </trkpt>
      <trkpt lat="42.40748" lon="8.9107">
        <ele>1933</ele>
        <time>2015-06-30T06:17:56Z</time>
      </trkpt>
      <trkpt lat="42.40749" lon="8.91069">
        <ele>1934</ele>
        <time>2015-06-30T06:18:04Z</time>
      </trkpt>
      <trkpt lat="42.40751" lon="8.91067">
        <ele>1935.2</ele>
        <time>2015-06-30T06:18:13Z</time>
      </trkpt>
      <trkpt lat="42.40754" lon="8.91068">
        <ele>1936.2</ele>
        <time>2015-06-30T06:18:21Z</time>
      </trkpt>
      <trkpt lat="42.40758" lon="8.91065">
        <ele>1937.2</ele>
        <time>2015-06-30T06:18:29Z</time>
      </trkpt>
      <trkpt lat="42.40763" lon="8.91062">
        <ele>1938.2</ele>
        <time>2015-06-30T06:18:47Z</time>
      </trkpt>
      <trkpt lat="42.40764" lon="8.91062">
        <ele>1939.2</ele>
        <time>2015-06-30T06:18:54Z</time>
      </trkpt>
      <trkpt lat="42.40765" lon="8.9106">
        <ele>1940</ele>
        <time>2015-06-30T06:19:00Z</time>
      </trkpt>
      <trkpt lat="42.40766" lon="8.91058">
        <ele>1941.4</ele>
        <time>2015-06-30T06:19:07Z</time>
      </trkpt>
      <trkpt lat="42.40766" lon="8.91054">
        <ele>1942</ele>
        <time>2015-06-30T06:19:11Z</time>
      </trkpt>
      <trkpt lat="42.40766" lon="8.91052">
        <ele>1942.4</ele>
        <time>2015-06-30T06:19:14Z</time>
      </trkpt>
      <trkpt lat="42.40767" lon="8.91051">
        <ele>1943.2</ele>
        <time>2015-06-30T06:19:19Z</time>
      </trkpt>
      <trkpt lat="42.40768" lon="8.9105">
        <ele>1944</ele>
        <time>2015-06-30T06:19:24Z</time>
      </trkpt>
      <trkpt lat="42.40769" lon="8.91047">
        <ele>1945.4</ele>
        <time>2015-06-30T06:19:31Z</time>
      </trkpt>
      <trkpt lat="42.4077" lon="8.91049">
        <ele>1946.2</ele>
        <time>2015-06-30T06:19:37Z</time>
      </trkpt>
      <trkpt lat="42.40772" lon="8.9105">
        <ele>1947.8</ele>
        <time>2015-06-30T06:19:53Z</time>
      </trkpt>
      <trkpt lat="42.4077" lon="8.91047">
        <ele>1947.8</ele>
        <time>2015-06-30T06:21:13Z</time>
      </trkpt>
      <trkpt lat="42.40772" lon="8.91047">
        <ele>1948</ele>
        <time>2015-06-30T06:22:06Z</time>
      </trkpt>
      <trkpt lat="42.40774" lon="8.91046">
        <ele>1948.4</ele>
        <time>2015-06-30T06:22:51Z</time>
      </trkpt>
      <trkpt lat="42.40769" lon="8.91046">
        <ele>1948.4</ele>
        <time>2015-06-30T06:23:50Z</time>
      </trkpt>
      <trkpt lat="42.40769" lon="8.91046">
        <ele>1948.2</ele>
        <time>2015-06-30T06:24:58Z</time>
      </trkpt>
      <trkpt lat="42.40767" lon="8.91047">
        <ele>1948.4</ele>
        <time>2015-06-30T06:26:06Z</time>
      </trkpt>
      <trkpt lat="42.40766" lon="8.91048">
        <ele>1948.6</ele>
        <time>2015-06-30T06:26:35Z</time>
      </trkpt>
      <trkpt lat="42.40766" lon="8.91047">
        <ele>1948.4</ele>
        <time>2015-06-30T06:27:50Z</time>
      </trkpt>
      <trkpt lat="42.40769" lon="8.91043">
        <ele>1948.2</ele>
        <time>2015-06-30T06:28:00Z</time>
      </trkpt>
      <trkpt lat="42.40773" lon="8.91039">
        <ele>1947</ele>
        <time>2015-06-30T06:28:09Z</time>
      </trkpt>
      <trkpt lat="42.40776" lon="8.91036">
        <ele>1945.6</ele>
        <time>2015-06-30T06:28:19Z</time>
      </trkpt>
      <trkpt lat="42.40778" lon="8.91033">
        <ele>1945</ele>
        <time>2015-06-30T06:28:26Z</time>
      </trkpt>
      <trkpt lat="42.40776" lon="8.91032">
        <ele>1944.4</ele>
        <time>2015-06-30T06:28:29Z</time>
      </trkpt>
      <trkpt lat="42.40777" lon="8.91031">
        <ele>1943.6</ele>
        <time>2015-06-30T06:28:33Z</time>
      </trkpt>
      <trkpt lat="42.4078" lon="8.91028">
        <ele>1941.6</ele>
        <time>2015-06-30T06:28:39Z</time>
      </trkpt>
      <trkpt lat="42.40782" lon="8.91026">
        <ele>1940.2</ele>
        <time>2015-06-30T06:28:45Z</time>
      </trkpt>
      <trkpt lat="42.40782" lon="8.91022">
        <ele>1939.6</ele>
        <time>2015-06-30T06:28:49Z</time>
      </trkpt>
      <trkpt lat="42.40784" lon="8.9102">
        <ele>1938.4</ele>
        <time>2015-06-30T06:28:53Z</time>
      </trkpt>
      <trkpt lat="42.40786" lon="8.91017">
        <ele>1936.8</ele>
        <time>2015-06-30T06:28:58Z</time>
      </trkpt>
      <trkpt lat="42.40787" lon="8.91012">
        <ele>1935.4</ele>
        <time>2015-06-30T06:29:03Z</time>
      </trkpt>
      <trkpt lat="42.40791" lon="8.9101">
        <ele>1934.4</ele>
        <time>2015-06-30T06:29:07Z</time>
      </trkpt>
      <trkpt lat="42.40794" lon="8.91007">
        <ele>1932.8</ele>
        <time>2015-06-30T06:29:12Z</time>
      </trkpt>
      <trkpt lat="42.40799" lon="8.91005">
        <ele>1931.2</ele>
        <time>2015-06-30T06:29:18Z</time>
      </trkpt>
      <trkpt lat="42.40805" lon="8.90999">
        <ele>1929.8</ele>
        <time>2015-06-30T06:29:27Z</time>
      </trkpt>
      <trkpt lat="42.40809" lon="8.90994">
        <ele>1928.8</ele>
        <time>2015-06-30T06:29:34Z</time>
      </trkpt>
      <trkpt lat="42.40812" lon="8.9099">
        <ele>1927.6</ele>
        <time>2015-06-30T06:29:39Z</time>
      </trkpt>
      <trkpt lat="42.40814" lon="8.90988">
        <ele>1925.8</ele>
        <time>2015-06-30T06:29:50Z</time>
      </trkpt>
      <trkpt lat="42.40815" lon="8.9098">
        <ele>1924.2</ele>
        <time>2015-06-30T06:30:02Z</time>
      </trkpt>
      <trkpt lat="42.40818" lon="8.90976">
        <ele>1923.4</ele>
        <time>2015-06-30T06:30:09Z</time>
      </trkpt>
      <trkpt lat="42.40818" lon="8.90973">
        <ele>1922</ele>
        <time>2015-06-30T06:30:17Z</time>
      </trkpt>
      <trkpt lat="42.40819" lon="8.9097">
        <ele>1920.6</ele>
        <time>2015-06-30T06:30:28Z</time>
      </trkpt>
      <trkpt lat="42.40821" lon="8.9097">
        <ele>1920.2</ele>
        <time>2015-06-30T06:30:32Z</time>
      </trkpt>
      <trkpt lat="42.40823" lon="8.90967">
        <ele>1918</ele>
        <time>2015-06-30T06:30:45Z</time>
      </trkpt>
      <trkpt lat="42.40822" lon="8.90965">
        <ele>1917</ele>
        <time>2015-06-30T06:30:53Z</time>
      </trkpt>
      <trkpt lat="42.40821" lon="8.9096">
        <ele>1915.8</ele>
        <time>2015-06-30T06:31:01Z</time>
      </trkpt>
      <trkpt lat="42.40821" lon="8.90957">
        <ele>1914.2</ele>
        <time>2015-06-30T06:31:10Z</time>
      </trkpt>
      <trkpt lat="42.40823" lon="8.90955">
        <ele>1913.4</ele>
        <time>2015-06-30T06:31:15Z</time>
      </trkpt>
      <trkpt lat="42.40826" lon="8.90949">
        <ele>1912</ele>
        <time>2015-06-30T06:31:23Z</time>
      </trkpt>
      <trkpt lat="42.40828" lon="8.90946">
        <ele>1911.2</ele>
        <time>2015-06-30T06:31:28Z</time>
      </trkpt>
      <trkpt lat="42.40835" lon="8.90943">
        <ele>1909</ele>
        <time>2015-06-30T06:31:41Z</time>
      </trkpt>
      <trkpt lat="42.40838" lon="8.90942">
        <ele>1908.6</ele>
        <time>2015-06-30T06:31:47Z</time>
      </trkpt>
      <trkpt lat="42.4084" lon="8.90937">
        <ele>1907.2</ele>
        <time>2015-06-30T06:32:04Z</time>
      </trkpt>
      <trkpt lat="42.40843" lon="8.90934">
        <ele>1906.8</ele>
        <time>2015-06-30T06:32:09Z</time>
      </trkpt>
      <trkpt lat="42.40846" lon="8.9093">
        <ele>1905</ele>
        <time>2015-06-30T06:32:17Z</time>
      </trkpt>
      <trkpt lat="42.40848" lon="8.90926">
        <ele>1903.2</ele>
        <time>2015-06-30T06:32:30Z</time>
      </trkpt>
      <trkpt lat="42.40852" lon="8.9092">
        <ele>1902.4</ele>
        <time>2015-06-30T06:32:37Z</time>
      </trkpt>
      <trkpt lat="42.40853" lon="8.90915">
        <ele>1900.6</ele>
        <time>2015-06-30T06:32:45Z</time>
      </trkpt>
      <trkpt lat="42.40857" lon="8.9091">
        <ele>1899.8</ele>
        <time>2015-06-30T06:32:51Z</time>
      </trkpt>
      <trkpt lat="42.4086" lon="8.90904">
        <ele>1898.6</ele>
        <time>2015-06-30T06:32:57Z</time>
      </trkpt>
      <trkpt lat="42.40866" lon="8.9089">
        <ele>1895.8</ele>
        <time>2015-06-30T06:33:49Z</time>
      </trkpt>
      <trkpt lat="42.40869" lon="8.90884">
        <ele>1894.8</ele>
        <time>2015-06-30T06:33:56Z</time>
      </trkpt>
      <trkpt lat="42.40883" lon="8.90875">
        <ele>1892.8</ele>
        <time>2015-06-30T06:34:16Z</time>
      </trkpt>
      <trkpt lat="42.40886" lon="8.90872">
        <ele>1892.8</ele>
        <time>2015-06-30T06:34:21Z</time>
      </trkpt>
      <trkpt lat="42.40894" lon="8.90864">
        <ele>1891.8</ele>
        <time>2015-06-30T06:34:31Z</time>
      </trkpt>
      <trkpt lat="42.40899" lon="8.90857">
        <ele>1890.4</ele>
        <time>2015-06-30T06:34:40Z</time>
      </trkpt>
      <trkpt lat="42.40903" lon="8.90854">
        <ele>1888.8</ele>
        <time>2015-06-30T06:34:52Z</time>
      </trkpt>
      <trkpt lat="42.40904" lon="8.90853">
        <ele>1887.4</ele>
        <time>2015-06-30T06:35:05Z</time>
      </trkpt>
      <trkpt lat="42.40906" lon="8.9085">
        <ele>1885.8</ele>
        <time>2015-06-30T06:35:18Z</time>
      </trkpt>
      <trkpt lat="42.40907" lon="8.90846">
        <ele>1883.8</ele>
        <time>2015-06-30T06:35:51Z</time>
      </trkpt>
      <trkpt lat="42.40909" lon="8.90838">
        <ele>1881.8</ele>
        <time>2015-06-30T06:36:42Z</time>
      </trkpt>
      <trkpt lat="42.40917" lon="8.9084">
        <ele>1881</ele>
        <time>2015-06-30T06:37:00Z</time>
      </trkpt>
      <trkpt lat="42.40918" lon="8.9084">
        <ele>1882</ele>
        <time>2015-06-30T06:37:06Z</time>
      </trkpt>
      <trkpt lat="42.40915" lon="8.90847">
        <ele>1883</ele>
        <time>2015-06-30T06:37:30Z</time>
      </trkpt>
      <trkpt lat="42.40917" lon="8.90849">
        <ele>1883.6</ele>
        <time>2015-06-30T06:37:39Z</time>
      </trkpt>
      <trkpt lat="42.40917" lon="8.9085">
        <ele>1884.4</ele>
        <time>2015-06-30T06:37:49Z</time>
      </trkpt>
      <trkpt lat="42.40919" lon="8.90851">
        <ele>1885.4</ele>
        <time>2015-06-30T06:37:58Z</time>
      </trkpt>
      <trkpt lat="42.40919" lon="8.90852">
        <ele>1885.4</ele>
        <time>2015-06-30T06:38:00Z</time>
      </trkpt>
      <trkpt lat="42.4092" lon="8.90853">
        <ele>1886</ele>
        <time>2015-06-30T06:38:06Z</time>
      </trkpt>
      <trkpt lat="42.40922" lon="8.90855">
        <ele>1887.4</ele>
        <time>2015-06-30T06:38:13Z</time>
      </trkpt>
      <trkpt lat="42.40922" lon="8.90855">
        <ele>1888.6</ele>
        <time>2015-06-30T06:38:24Z</time>
      </trkpt>
      <trkpt lat="42.40924" lon="8.90856">
        <ele>1889.6</ele>
        <time>2015-06-30T06:38:36Z</time>
      </trkpt>
      <trkpt lat="42.40925" lon="8.90856">
        <ele>1890.4</ele>
        <time>2015-06-30T06:38:46Z</time>
      </trkpt>
      <trkpt lat="42.40925" lon="8.90856">
        <ele>1891</ele>
        <time>2015-06-30T06:38:59Z</time>
      </trkpt>
      <trkpt lat="42.40927" lon="8.90855">
        <ele>1892</ele>
        <time>2015-06-30T06:39:11Z</time>
      </trkpt>
      <trkpt lat="42.40929" lon="8.90857">
        <ele>1893.2</ele>
        <time>2015-06-30T06:39:26Z</time>
      </trkpt>
      <trkpt lat="42.4093" lon="8.90858">
        <ele>1893.6</ele>
        <time>2015-06-30T06:39:33Z</time>
      </trkpt>
      <trkpt lat="42.40934" lon="8.9085">
        <ele>1893.2</ele>
        <time>2015-06-30T06:40:13Z</time>
      </trkpt>
      <trkpt lat="42.40937" lon="8.90845">
        <ele>1891.2</ele>
        <time>2015-06-30T06:41:05Z</time>
      </trkpt>
      <trkpt lat="42.40964" lon="8.90835">
        <ele>1890</ele>
        <time>2015-06-30T06:42:34Z</time>
      </trkpt>
      <trkpt lat="42.40963" lon="8.9083">
        <ele>1889.8</ele>
        <time>2015-06-30T06:42:54Z</time>
      </trkpt>
      <trkpt lat="42.40965" lon="8.90827">
        <ele>1889.2</ele>
        <time>2015-06-30T06:43:02Z</time>
      </trkpt>
      <trkpt lat="42.40964" lon="8.90818">
        <ele>1887.6</ele>
        <time>2015-06-30T06:43:23Z</time>
      </trkpt>
      <trkpt lat="42.40969" lon="8.90813">
        <ele>1885.8</ele>
        <time>2015-06-30T06:43:51Z</time>
      </trkpt>
      <trkpt lat="42.40975" lon="8.90813">
        <ele>1885.4</ele>
        <time>2015-06-30T06:44:04Z</time>
      </trkpt>
      <trkpt lat="42.40978" lon="8.90812">
        <ele>1885.8</ele>
        <time>2015-06-30T06:44:10Z</time>
      </trkpt>
      <trkpt lat="42.40985" lon="8.90799">
        <ele>1886.6</ele>
        <time>2015-06-30T06:44:45Z</time>
      </trkpt>
      <trkpt lat="42.40986" lon="8.90799">
        <ele>1887.6</ele>
        <time>2015-06-30T06:44:51Z</time>
      </trkpt>
      <trkpt lat="42.40988" lon="8.908">
        <ele>1889</ele>
        <time>2015-06-30T06:45:00Z</time>
      </trkpt>
      <trkpt lat="42.40989" lon="8.90799">
        <ele>1889.6</ele>
        <time>2015-06-30T06:45:05Z</time>
      </trkpt>
      <trkpt lat="42.40989" lon="8.90798">
        <ele>1889.8</ele>
        <time>2015-06-30T06:45:06Z</time>
      </trkpt>
      <trkpt lat="42.4099" lon="8.90796">
        <ele>1891</ele>
        <time>2015-06-30T06:45:13Z</time>
      </trkpt>
      <trkpt lat="42.40992" lon="8.90794">
        <ele>1892</ele>
        <time>2015-06-30T06:45:20Z</time>
      </trkpt>
      <trkpt lat="42.40994" lon="8.90794">
        <ele>1893.4</ele>
        <time>2015-06-30T06:45:30Z</time>
      </trkpt>
      <trkpt lat="42.40995" lon="8.90797">
        <ele>1894</ele>
        <time>2015-06-30T06:45:38Z</time>
      </trkpt>
      <trkpt lat="42.40998" lon="8.90798">
        <ele>1894.6</ele>
        <time>2015-06-30T06:45:45Z</time>
      </trkpt>
      <trkpt lat="42.40999" lon="8.90799">
        <ele>1895.6</ele>
        <time>2015-06-30T06:45:51Z</time>
      </trkpt>
      <trkpt lat="42.41" lon="8.90799">
        <ele>1897.4</ele>
        <time>2015-06-30T06:46:00Z</time>
      </trkpt>
      <trkpt lat="42.41001" lon="8.90798">
        <ele>1898</ele>
        <time>2015-06-30T06:46:08Z</time>
      </trkpt>
      <trkpt lat="42.41003" lon="8.90798">
        <ele>1899</ele>
        <time>2015-06-30T06:46:19Z</time>
      </trkpt>
      <trkpt lat="42.41005" lon="8.90798">
        <ele>1900.2</ele>
        <time>2015-06-30T06:46:28Z</time>
      </trkpt>
      <trkpt lat="42.41007" lon="8.90798">
        <ele>1901</ele>
        <time>2015-06-30T06:46:36Z</time>
      </trkpt>
      <trkpt lat="42.41008" lon="8.90796">
        <ele>1901.6</ele>
        <time>2015-06-30T06:46:41Z</time>
      </trkpt>
      <trkpt lat="42.41009" lon="8.90795">
        <ele>1902.4</ele>
        <time>2015-06-30T06:46:46Z</time>
      </trkpt>
      <trkpt lat="42.4101" lon="8.90794">
        <ele>1904.2</ele>
        <time>2015-06-30T06:46:54Z</time>
      </trkpt>
      <trkpt lat="42.41011" lon="8.90787">
        <ele>1905.4</ele>
        <time>2015-06-30T06:47:09Z</time>
      </trkpt>
      <trkpt lat="42.41012" lon="8.90787">
        <ele>1905.8</ele>
        <time>2015-06-30T06:47:14Z</time>
      </trkpt>
      <trkpt lat="42.41014" lon="8.90788">
        <ele>1907.2</ele>
        <time>2015-06-30T06:47:24Z</time>
      </trkpt>
      <trkpt lat="42.41015" lon="8.90788">
        <ele>1908.4</ele>
        <time>2015-06-30T06:47:33Z</time>
      </trkpt>
      <trkpt lat="42.41018" lon="8.90789">
        <ele>1909.4</ele>
        <time>2015-06-30T06:47:48Z</time>
      </trkpt>
      <trkpt lat="42.41019" lon="8.90785">
        <ele>1910.4</ele>
        <time>2015-06-30T06:47:57Z</time>
      </trkpt>
      <trkpt lat="42.4102" lon="8.90784">
        <ele>1911.2</ele>
        <time>2015-06-30T06:48:04Z</time>
      </trkpt>
      <trkpt lat="42.4102" lon="8.90783">
        <ele>1912.8</ele>
        <time>2015-06-30T06:48:25Z</time>
      </trkpt>
      <trkpt lat="42.41021" lon="8.90779">
        <ele>1913.6</ele>
        <time>2015-06-30T06:48:37Z</time>
      </trkpt>
      <trkpt lat="42.41029" lon="8.90775">
        <ele>1915</ele>
        <time>2015-06-30T06:49:00Z</time>
      </trkpt>
      <trkpt lat="42.41029" lon="8.90776">
        <ele>1915.6</ele>
        <time>2015-06-30T06:49:08Z</time>
      </trkpt>
      <trkpt lat="42.41031" lon="8.90777">
        <ele>1916.6</ele>
        <time>2015-06-30T06:49:14Z</time>
      </trkpt>
      <trkpt lat="42.4104" lon="8.90769">
        <ele>1918.4</ele>
        <time>2015-06-30T06:49:31Z</time>
      </trkpt>
      <trkpt lat="42.41043" lon="8.90769">
        <ele>1918.8</ele>
        <time>2015-06-30T06:49:38Z</time>
      </trkpt>
      <trkpt lat="42.41044" lon="8.90768">
        <ele>1919.8</ele>
        <time>2015-06-30T06:49:43Z</time>
      </trkpt>
      <trkpt lat="42.41046" lon="8.90768">
        <ele>1921.4</ele>
        <time>2015-06-30T06:49:52Z</time>
      </trkpt>
      <trkpt lat="42.41049" lon="8.90767">
        <ele>1922.6</ele>
        <time>2015-06-30T06:50:02Z</time>
      </trkpt>
      <trkpt lat="42.41052" lon="8.90768">
        <ele>1923.6</ele>
        <time>2015-06-30T06:50:10Z</time>
      </trkpt>
      <trkpt lat="42.41054" lon="8.9077">
        <ele>1924.8</ele>
        <time>2015-06-30T06:50:20Z</time>
      </trkpt>
      <trkpt lat="42.41057" lon="8.9077">
        <ele>1925.2</ele>
        <time>2015-06-30T06:50:26Z</time>
      </trkpt>
      <trkpt lat="42.4106" lon="8.9077">
        <ele>1926.2</ele>
        <time>2015-06-30T06:50:32Z</time>
      </trkpt>
      <trkpt lat="42.41061" lon="8.90771">
        <ele>1927.6</ele>
        <time>2015-06-30T06:50:39Z</time>
      </trkpt>
      <trkpt lat="42.41058" lon="8.90774">
        <ele>1928.8</ele>
        <time>2015-06-30T06:50:49Z</time>
      </trkpt>
      <trkpt lat="42.41048" lon="8.90785">
        <ele>1929.8</ele>
        <time>2015-06-30T06:51:09Z</time>
      </trkpt>
      <trkpt lat="42.41046" lon="8.90793">
        <ele>1930.6</ele>
        <time>2015-06-30T06:51:19Z</time>
      </trkpt>
      <trkpt lat="42.41044" lon="8.90795">
        <ele>1931.6</ele>
        <time>2015-06-30T06:51:28Z</time>
      </trkpt>
      <trkpt lat="42.41046" lon="8.90798">
        <ele>1933</ele>
        <time>2015-06-30T06:51:39Z</time>
      </trkpt>
      <trkpt lat="42.41046" lon="8.908">
        <ele>1934</ele>
        <time>2015-06-30T06:51:49Z</time>
      </trkpt>
      <trkpt lat="42.41044" lon="8.90802">
        <ele>1934.6</ele>
        <time>2015-06-30T06:51:56Z</time>
      </trkpt>
      <trkpt lat="42.41043" lon="8.90805">
        <ele>1935.4</ele>
        <time>2015-06-30T06:52:02Z</time>
      </trkpt>
      <trkpt lat="42.41043" lon="8.90808">
        <ele>1937</ele>
        <time>2015-06-30T06:52:19Z</time>
      </trkpt>
      <trkpt lat="42.41041" lon="8.90807">
        <ele>1938</ele>
        <time>2015-06-30T06:52:54Z</time>
      </trkpt>
      <trkpt lat="42.41041" lon="8.90808">
        <ele>1938.8</ele>
        <time>2015-06-30T06:53:04Z</time>
      </trkpt>
      <trkpt lat="42.41043" lon="8.90818">
        <ele>1938.8</ele>
        <time>2015-06-30T06:54:16Z</time>
      </trkpt>
      <trkpt lat="42.4105" lon="8.90833">
        <ele>1938.2</ele>
        <time>2015-06-30T06:54:34Z</time>
      </trkpt>
      <trkpt lat="42.41052" lon="8.90837">
        <ele>1938.8</ele>
        <time>2015-06-30T06:55:26Z</time>
      </trkpt>
      <trkpt lat="42.41053" lon="8.90837">
        <ele>1937.4</ele>
        <time>2015-06-30T06:55:34Z</time>
      </trkpt>
      <trkpt lat="42.41054" lon="8.90835">
        <ele>1935.8</ele>
        <time>2015-06-30T06:55:54Z</time>
      </trkpt>
      <trkpt lat="42.41057" lon="8.90835">
        <ele>1934.2</ele>
        <time>2015-06-30T06:57:03Z</time>
      </trkpt>
      <trkpt lat="42.4106" lon="8.90836">
        <ele>1933.2</ele>
        <time>2015-06-30T06:57:21Z</time>
      </trkpt>
      <trkpt lat="42.41061" lon="8.90838">
        <ele>1932.6</ele>
        <time>2015-06-30T06:57:27Z</time>
      </trkpt>
      <trkpt lat="42.41063" lon="8.90838">
        <ele>1930.8</ele>
        <time>2015-06-30T06:57:40Z</time>
      </trkpt>
      <trkpt lat="42.41066" lon="8.90839">
        <ele>1929.4</ele>
        <time>2015-06-30T06:57:52Z</time>
      </trkpt>
      <trkpt lat="42.41067" lon="8.9084">
        <ele>1928.6</ele>
        <time>2015-06-30T06:58:01Z</time>
      </trkpt>
      <trkpt lat="42.41071" lon="8.90838">
        <ele>1926.2</ele>
        <time>2015-06-30T06:59:58Z</time>
      </trkpt>
      <trkpt lat="42.41073" lon="8.90837">
        <ele>1924.6</ele>
        <time>2015-06-30T07:00:12Z</time>
      </trkpt>
      <trkpt lat="42.41078" lon="8.90838">
        <ele>1923.6</ele>
        <time>2015-06-30T07:00:27Z</time>
      </trkpt>
      <trkpt lat="42.41081" lon="8.90839">
        <ele>1923</ele>
        <time>2015-06-30T07:00:34Z</time>
      </trkpt>
      <trkpt lat="42.41083" lon="8.90837">
        <ele>1921.8</ele>
        <time>2015-06-30T07:00:42Z</time>
      </trkpt>
      <trkpt lat="42.41084" lon="8.90838">
        <ele>1920</ele>
        <time>2015-06-30T07:00:54Z</time>
      </trkpt>
      <trkpt lat="42.41085" lon="8.90842">
        <ele>1919</ele>
        <time>2015-06-30T07:01:07Z</time>
      </trkpt>
      <trkpt lat="42.41088" lon="8.90844">
        <ele>1918.2</ele>
        <time>2015-06-30T07:01:14Z</time>
      </trkpt>
      <trkpt lat="42.41089" lon="8.90844">
        <ele>1916.4</ele>
        <time>2015-06-30T07:01:31Z</time>
      </trkpt>
      <trkpt lat="42.41091" lon="8.90845">
        <ele>1915.6</ele>
        <time>2015-06-30T07:01:38Z</time>
      </trkpt>
      <trkpt lat="42.41093" lon="8.90842">
        <ele>1913.8</ele>
        <time>2015-06-30T07:01:59Z</time>
      </trkpt>
      <trkpt lat="42.41096" lon="8.90842">
        <ele>1913</ele>
        <time>2015-06-30T07:02:08Z</time>
      </trkpt>
      <trkpt lat="42.41097" lon="8.90844">
        <ele>1911.6</ele>
        <time>2015-06-30T07:02:17Z</time>
      </trkpt>
      <trkpt lat="42.41098" lon="8.90848">
        <ele>1910.4</ele>
        <time>2015-06-30T07:02:27Z</time>
      </trkpt>
      <trkpt lat="42.411" lon="8.90848">
        <ele>1909</ele>
        <time>2015-06-30T07:02:41Z</time>
      </trkpt>
      <trkpt lat="42.41101" lon="8.90849">
        <ele>1907.8</ele>
        <time>2015-06-30T07:02:50Z</time>
      </trkpt>
      <trkpt lat="42.41102" lon="8.9085">
        <ele>1907</ele>
        <time>2015-06-30T07:02:56Z</time>
      </trkpt>
      <trkpt lat="42.41106" lon="8.90853">
        <ele>1905.8</ele>
        <time>2015-06-30T07:03:04Z</time>
      </trkpt>
      <trkpt lat="42.41109" lon="8.90853">
        <ele>1905</ele>
        <time>2015-06-30T07:03:09Z</time>
      </trkpt>
      <trkpt lat="42.41111" lon="8.90848">
        <ele>1903.6</ele>
        <time>2015-06-30T07:03:16Z</time>
      </trkpt>
      <trkpt lat="42.41115" lon="8.90848">
        <ele>1902.2</ele>
        <time>2015-06-30T07:03:24Z</time>
      </trkpt>
      <trkpt lat="42.41115" lon="8.90847">
        <ele>1901.2</ele>
        <time>2015-06-30T07:03:29Z</time>
      </trkpt>
      <trkpt lat="42.41115" lon="8.90845">
        <ele>1900</ele>
        <time>2015-06-30T07:03:35Z</time>
      </trkpt>
      <trkpt lat="42.41113" lon="8.9084">
        <ele>1898.4</ele>
        <time>2015-06-30T07:03:50Z</time>
      </trkpt>
      <trkpt lat="42.41115" lon="8.90837">
        <ele>1896.8</ele>
        <time>2015-06-30T07:04:10Z</time>
      </trkpt>
      <trkpt lat="42.41118" lon="8.90839">
        <ele>1895</ele>
        <time>2015-06-30T07:04:24Z</time>
      </trkpt>
      <trkpt lat="42.41121" lon="8.90841">
        <ele>1894.8</ele>
        <time>2015-06-30T07:04:31Z</time>
      </trkpt>
      <trkpt lat="42.41124" lon="8.9084">
        <ele>1893.4</ele>
        <time>2015-06-30T07:04:40Z</time>
      </trkpt>
      <trkpt lat="42.41128" lon="8.90839">
        <ele>1891.8</ele>
        <time>2015-06-30T07:04:55Z</time>
      </trkpt>
      <trkpt lat="42.4113" lon="8.90836">
        <ele>1891</ele>
        <time>2015-06-30T07:05:02Z</time>
      </trkpt>
      <trkpt lat="42.41132" lon="8.90836">
        <ele>1888.6</ele>
        <time>2015-06-30T07:05:20Z</time>
      </trkpt>
      <trkpt lat="42.41134" lon="8.90838">
        <ele>1888.2</ele>
        <time>2015-06-30T07:05:27Z</time>
      </trkpt>
      <trkpt lat="42.41134" lon="8.90836">
        <ele>1886.6</ele>
        <time>2015-06-30T07:05:38Z</time>
      </trkpt>
      <trkpt lat="42.41137" lon="8.90834">
        <ele>1886</ele>
        <time>2015-06-30T07:05:45Z</time>
      </trkpt>
      <trkpt lat="42.41141" lon="8.90833">
        <ele>1884.4</ele>
        <time>2015-06-30T07:05:53Z</time>
      </trkpt>
      <trkpt lat="42.41141" lon="8.90828">
        <ele>1883.2</ele>
        <time>2015-06-30T07:06:00Z</time>
      </trkpt>
      <trkpt lat="42.4114" lon="8.90825">
        <ele>1882</ele>
        <time>2015-06-30T07:06:08Z</time>
      </trkpt>
      <trkpt lat="42.41145" lon="8.90825">
        <ele>1880.2</ele>
        <time>2015-06-30T07:06:19Z</time>
      </trkpt>
      <trkpt lat="42.41146" lon="8.90825">
        <ele>1879.8</ele>
        <time>2015-06-30T07:06:24Z</time>
      </trkpt>
      <trkpt lat="42.41148" lon="8.90826">
        <ele>1878.2</ele>
        <time>2015-06-30T07:06:32Z</time>
      </trkpt>
      <trkpt lat="42.4115" lon="8.90824">
        <ele>1877</ele>
        <time>2015-06-30T07:06:40Z</time>
      </trkpt>
      <trkpt lat="42.41151" lon="8.90827">
        <ele>1875.4</ele>
        <time>2015-06-30T07:06:49Z</time>
      </trkpt>
      <trkpt lat="42.41153" lon="8.90826">
        <ele>1874</ele>
        <time>2015-06-30T07:07:02Z</time>
      </trkpt>
      <trkpt lat="42.41156" lon="8.90827">
        <ele>1873</ele>
        <time>2015-06-30T07:07:12Z</time>
      </trkpt>
      <trkpt lat="42.41159" lon="8.90829">
        <ele>1871.8</ele>
        <time>2015-06-30T07:07:21Z</time>
      </trkpt>
      <trkpt lat="42.41162" lon="8.90828">
        <ele>1870.6</ele>
        <time>2015-06-30T07:07:31Z</time>
      </trkpt>
      <trkpt lat="42.41163" lon="8.90826">
        <ele>1869.2</ele>
        <time>2015-06-30T07:07:39Z</time>
      </trkpt>
      <trkpt lat="42.41166" lon="8.90827">
        <ele>1868.4</ele>
        <time>2015-06-30T07:07:46Z</time>
      </trkpt>
      <trkpt lat="42.41167" lon="8.90826">
        <ele>1866.8</ele>
        <time>2015-06-30T07:07:54Z</time>
      </trkpt>
      <trkpt lat="42.41167" lon="8.90824">
        <ele>1865.6</ele>
        <time>2015-06-30T07:08:03Z</time>
      </trkpt>
      <trkpt lat="42.41173" lon="8.90825">
        <ele>1864.6</ele>
        <time>2015-06-30T07:08:23Z</time>
      </trkpt>
      <trkpt lat="42.41176" lon="8.90825">
        <ele>1862.8</ele>
        <time>2015-06-30T07:08:34Z</time>
      </trkpt>
      <trkpt lat="42.41177" lon="8.90825">
        <ele>1862.2</ele>
        <time>2015-06-30T07:08:39Z</time>
      </trkpt>
      <trkpt lat="42.41178" lon="8.90824">
        <ele>1859.8</ele>
        <time>2015-06-30T07:09:02Z</time>
      </trkpt>
      <trkpt lat="42.41181" lon="8.90822">
        <ele>1858.6</ele>
        <time>2015-06-30T07:09:14Z</time>
      </trkpt>
      <trkpt lat="42.41182" lon="8.9082">
        <ele>1858.2</ele>
        <time>2015-06-30T07:09:19Z</time>
      </trkpt>
      <trkpt lat="42.41187" lon="8.9082">
        <ele>1856</ele>
        <time>2015-06-30T07:09:37Z</time>
      </trkpt>
      <trkpt lat="42.41188" lon="8.90821">
        <ele>1854.8</ele>
        <time>2015-06-30T07:09:49Z</time>
      </trkpt>
      <trkpt lat="42.41191" lon="8.90821">
        <ele>1853.8</ele>
        <time>2015-06-30T07:09:59Z</time>
      </trkpt>
      <trkpt lat="42.41195" lon="8.90822">
        <ele>1852</ele>
        <time>2015-06-30T07:10:10Z</time>
      </trkpt>
      <trkpt lat="42.41196" lon="8.90822">
        <ele>1851.2</ele>
        <time>2015-06-30T07:10:18Z</time>
      </trkpt>
      <trkpt lat="42.41198" lon="8.90818">
        <ele>1850.2</ele>
        <time>2015-06-30T07:10:25Z</time>
      </trkpt>
      <trkpt lat="42.41199" lon="8.90813">
        <ele>1848.2</ele>
        <time>2015-06-30T07:10:36Z</time>
      </trkpt>
      <trkpt lat="42.41201" lon="8.90811">
        <ele>1847.4</ele>
        <time>2015-06-30T07:10:44Z</time>
      </trkpt>
      <trkpt lat="42.41207" lon="8.90807">
        <ele>1846</ele>
        <time>2015-06-30T07:10:57Z</time>
      </trkpt>
      <trkpt lat="42.41216" lon="8.90807">
        <ele>1843.8</ele>
        <time>2015-06-30T07:11:16Z</time>
      </trkpt>
      <trkpt lat="42.41218" lon="8.90808">
        <ele>1843.4</ele>
        <time>2015-06-30T07:11:23Z</time>
      </trkpt>
      <trkpt lat="42.41219" lon="8.90807">
        <ele>1841.8</ele>
        <time>2015-06-30T07:11:34Z</time>
      </trkpt>
      <trkpt lat="42.41222" lon="8.90806">
        <ele>1840.8</ele>
        <time>2015-06-30T07:11:42Z</time>
      </trkpt>
      <trkpt lat="42.41225" lon="8.90807">
        <ele>1839.4</ele>
        <time>2015-06-30T07:11:55Z</time>
      </trkpt>
      <trkpt lat="42.41226" lon="8.90805">
        <ele>1838</ele>
        <time>2015-06-30T07:12:06Z</time>
      </trkpt>
      <trkpt lat="42.41229" lon="8.90804">
        <ele>1836.6</ele>
        <time>2015-06-30T07:12:21Z</time>
      </trkpt>
      <trkpt lat="42.4123" lon="8.90801">
        <ele>1836</ele>
        <time>2015-06-30T07:12:29Z</time>
      </trkpt>
      <trkpt lat="42.41233" lon="8.90795">
        <ele>1834.4</ele>
        <time>2015-06-30T07:12:38Z</time>
      </trkpt>
      <trkpt lat="42.4123" lon="8.90791">
        <ele>1833.6</ele>
        <time>2015-06-30T07:12:44Z</time>
      </trkpt>
      <trkpt lat="42.41228" lon="8.90784">
        <ele>1832.6</ele>
        <time>2015-06-30T07:12:57Z</time>
      </trkpt>
      <trkpt lat="42.4123" lon="8.90784">
        <ele>1831.4</ele>
        <time>2015-06-30T07:13:06Z</time>
      </trkpt>
      <trkpt lat="42.4123" lon="8.90784">
        <ele>1831.2</ele>
        <time>2015-06-30T07:13:09Z</time>
      </trkpt>
      <trkpt lat="42.4123" lon="8.9078">
        <ele>1830</ele>
        <time>2015-06-30T07:13:22Z</time>
      </trkpt>
      <trkpt lat="42.4123" lon="8.90779">
        <ele>1829.2</ele>
        <time>2015-06-30T07:13:29Z</time>
      </trkpt>
      <trkpt lat="42.41232" lon="8.90774">
        <ele>1827.6</ele>
        <time>2015-06-30T07:13:38Z</time>
      </trkpt>
      <trkpt lat="42.41236" lon="8.90773">
        <ele>1827</ele>
        <time>2015-06-30T07:13:44Z</time>
      </trkpt>
      <trkpt lat="42.41244" lon="8.90778">
        <ele>1825</ele>
        <time>2015-06-30T07:13:55Z</time>
      </trkpt>
      <trkpt lat="42.41246" lon="8.9078">
        <ele>1825</ele>
        <time>2015-06-30T07:13:57Z</time>
      </trkpt>
      <trkpt lat="42.41247" lon="8.90779">
        <ele>1824.4</ele>
        <time>2015-06-30T07:14:04Z</time>
      </trkpt>
      <trkpt lat="42.41247" lon="8.90774">
        <ele>1823</ele>
        <time>2015-06-30T07:14:12Z</time>
      </trkpt>
      <trkpt lat="42.41251" lon="8.90772">
        <ele>1822</ele>
        <time>2015-06-30T07:14:20Z</time>
      </trkpt>
      <trkpt lat="42.41257" lon="8.90769">
        <ele>1820.8</ele>
        <time>2015-06-30T07:14:28Z</time>
      </trkpt>
      <trkpt lat="42.41262" lon="8.90768">
        <ele>1820.2</ele>
        <time>2015-06-30T07:14:33Z</time>
      </trkpt>
      <trkpt lat="42.41264" lon="8.9077">
        <ele>1819.8</ele>
        <time>2015-06-30T07:14:37Z</time>
      </trkpt>
      <trkpt lat="42.41262" lon="8.9078">
        <ele>1820</ele>
        <time>2015-06-30T07:14:52Z</time>
      </trkpt>
      <trkpt lat="42.41263" lon="8.90782">
        <ele>1821.4</ele>
        <time>2015-06-30T07:15:02Z</time>
      </trkpt>
      <trkpt lat="42.41263" lon="8.90784">
        <ele>1822</ele>
        <time>2015-06-30T07:15:10Z</time>
      </trkpt>
      <trkpt lat="42.41263" lon="8.90784">
        <ele>1823</ele>
        <time>2015-06-30T07:15:17Z</time>
      </trkpt>
      <trkpt lat="42.41263" lon="8.90783">
        <ele>1824</ele>
        <time>2015-06-30T07:15:23Z</time>
      </trkpt>
      <trkpt lat="42.41265" lon="8.90785">
        <ele>1825.2</ele>
        <time>2015-06-30T07:15:30Z</time>
      </trkpt>
      <trkpt lat="42.41276" lon="8.90786">
        <ele>1826</ele>
        <time>2015-06-30T07:15:45Z</time>
      </trkpt>
      <trkpt lat="42.41279" lon="8.90788">
        <ele>1825.4</ele>
        <time>2015-06-30T07:15:50Z</time>
      </trkpt>
      <trkpt lat="42.41298" lon="8.90786">
        <ele>1824</ele>
        <time>2015-06-30T07:16:10Z</time>
      </trkpt>
      <trkpt lat="42.413" lon="8.90787">
        <ele>1823.8</ele>
        <time>2015-06-30T07:16:12Z</time>
      </trkpt>
      <trkpt lat="42.41314" lon="8.90789">
        <ele>1824</ele>
        <time>2015-06-30T07:16:36Z</time>
      </trkpt>
      <trkpt lat="42.41312" lon="8.90793">
        <ele>1823.6</ele>
        <time>2015-06-30T07:18:51Z</time>
      </trkpt>
      <trkpt lat="42.41315" lon="8.90806">
        <ele>1823.2</ele>
        <time>2015-06-30T07:19:24Z</time>
      </trkpt>
      <trkpt lat="42.4132" lon="8.9081">
        <ele>1821.8</ele>
        <time>2015-06-30T07:19:33Z</time>
      </trkpt>
      <trkpt lat="42.41326" lon="8.90812">
        <ele>1820.6</ele>
        <time>2015-06-30T07:19:43Z</time>
      </trkpt>
      <trkpt lat="42.41331" lon="8.90817">
        <ele>1819.8</ele>
        <time>2015-06-30T07:20:02Z</time>
      </trkpt>
      <trkpt lat="42.41332" lon="8.90815">
        <ele>1819</ele>
        <time>2015-06-30T07:20:08Z</time>
      </trkpt>
      <trkpt lat="42.41335" lon="8.90814">
        <ele>1817.6</ele>
        <time>2015-06-30T07:20:15Z</time>
      </trkpt>
      <trkpt lat="42.41337" lon="8.90815">
        <ele>1816.6</ele>
        <time>2015-06-30T07:20:23Z</time>
      </trkpt>
      <trkpt lat="42.41339" lon="8.90814">
        <ele>1815.4</ele>
        <time>2015-06-30T07:20:31Z</time>
      </trkpt>
      <trkpt lat="42.4134" lon="8.90811">
        <ele>1814.4</ele>
        <time>2015-06-30T07:20:38Z</time>
      </trkpt>
      <trkpt lat="42.41341" lon="8.90808">
        <ele>1813.4</ele>
        <time>2015-06-30T07:20:44Z</time>
      </trkpt>
      <trkpt lat="42.41344" lon="8.90811">
        <ele>1812.4</ele>
        <time>2015-06-30T07:20:50Z</time>
      </trkpt>
      <trkpt lat="42.41347" lon="8.90806">
        <ele>1810.6</ele>
        <time>2015-06-30T07:21:05Z</time>
      </trkpt>
      <trkpt lat="42.41347" lon="8.90803">
        <ele>1810</ele>
        <time>2015-06-30T07:21:12Z</time>
      </trkpt>
      <trkpt lat="42.41349" lon="8.90802">
        <ele>1809</ele>
        <time>2015-06-30T07:21:18Z</time>
      </trkpt>
      <trkpt lat="42.41352" lon="8.908">
        <ele>1807.8</ele>
        <time>2015-06-30T07:21:25Z</time>
      </trkpt>
      <trkpt lat="42.41355" lon="8.90799">
        <ele>1806.2</ele>
        <time>2015-06-30T07:21:33Z</time>
      </trkpt>
      <trkpt lat="42.41356" lon="8.90796">
        <ele>1805.2</ele>
        <time>2015-06-30T07:21:43Z</time>
      </trkpt>
      <trkpt lat="42.41358" lon="8.908">
        <ele>1804.4</ele>
        <time>2015-06-30T07:21:49Z</time>
      </trkpt>
      <trkpt lat="42.41363" lon="8.90801">
        <ele>1803</ele>
        <time>2015-06-30T07:21:56Z</time>
      </trkpt>
      <trkpt lat="42.41365" lon="8.90799">
        <ele>1802</ele>
        <time>2015-06-30T07:22:04Z</time>
      </trkpt>
      <trkpt lat="42.41373" lon="8.90794">
        <ele>1800.8</ele>
        <time>2015-06-30T07:22:15Z</time>
      </trkpt>
      <trkpt lat="42.41379" lon="8.90778">
        <ele>1799.6</ele>
        <time>2015-06-30T07:22:29Z</time>
      </trkpt>
      <trkpt lat="42.41365" lon="8.90751">
        <ele>1798.4</ele>
        <time>2015-06-30T07:23:21Z</time>
      </trkpt>
      <trkpt lat="42.41364" lon="8.90748">
        <ele>1797.6</ele>
        <time>2015-06-30T07:23:32Z</time>
      </trkpt>
      <trkpt lat="42.41364" lon="8.90744">
        <ele>1796.6</ele>
        <time>2015-06-30T07:23:40Z</time>
      </trkpt>
      <trkpt lat="42.41364" lon="8.90738">
        <ele>1795.2</ele>
        <time>2015-06-30T07:23:48Z</time>
      </trkpt>
      <trkpt lat="42.41367" lon="8.90733">
        <ele>1794.2</ele>
        <time>2015-06-30T07:24:00Z</time>
      </trkpt>
      <trkpt lat="42.41368" lon="8.90727">
        <ele>1793.4</ele>
        <time>2015-06-30T07:24:07Z</time>
      </trkpt>
      <trkpt lat="42.41368" lon="8.90724">
        <ele>1792.2</ele>
        <time>2015-06-30T07:24:15Z</time>
      </trkpt>
      <trkpt lat="42.41367" lon="8.90725">
        <ele>1791.6</ele>
        <time>2015-06-30T07:24:20Z</time>
      </trkpt>
      <trkpt lat="42.41363" lon="8.90723">
        <ele>1789.2</ele>
        <time>2015-06-30T07:24:37Z</time>
      </trkpt>
      <trkpt lat="42.41365" lon="8.90719">
        <ele>1788.8</ele>
        <time>2015-06-30T07:24:45Z</time>
      </trkpt>
      <trkpt lat="42.4136" lon="8.90719">
        <ele>1787.4</ele>
        <time>2015-06-30T07:25:14Z</time>
      </trkpt>
      <trkpt lat="42.41356" lon="8.90719">
        <ele>1786.2</ele>
        <time>2015-06-30T07:25:23Z</time>
      </trkpt>
      <trkpt lat="42.41356" lon="8.90712">
        <ele>1785.2</ele>
        <time>2015-06-30T07:25:48Z</time>
      </trkpt>
      <trkpt lat="42.41357" lon="8.90709">
        <ele>1783.8</ele>
        <time>2015-06-30T07:25:57Z</time>
      </trkpt>
      <trkpt lat="42.41359" lon="8.90705">
        <ele>1782.6</ele>
        <time>2015-06-30T07:26:05Z</time>
      </trkpt>
      <trkpt lat="42.41363" lon="8.90702">
        <ele>1781.6</ele>
        <time>2015-06-30T07:26:14Z</time>
      </trkpt>
      <trkpt lat="42.41367" lon="8.90701">
        <ele>1780.8</ele>
        <time>2015-06-30T07:26:20Z</time>
      </trkpt>
      <trkpt lat="42.41371" lon="8.907">
        <ele>1779.6</ele>
        <time>2015-06-30T07:26:26Z</time>
      </trkpt>
      <trkpt lat="42.41382" lon="8.90703">
        <ele>1777.4</ele>
        <time>2015-06-30T07:26:40Z</time>
      </trkpt>
      <trkpt lat="42.41385" lon="8.90703">
        <ele>1776.8</ele>
        <time>2015-06-30T07:26:46Z</time>
      </trkpt>
      <trkpt lat="42.41388" lon="8.90703">
        <ele>1775.2</ele>
        <time>2015-06-30T07:26:56Z</time>
      </trkpt>
      <trkpt lat="42.41389" lon="8.90701">
        <ele>1774</ele>
        <time>2015-06-30T07:27:09Z</time>
      </trkpt>
      <trkpt lat="42.41388" lon="8.90697">
        <ele>1772.4</ele>
        <time>2015-06-30T07:27:27Z</time>
      </trkpt>
      <trkpt lat="42.41398" lon="8.907">
        <ele>1772</ele>
        <time>2015-06-30T07:27:44Z</time>
      </trkpt>
      <trkpt lat="42.41407" lon="8.90696">
        <ele>1770.2</ele>
        <time>2015-06-30T07:28:01Z</time>
      </trkpt>
      <trkpt lat="42.41407" lon="8.90691">
        <ele>1769.6</ele>
        <time>2015-06-30T07:28:07Z</time>
      </trkpt>
      <trkpt lat="42.41409" lon="8.90688">
        <ele>1768</ele>
        <time>2015-06-30T07:28:15Z</time>
      </trkpt>
      <trkpt lat="42.4141" lon="8.90685">
        <ele>1767.2</ele>
        <time>2015-06-30T07:28:22Z</time>
      </trkpt>
      <trkpt lat="42.41411" lon="8.90681">
        <ele>1765.8</ele>
        <time>2015-06-30T07:28:32Z</time>
      </trkpt>
      <trkpt lat="42.41414" lon="8.90671">
        <ele>1764.2</ele>
        <time>2015-06-30T07:28:46Z</time>
      </trkpt>
      <trkpt lat="42.41418" lon="8.90668">
        <ele>1763.6</ele>
        <time>2015-06-30T07:28:53Z</time>
      </trkpt>
      <trkpt lat="42.41418" lon="8.90664">
        <ele>1762.6</ele>
        <time>2015-06-30T07:29:00Z</time>
      </trkpt>
      <trkpt lat="42.41417" lon="8.90662">
        <ele>1762</ele>
        <time>2015-06-30T07:29:03Z</time>
      </trkpt>
      <trkpt lat="42.41417" lon="8.90659">
        <ele>1761.2</ele>
        <time>2015-06-30T07:29:07Z</time>
      </trkpt>
      <trkpt lat="42.41417" lon="8.90655">
        <ele>1760</ele>
        <time>2015-06-30T07:29:16Z</time>
      </trkpt>
      <trkpt lat="42.41419" lon="8.90657">
        <ele>1759.2</ele>
        <time>2015-06-30T07:29:22Z</time>
      </trkpt>
      <trkpt lat="42.41425" lon="8.9066">
        <ele>1757.6</ele>
        <time>2015-06-30T07:29:29Z</time>
      </trkpt>
      <trkpt lat="42.41425" lon="8.9066">
        <ele>1757.6</ele>
        <time>2015-06-30T07:29:30Z</time>
      </trkpt>
      <trkpt lat="42.41426" lon="8.90659">
        <ele>1757.2</ele>
        <time>2015-06-30T07:29:32Z</time>
      </trkpt>
      <trkpt lat="42.41429" lon="8.90657">
        <ele>1756.6</ele>
        <time>2015-06-30T07:29:38Z</time>
      </trkpt>
      <trkpt lat="42.41431" lon="8.9066">
        <ele>1755.2</ele>
        <time>2015-06-30T07:29:50Z</time>
      </trkpt>
      <trkpt lat="42.4143" lon="8.90657">
        <ele>1755</ele>
        <time>2015-06-30T07:29:54Z</time>
      </trkpt>
      <trkpt lat="42.41429" lon="8.90654">
        <ele>1754.2</ele>
        <time>2015-06-30T07:30:00Z</time>
      </trkpt>
      <trkpt lat="42.41429" lon="8.90653">
        <ele>1753.2</ele>
        <time>2015-06-30T07:30:05Z</time>
      </trkpt>
      <trkpt lat="42.41415" lon="8.90649">
        <ele>1751.8</ele>
        <time>2015-06-30T07:30:31Z</time>
      </trkpt>
      <trkpt lat="42.41402" lon="8.90642">
        <ele>1750.8</ele>
        <time>2015-06-30T07:30:36Z</time>
      </trkpt>
      <trkpt lat="42.414" lon="8.9065">
        <ele>1749.8</ele>
        <time>2015-06-30T07:30:58Z</time>
      </trkpt>
      <trkpt lat="42.41402" lon="8.90651">
        <ele>1749.6</ele>
        <time>2015-06-30T07:31:01Z</time>
      </trkpt>
      <trkpt lat="42.41403" lon="8.9065">
        <ele>1748.6</ele>
        <time>2015-06-30T07:31:08Z</time>
      </trkpt>
      <trkpt lat="42.41407" lon="8.90648">
        <ele>1747.6</ele>
        <time>2015-06-30T07:31:18Z</time>
      </trkpt>
      <trkpt lat="42.4141" lon="8.90652">
        <ele>1746.2</ele>
        <time>2015-06-30T07:31:27Z</time>
      </trkpt>
      <trkpt lat="42.41415" lon="8.90658">
        <ele>1745.4</ele>
        <time>2015-06-30T07:31:36Z</time>
      </trkpt>
      <trkpt lat="42.41435" lon="8.90667">
        <ele>1744.4</ele>
        <time>2015-06-30T07:31:50Z</time>
      </trkpt>
      <trkpt lat="42.41436" lon="8.90663">
        <ele>1744</ele>
        <time>2015-06-30T07:31:56Z</time>
      </trkpt>
      <trkpt lat="42.41438" lon="8.90658">
        <ele>1743</ele>
        <time>2015-06-30T07:32:01Z</time>
      </trkpt>
      <trkpt lat="42.41433" lon="8.90648">
        <ele>1741.8</ele>
        <time>2015-06-30T07:32:07Z</time>
      </trkpt>
      <trkpt lat="42.41432" lon="8.90648">
        <ele>1741.4</ele>
        <time>2015-06-30T07:32:09Z</time>
      </trkpt>
      <trkpt lat="42.41435" lon="8.90651">
        <ele>1741</ele>
        <time>2015-06-30T07:32:11Z</time>
      </trkpt>
      <trkpt lat="42.41436" lon="8.90653">
        <ele>1740.6</ele>
        <time>2015-06-30T07:32:14Z</time>
      </trkpt>
      <trkpt lat="42.41436" lon="8.90653">
        <ele>1740.4</ele>
        <time>2015-06-30T07:32:16Z</time>
      </trkpt>
      <trkpt lat="42.41442" lon="8.90656">
        <ele>1739</ele>
        <time>2015-06-30T07:32:24Z</time>
      </trkpt>
      <trkpt lat="42.41445" lon="8.90651">
        <ele>1738.2</ele>
        <time>2015-06-30T07:32:31Z</time>
      </trkpt>
      <trkpt lat="42.41443" lon="8.90636">
        <ele>1736.6</ele>
        <time>2015-06-30T07:32:38Z</time>
      </trkpt>
      <trkpt lat="42.41443" lon="8.90634">
        <ele>1735.8</ele>
        <time>2015-06-30T07:32:43Z</time>
      </trkpt>
      <trkpt lat="42.41448" lon="8.90636">
        <ele>1733.2</ele>
        <time>2015-06-30T07:33:04Z</time>
      </trkpt>
      <trkpt lat="42.41447" lon="8.90633">
        <ele>1733.2</ele>
        <time>2015-06-30T07:33:08Z</time>
      </trkpt>
      <trkpt lat="42.41447" lon="8.90634">
        <ele>1732</ele>
        <time>2015-06-30T07:33:14Z</time>
      </trkpt>
      <trkpt lat="42.41448" lon="8.90634">
        <ele>1731.4</ele>
        <time>2015-06-30T07:33:17Z</time>
      </trkpt>
      <trkpt lat="42.41445" lon="8.90627">
        <ele>1730.4</ele>
        <time>2015-06-30T07:33:23Z</time>
      </trkpt>
      <trkpt lat="42.41443" lon="8.90623">
        <ele>1730.4</ele>
        <time>2015-06-30T07:33:24Z</time>
      </trkpt>
      <trkpt lat="42.41437" lon="8.90617">
        <ele>1729.8</ele>
        <time>2015-06-30T07:33:27Z</time>
      </trkpt>
      <trkpt lat="42.41435" lon="8.90615">
        <ele>1728.8</ele>
        <time>2015-06-30T07:33:39Z</time>
      </trkpt>
      <trkpt lat="42.41438" lon="8.90617">
        <ele>1729.6</ele>
        <time>2015-06-30T07:33:49Z</time>
      </trkpt>
      <trkpt lat="42.41438" lon="8.90617">
        <ele>1730.4</ele>
        <time>2015-06-30T07:33:59Z</time>
      </trkpt>
      <trkpt lat="42.41444" lon="8.90606">
        <ele>1730.6</ele>
        <time>2015-06-30T07:34:24Z</time>
      </trkpt>
      <trkpt lat="42.41437" lon="8.90599">
        <ele>1730.4</ele>
        <time>2015-06-30T07:34:26Z</time>
      </trkpt>
      <trkpt lat="42.41435" lon="8.90599">
        <ele>1730.2</ele>
        <time>2015-06-30T07:34:30Z</time>
      </trkpt>
      <trkpt lat="42.41436" lon="8.90602">
        <ele>1729.8</ele>
        <time>2015-06-30T07:34:40Z</time>
      </trkpt>
      <trkpt lat="42.41438" lon="8.90603">
        <ele>1728.8</ele>
        <time>2015-06-30T07:34:56Z</time>
      </trkpt>
      <trkpt lat="42.4144" lon="8.90606">
        <ele>1727.4</ele>
        <time>2015-06-30T07:35:06Z</time>
      </trkpt>
      <trkpt lat="42.41431" lon="8.90602">
        <ele>1726.4</ele>
        <time>2015-06-30T07:35:25Z</time>
      </trkpt>
      <trkpt lat="42.41434" lon="8.90603">
        <ele>1726.4</ele>
        <time>2015-06-30T07:35:27Z</time>
      </trkpt>
      <trkpt lat="42.41433" lon="8.90601">
        <ele>1726.4</ele>
        <time>2015-06-30T07:35:29Z</time>
      </trkpt>
      <trkpt lat="42.41433" lon="8.90602">
        <ele>1726.2</ele>
        <time>2015-06-30T07:35:31Z</time>
      </trkpt>
      <trkpt lat="42.41432" lon="8.90604">
        <ele>1725.4</ele>
        <time>2015-06-30T07:35:35Z</time>
      </trkpt>
      <trkpt lat="42.41435" lon="8.90603">
        <ele>1723.8</ele>
        <time>2015-06-30T07:35:43Z</time>
      </trkpt>
      <trkpt lat="42.4144" lon="8.90608">
        <ele>1722.8</ele>
        <time>2015-06-30T07:35:49Z</time>
      </trkpt>
      <trkpt lat="42.41441" lon="8.90608">
        <ele>1722.6</ele>
        <time>2015-06-30T07:35:50Z</time>
      </trkpt>
      <trkpt lat="42.41442" lon="8.90607">
        <ele>1722.4</ele>
        <time>2015-06-30T07:35:51Z</time>
      </trkpt>
      <trkpt lat="42.41438" lon="8.90598">
        <ele>1721.6</ele>
        <time>2015-06-30T07:35:56Z</time>
      </trkpt>
      <trkpt lat="42.41439" lon="8.90595">
        <ele>1721.2</ele>
        <time>2015-06-30T07:35:58Z</time>
      </trkpt>
      <trkpt lat="42.41452" lon="8.90602">
        <ele>1720.4</ele>
        <time>2015-06-30T07:36:03Z</time>
      </trkpt>
      <trkpt lat="42.41456" lon="8.90603">
        <ele>1719.2</ele>
        <time>2015-06-30T07:36:09Z</time>
      </trkpt>
      <trkpt lat="42.41448" lon="8.90593">
        <ele>1718.4</ele>
        <time>2015-06-30T07:36:14Z</time>
      </trkpt>
      <trkpt lat="42.41439" lon="8.90584">
        <ele>1718.2</ele>
        <time>2015-06-30T07:36:15Z</time>
      </trkpt>
      <trkpt lat="42.41434" lon="8.90576">
        <ele>1717.6</ele>
        <time>2015-06-30T07:36:17Z</time>
      </trkpt>
      <trkpt lat="42.41435" lon="8.90576">
        <ele>1717.4</ele>
        <time>2015-06-30T07:36:19Z</time>
      </trkpt>
      <trkpt lat="42.41434" lon="8.90579">
        <ele>1716.6</ele>
        <time>2015-06-30T07:36:22Z</time>
      </trkpt>
      <trkpt lat="42.4143" lon="8.90578">
        <ele>1715.6</ele>
        <time>2015-06-30T07:36:28Z</time>
      </trkpt>
      <trkpt lat="42.41429" lon="8.90577">
        <ele>1715.2</ele>
        <time>2015-06-30T07:36:31Z</time>
      </trkpt>
      <trkpt lat="42.41434" lon="8.90578">
        <ele>1714.8</ele>
        <time>2015-06-30T07:36:35Z</time>
      </trkpt>
      <trkpt lat="42.41433" lon="8.90578">
        <ele>1714.6</ele>
        <time>2015-06-30T07:36:37Z</time>
      </trkpt>
      <trkpt lat="42.41423" lon="8.90569">
        <ele>1713.2</ele>
        <time>2015-06-30T07:36:46Z</time>
      </trkpt>
      <trkpt lat="42.41412" lon="8.90561">
        <ele>1712</ele>
        <time>2015-06-30T07:36:53Z</time>
      </trkpt>
      <trkpt lat="42.41408" lon="8.90558">
        <ele>1712</ele>
        <time>2015-06-30T07:36:54Z</time>
      </trkpt>
      <trkpt lat="42.41382" lon="8.90535">
        <ele>1711</ele>
        <time>2015-06-30T07:37:01Z</time>
      </trkpt>
      <trkpt lat="42.41339" lon="8.90504">
        <ele>1709.4</ele>
        <time>2015-06-30T07:37:11Z</time>
      </trkpt>
      <trkpt lat="42.41316" lon="8.90488">
        <ele>1709.2</ele>
        <time>2015-06-30T07:37:16Z</time>
      </trkpt>
      <trkpt lat="42.41323" lon="8.90489">
        <ele>1708.8</ele>
        <time>2015-06-30T07:37:17Z</time>
      </trkpt>
      <trkpt lat="42.41329" lon="8.90489">
        <ele>1708.8</ele>
        <time>2015-06-30T07:37:19Z</time>
      </trkpt>
      <trkpt lat="42.41334" lon="8.9049">
        <ele>1708.6</ele>
        <time>2015-06-30T07:37:21Z</time>
      </trkpt>
      <trkpt lat="42.41333" lon="8.90486">
        <ele>1708.6</ele>
        <time>2015-06-30T07:37:23Z</time>
      </trkpt>
      <trkpt lat="42.41341" lon="8.90491">
        <ele>1708.4</ele>
        <time>2015-06-30T07:37:24Z</time>
      </trkpt>
      <trkpt lat="42.41347" lon="8.90497">
        <ele>1708</ele>
        <time>2015-06-30T07:37:27Z</time>
      </trkpt>
      <trkpt lat="42.41353" lon="8.90501">
        <ele>1707.6</ele>
        <time>2015-06-30T07:37:29Z</time>
      </trkpt>
      <trkpt lat="42.41375" lon="8.90514">
        <ele>1707.2</ele>
        <time>2015-06-30T07:37:33Z</time>
      </trkpt>
      <trkpt lat="42.41381" lon="8.90517">
        <ele>1707.2</ele>
        <time>2015-06-30T07:37:34Z</time>
      </trkpt>
      <trkpt lat="42.41383" lon="8.90518">
        <ele>1707</ele>
        <time>2015-06-30T07:37:36Z</time>
      </trkpt>
      <trkpt lat="42.41382" lon="8.90518">
        <ele>1706.6</ele>
        <time>2015-06-30T07:37:38Z</time>
      </trkpt>
      <trkpt lat="42.41382" lon="8.9052">
        <ele>1705.2</ele>
        <time>2015-06-30T07:37:58Z</time>
      </trkpt>
      <trkpt lat="42.41387" lon="8.90522">
        <ele>1705.2</ele>
        <time>2015-06-30T07:38:02Z</time>
      </trkpt>
      <trkpt lat="42.41385" lon="8.9052">
        <ele>1704.8</ele>
        <time>2015-06-30T07:38:04Z</time>
      </trkpt>
      <trkpt lat="42.41396" lon="8.90527">
        <ele>1704.6</ele>
        <time>2015-06-30T07:38:07Z</time>
      </trkpt>
      <trkpt lat="42.41398" lon="8.90525">
        <ele>1703.6</ele>
        <time>2015-06-30T07:38:14Z</time>
      </trkpt>
      <trkpt lat="42.41399" lon="8.90525">
        <ele>1703.4</ele>
        <time>2015-06-30T07:38:16Z</time>
      </trkpt>
      <trkpt lat="42.41409" lon="8.90531">
        <ele>1702.6</ele>
        <time>2015-06-30T07:38:22Z</time>
      </trkpt>
      <trkpt lat="42.41413" lon="8.90533">
        <ele>1702.6</ele>
        <time>2015-06-30T07:38:23Z</time>
      </trkpt>
      <trkpt lat="42.41426" lon="8.90541">
        <ele>1701.4</ele>
        <time>2015-06-30T07:38:28Z</time>
      </trkpt>
      <trkpt lat="42.41428" lon="8.90542">
        <ele>1701.4</ele>
        <time>2015-06-30T07:38:29Z</time>
      </trkpt>
      <trkpt lat="42.41429" lon="8.90542">
        <ele>1701.2</ele>
        <time>2015-06-30T07:38:30Z</time>
      </trkpt>
      <trkpt lat="42.41437" lon="8.90546">
        <ele>1700.4</ele>
        <time>2015-06-30T07:38:35Z</time>
      </trkpt>
      <trkpt lat="42.41446" lon="8.90553">
        <ele>1699.2</ele>
        <time>2015-06-30T07:38:41Z</time>
      </trkpt>
      <trkpt lat="42.41447" lon="8.90554">
        <ele>1698.8</ele>
        <time>2015-06-30T07:38:43Z</time>
      </trkpt>
      <trkpt lat="42.41446" lon="8.90553">
        <ele>1698.6</ele>
        <time>2015-06-30T07:38:45Z</time>
      </trkpt>
      <trkpt lat="42.41445" lon="8.90552">
        <ele>1698.2</ele>
        <time>2015-06-30T07:38:46Z</time>
      </trkpt>
      <trkpt lat="42.4144" lon="8.9055">
        <ele>1696.8</ele>
        <time>2015-06-30T07:38:53Z</time>
      </trkpt>
      <trkpt lat="42.41429" lon="8.90539">
        <ele>1696</ele>
        <time>2015-06-30T07:38:58Z</time>
      </trkpt>
      <trkpt lat="42.41429" lon="8.90539">
        <ele>1695.8</ele>
        <time>2015-06-30T07:38:59Z</time>
      </trkpt>
      <trkpt lat="42.41415" lon="8.90523">
        <ele>1695</ele>
        <time>2015-06-30T07:39:04Z</time>
      </trkpt>
      <trkpt lat="42.41413" lon="8.9052">
        <ele>1694.6</ele>
        <time>2015-06-30T07:39:05Z</time>
      </trkpt>
      <trkpt lat="42.41411" lon="8.90517">
        <ele>1694</ele>
        <time>2015-06-30T07:39:07Z</time>
      </trkpt>
      <trkpt lat="42.41417" lon="8.90518">
        <ele>1693.6</ele>
        <time>2015-06-30T07:39:11Z</time>
      </trkpt>
      <trkpt lat="42.41423" lon="8.90519">
        <ele>1693.2</ele>
        <time>2015-06-30T07:39:13Z</time>
      </trkpt>
      <trkpt lat="42.41432" lon="8.90526">
        <ele>1692.6</ele>
        <time>2015-06-30T07:39:18Z</time>
      </trkpt>
      <trkpt lat="42.41441" lon="8.90532">
        <ele>1691.2</ele>
        <time>2015-06-30T07:39:24Z</time>
      </trkpt>
      <trkpt lat="42.41448" lon="8.90538">
        <ele>1690.2</ele>
        <time>2015-06-30T07:39:30Z</time>
      </trkpt>
      <trkpt lat="42.41448" lon="8.90538">
        <ele>1690</ele>
        <time>2015-06-30T07:39:31Z</time>
      </trkpt>
      <trkpt lat="42.41449" lon="8.90539">
        <ele>1689</ele>
        <time>2015-06-30T07:39:37Z</time>
      </trkpt>
      <trkpt lat="42.41452" lon="8.90541">
        <ele>1687.8</ele>
        <time>2015-06-30T07:39:49Z</time>
      </trkpt>
      <trkpt lat="42.41451" lon="8.90538">
        <ele>1687</ele>
        <time>2015-06-30T07:39:56Z</time>
      </trkpt>
      <trkpt lat="42.41451" lon="8.90538">
        <ele>1687</ele>
        <time>2015-06-30T07:39:57Z</time>
      </trkpt>
      <trkpt lat="42.41451" lon="8.90536">
        <ele>1686.4</ele>
        <time>2015-06-30T07:40:01Z</time>
      </trkpt>
      <trkpt lat="42.41451" lon="8.90534">
        <ele>1685.4</ele>
        <time>2015-06-30T07:40:05Z</time>
      </trkpt>
      <trkpt lat="42.41453" lon="8.90531">
        <ele>1683.8</ele>
        <time>2015-06-30T07:40:13Z</time>
      </trkpt>
      <trkpt lat="42.41454" lon="8.90531">
        <ele>1683.4</ele>
        <time>2015-06-30T07:40:15Z</time>
      </trkpt>
      <trkpt lat="42.41456" lon="8.9053">
        <ele>1683.2</ele>
        <time>2015-06-30T07:40:18Z</time>
      </trkpt>
      <trkpt lat="42.41457" lon="8.9053">
        <ele>1682.2</ele>
        <time>2015-06-30T07:40:23Z</time>
      </trkpt>
      <trkpt lat="42.41462" lon="8.90534">
        <ele>1681.6</ele>
        <time>2015-06-30T07:40:27Z</time>
      </trkpt>
      <trkpt lat="42.41473" lon="8.90542">
        <ele>1679.8</ele>
        <time>2015-06-30T07:40:34Z</time>
      </trkpt>
      <trkpt lat="42.41495" lon="8.90557">
        <ele>1678</ele>
        <time>2015-06-30T07:40:48Z</time>
      </trkpt>
      <trkpt lat="42.41499" lon="8.90554">
        <ele>1677.8</ele>
        <time>2015-06-30T07:40:54Z</time>
      </trkpt>
      <trkpt lat="42.41499" lon="8.90551">
        <ele>1677.2</ele>
        <time>2015-06-30T07:40:57Z</time>
      </trkpt>
      <trkpt lat="42.41499" lon="8.9055">
        <ele>1676.8</ele>
        <time>2015-06-30T07:41:00Z</time>
      </trkpt>
      <trkpt lat="42.41497" lon="8.90549">
        <ele>1676</ele>
        <time>2015-06-30T07:41:03Z</time>
      </trkpt>
      <trkpt lat="42.41506" lon="8.90555">
        <ele>1675.6</ele>
        <time>2015-06-30T07:41:07Z</time>
      </trkpt>
      <trkpt lat="42.41508" lon="8.90556">
        <ele>1675.6</ele>
        <time>2015-06-30T07:41:08Z</time>
      </trkpt>
      <trkpt lat="42.4151" lon="8.90558">
        <ele>1675.2</ele>
        <time>2015-06-30T07:41:11Z</time>
      </trkpt>
      <trkpt lat="42.41512" lon="8.90558">
        <ele>1674.2</ele>
        <time>2015-06-30T07:41:15Z</time>
      </trkpt>
      <trkpt lat="42.41517" lon="8.9056">
        <ele>1673.6</ele>
        <time>2015-06-30T07:41:21Z</time>
      </trkpt>
      <trkpt lat="42.41517" lon="8.9056">
        <ele>1673.4</ele>
        <time>2015-06-30T07:41:22Z</time>
      </trkpt>
      <trkpt lat="42.41524" lon="8.90564">
        <ele>1673</ele>
        <time>2015-06-30T07:41:25Z</time>
      </trkpt>
      <trkpt lat="42.41529" lon="8.90566">
        <ele>1671.2</ele>
        <time>2015-06-30T07:41:32Z</time>
      </trkpt>
      <trkpt lat="42.41529" lon="8.90563">
        <ele>1670.4</ele>
        <time>2015-06-30T07:41:38Z</time>
      </trkpt>
      <trkpt lat="42.41522" lon="8.90553">
        <ele>1669.2</ele>
        <time>2015-06-30T07:41:45Z</time>
      </trkpt>
      <trkpt lat="42.41526" lon="8.90555">
        <ele>1668.8</ele>
        <time>2015-06-30T07:41:48Z</time>
      </trkpt>
      <trkpt lat="42.41526" lon="8.90554">
        <ele>1668.4</ele>
        <time>2015-06-30T07:41:50Z</time>
      </trkpt>
      <trkpt lat="42.41527" lon="8.90555">
        <ele>1668.4</ele>
        <time>2015-06-30T07:41:51Z</time>
      </trkpt>
      <trkpt lat="42.41529" lon="8.90556">
        <ele>1667.8</ele>
        <time>2015-06-30T07:41:53Z</time>
      </trkpt>
      <trkpt lat="42.41532" lon="8.90556">
        <ele>1667</ele>
        <time>2015-06-30T07:41:59Z</time>
      </trkpt>
      <trkpt lat="42.41532" lon="8.90554">
        <ele>1666.6</ele>
        <time>2015-06-30T07:42:02Z</time>
      </trkpt>
      <trkpt lat="42.41536" lon="8.90555">
        <ele>1666.2</ele>
        <time>2015-06-30T07:42:08Z</time>
      </trkpt>
      <trkpt lat="42.41507" lon="8.90527">
        <ele>1666</ele>
        <time>2015-06-30T07:42:09Z</time>
      </trkpt>
      <trkpt lat="42.41487" lon="8.90506">
        <ele>1665.2</ele>
        <time>2015-06-30T07:42:13Z</time>
      </trkpt>
      <trkpt lat="42.41464" lon="8.9048">
        <ele>1665</ele>
        <time>2015-06-30T07:42:14Z</time>
      </trkpt>
      <trkpt lat="42.41442" lon="8.90456">
        <ele>1664.6</ele>
        <time>2015-06-30T07:42:16Z</time>
      </trkpt>
      <trkpt lat="42.41454" lon="8.90467">
        <ele>1663.8</ele>
        <time>2015-06-30T07:42:19Z</time>
      </trkpt>
      <trkpt lat="42.4146" lon="8.90473">
        <ele>1663.4</ele>
        <time>2015-06-30T07:42:21Z</time>
      </trkpt>
      <trkpt lat="42.41464" lon="8.90477">
        <ele>1663.2</ele>
        <time>2015-06-30T07:42:23Z</time>
      </trkpt>
      <trkpt lat="42.41466" lon="8.9048">
        <ele>1662.8</ele>
        <time>2015-06-30T07:42:25Z</time>
      </trkpt>
      <trkpt lat="42.41476" lon="8.90491">
        <ele>1662</ele>
        <time>2015-06-30T07:42:29Z</time>
      </trkpt>
      <trkpt lat="42.41483" lon="8.90497">
        <ele>1661.6</ele>
        <time>2015-06-30T07:42:34Z</time>
      </trkpt>
      <trkpt lat="42.41427" lon="8.90438">
        <ele>1661.2</ele>
        <time>2015-06-30T07:42:38Z</time>
      </trkpt>
      <trkpt lat="42.41433" lon="8.90444">
        <ele>1660.6</ele>
        <time>2015-06-30T07:42:40Z</time>
      </trkpt>
      <trkpt lat="42.41436" lon="8.90445">
        <ele>1660.4</ele>
        <time>2015-06-30T07:42:41Z</time>
      </trkpt>
      <trkpt lat="42.41441" lon="8.90449">
        <ele>1660</ele>
        <time>2015-06-30T07:42:43Z</time>
      </trkpt>
      <trkpt lat="42.41449" lon="8.90457">
        <ele>1659.6</ele>
        <time>2015-06-30T07:42:46Z</time>
      </trkpt>
      <trkpt lat="42.41451" lon="8.9046">
        <ele>1659.4</ele>
        <time>2015-06-30T07:42:49Z</time>
      </trkpt>
      <trkpt lat="42.41459" lon="8.90469">
        <ele>1658.8</ele>
        <time>2015-06-30T07:42:54Z</time>
      </trkpt>
      <trkpt lat="42.41459" lon="8.90468">
        <ele>1658.6</ele>
        <time>2015-06-30T07:42:56Z</time>
      </trkpt>
      <trkpt lat="42.41458" lon="8.90468">
        <ele>1657.8</ele>
        <time>2015-06-30T07:43:07Z</time>
      </trkpt>
      <trkpt lat="42.41459" lon="8.90466">
        <ele>1657.4</ele>
        <time>2015-06-30T07:43:10Z</time>
      </trkpt>
      <trkpt lat="42.41464" lon="8.90469">
        <ele>1657</ele>
        <time>2015-06-30T07:43:12Z</time>
      </trkpt>
      <trkpt lat="42.41473" lon="8.90476">
        <ele>1656.6</ele>
        <time>2015-06-30T07:43:16Z</time>
      </trkpt>
      <trkpt lat="42.41478" lon="8.90478">
        <ele>1654.8</ele>
        <time>2015-06-30T07:43:22Z</time>
      </trkpt>
      <trkpt lat="42.4149" lon="8.90487">
        <ele>1654</ele>
        <time>2015-06-30T07:43:27Z</time>
      </trkpt>
      <trkpt lat="42.41498" lon="8.90493">
        <ele>1653.2</ele>
        <time>2015-06-30T07:43:33Z</time>
      </trkpt>
      <trkpt lat="42.41507" lon="8.90497">
        <ele>1652</ele>
        <time>2015-06-30T07:43:39Z</time>
      </trkpt>
      <trkpt lat="42.41497" lon="8.90484">
        <ele>1651.6</ele>
        <time>2015-06-30T07:43:41Z</time>
      </trkpt>
      <trkpt lat="42.41495" lon="8.90481">
        <ele>1651</ele>
        <time>2015-06-30T07:43:44Z</time>
      </trkpt>
      <trkpt lat="42.41495" lon="8.9048">
        <ele>1650.8</ele>
        <time>2015-06-30T07:43:45Z</time>
      </trkpt>
      <trkpt lat="42.41498" lon="8.90481">
        <ele>1650</ele>
        <time>2015-06-30T07:43:50Z</time>
      </trkpt>
      <trkpt lat="42.41502" lon="8.90482">
        <ele>1649.2</ele>
        <time>2015-06-30T07:43:54Z</time>
      </trkpt>
      <trkpt lat="42.41502" lon="8.90481">
        <ele>1649.2</ele>
        <time>2015-06-30T07:43:55Z</time>
      </trkpt>
      <trkpt lat="42.41504" lon="8.90479">
        <ele>1648.6</ele>
        <time>2015-06-30T07:43:58Z</time>
      </trkpt>
      <trkpt lat="42.4151" lon="8.90479">
        <ele>1647.2</ele>
        <time>2015-06-30T07:44:07Z</time>
      </trkpt>
      <trkpt lat="42.41516" lon="8.90481">
        <ele>1647.2</ele>
        <time>2015-06-30T07:44:16Z</time>
      </trkpt>
      <trkpt lat="42.41521" lon="8.90481">
        <ele>1647</ele>
        <time>2015-06-30T07:44:49Z</time>
      </trkpt>
      <trkpt lat="42.41527" lon="8.90483">
        <ele>1646.2</ele>
        <time>2015-06-30T07:45:00Z</time>
      </trkpt>
      <trkpt lat="42.41529" lon="8.90483">
        <ele>1645.6</ele>
        <time>2015-06-30T07:45:41Z</time>
      </trkpt>
      <trkpt lat="42.41527" lon="8.90479">
        <ele>1645.6</ele>
        <time>2015-06-30T07:46:22Z</time>
      </trkpt>
      <trkpt lat="42.41539" lon="8.90485">
        <ele>1644.8</ele>
        <time>2015-06-30T07:46:38Z</time>
      </trkpt>
      <trkpt lat="42.4154" lon="8.90485">
        <ele>1644.8</ele>
        <time>2015-06-30T07:46:40Z</time>
      </trkpt>
      <trkpt lat="42.4154" lon="8.90484">
        <ele>1644.4</ele>
        <time>2015-06-30T07:46:47Z</time>
      </trkpt>
      <trkpt lat="42.41525" lon="8.90486">
        <ele>1645.4</ele>
        <time>2015-06-30T07:47:33Z</time>
      </trkpt>
      <trkpt lat="42.41525" lon="8.90487">
        <ele>1646</ele>
        <time>2015-06-30T07:47:45Z</time>
      </trkpt>
      <trkpt lat="42.4153" lon="8.90489">
        <ele>1646</ele>
        <time>2015-06-30T07:48:34Z</time>
      </trkpt>
      <trkpt lat="42.41529" lon="8.90489">
        <ele>1646.2</ele>
        <time>2015-06-30T07:49:58Z</time>
      </trkpt>
      <trkpt lat="42.41525" lon="8.90484">
        <ele>1646</ele>
        <time>2015-06-30T07:50:40Z</time>
      </trkpt>
      <trkpt lat="42.41525" lon="8.90483">
        <ele>1646</ele>
        <time>2015-06-30T07:50:42Z</time>
      </trkpt>
      <trkpt lat="42.4149" lon="8.90447">
        <ele>1645.6</ele>
        <time>2015-06-30T07:51:26Z</time>
      </trkpt>
      <trkpt lat="42.4148" lon="8.90434">
        <ele>1645.6</ele>
        <time>2015-06-30T07:51:37Z</time>
      </trkpt>
      <trkpt lat="42.41495" lon="8.9045">
        <ele>1645.2</ele>
        <time>2015-06-30T07:51:59Z</time>
      </trkpt>
      <trkpt lat="42.415" lon="8.90456">
        <ele>1645.2</ele>
        <time>2015-06-30T07:52:04Z</time>
      </trkpt>
      <trkpt lat="42.41506" lon="8.90463">
        <ele>1645.6</ele>
        <time>2015-06-30T07:52:17Z</time>
      </trkpt>
      <trkpt lat="42.41509" lon="8.90467">
        <ele>1645.4</ele>
        <time>2015-06-30T07:52:20Z</time>
      </trkpt>
      <trkpt lat="42.41528" lon="8.90489">
        <ele>1646</ele>
        <time>2015-06-30T07:53:42Z</time>
      </trkpt>
      <trkpt lat="42.4153" lon="8.90489">
        <ele>1646</ele>
        <time>2015-06-30T07:54:05Z</time>
      </trkpt>
      <trkpt lat="42.41529" lon="8.9049">
        <ele>1645.4</ele>
        <time>2015-06-30T07:55:19Z</time>
      </trkpt>
      <trkpt lat="42.41533" lon="8.90487">
        <ele>1645.6</ele>
        <time>2015-06-30T07:56:07Z</time>
      </trkpt>
      <trkpt lat="42.41531" lon="8.90486">
        <ele>1644.6</ele>
        <time>2015-06-30T07:56:30Z</time>
      </trkpt>
      <trkpt lat="42.41514" lon="8.90451">
        <ele>1644.4</ele>
        <time>2015-06-30T07:58:03Z</time>
      </trkpt>
      <trkpt lat="42.41517" lon="8.9045">
        <ele>1644.4</ele>
        <time>2015-06-30T07:59:24Z</time>
      </trkpt>
      <trkpt lat="42.41522" lon="8.90463">
        <ele>1644.2</ele>
        <time>2015-06-30T08:00:44Z</time>
      </trkpt>
      <trkpt lat="42.41522" lon="8.90458">
        <ele>1644.2</ele>
        <time>2015-06-30T08:02:26Z</time>
      </trkpt>
      <trkpt lat="42.41534" lon="8.90479">
        <ele>1644.6</ele>
        <time>2015-06-30T08:04:17Z</time>
      </trkpt>
      <trkpt lat="42.41531" lon="8.90485">
        <ele>1645.4</ele>
        <time>2015-06-30T08:05:38Z</time>
      </trkpt>
      <trkpt lat="42.41523" lon="8.9048">
        <ele>1645.2</ele>
        <time>2015-06-30T08:06:25Z</time>
      </trkpt>
      <trkpt lat="42.41523" lon="8.90479">
        <ele>1644</ele>
        <time>2015-06-30T08:06:32Z</time>
      </trkpt>
      <trkpt lat="42.41524" lon="8.90477">
        <ele>1643.4</ele>
        <time>2015-06-30T08:06:37Z</time>
      </trkpt>
      <trkpt lat="42.41526" lon="8.90473">
        <ele>1641.8</ele>
        <time>2015-06-30T08:06:47Z</time>
      </trkpt>
      <trkpt lat="42.41529" lon="8.9047">
        <ele>1641.2</ele>
        <time>2015-06-30T08:06:53Z</time>
      </trkpt>
      <trkpt lat="42.4153" lon="8.90463">
        <ele>1639.8</ele>
        <time>2015-06-30T08:07:00Z</time>
      </trkpt>
      <trkpt lat="42.41531" lon="8.90458">
        <ele>1639</ele>
        <time>2015-06-30T08:07:06Z</time>
      </trkpt>
      <trkpt lat="42.41534" lon="8.90455">
        <ele>1638</ele>
        <time>2015-06-30T08:07:11Z</time>
      </trkpt>
      <trkpt lat="42.41536" lon="8.90452">
        <ele>1637.2</ele>
        <time>2015-06-30T08:07:15Z</time>
      </trkpt>
      <trkpt lat="42.41536" lon="8.90451">
        <ele>1636.8</ele>
        <time>2015-06-30T08:07:17Z</time>
      </trkpt>
      <trkpt lat="42.41539" lon="8.90449">
        <ele>1635.8</ele>
        <time>2015-06-30T08:07:23Z</time>
      </trkpt>
      <trkpt lat="42.41542" lon="8.90447">
        <ele>1635</ele>
        <time>2015-06-30T08:07:28Z</time>
      </trkpt>
      <trkpt lat="42.41541" lon="8.90444">
        <ele>1634</ele>
        <time>2015-06-30T08:07:33Z</time>
      </trkpt>
      <trkpt lat="42.41543" lon="8.90444">
        <ele>1632.6</ele>
        <time>2015-06-30T08:07:41Z</time>
      </trkpt>
      <trkpt lat="42.41546" lon="8.90444">
        <ele>1631.2</ele>
        <time>2015-06-30T08:07:49Z</time>
      </trkpt>
      <trkpt lat="42.41548" lon="8.90444">
        <ele>1630.6</ele>
        <time>2015-06-30T08:07:55Z</time>
      </trkpt>
      <trkpt lat="42.41552" lon="8.90444">
        <ele>1629.4</ele>
        <time>2015-06-30T08:08:01Z</time>
      </trkpt>
      <trkpt lat="42.41555" lon="8.90442">
        <ele>1628.4</ele>
        <time>2015-06-30T08:08:07Z</time>
      </trkpt>
      <trkpt lat="42.41556" lon="8.9044">
        <ele>1627.4</ele>
        <time>2015-06-30T08:08:12Z</time>
      </trkpt>
      <trkpt lat="42.41561" lon="8.90441">
        <ele>1625</ele>
        <time>2015-06-30T08:08:44Z</time>
      </trkpt>
      <trkpt lat="42.41563" lon="8.90439">
        <ele>1624.2</ele>
        <time>2015-06-30T08:08:58Z</time>
      </trkpt>
      <trkpt lat="42.41566" lon="8.90439">
        <ele>1623.4</ele>
        <time>2015-06-30T08:09:05Z</time>
      </trkpt>
      <trkpt lat="42.41568" lon="8.90434">
        <ele>1622.8</ele>
        <time>2015-06-30T08:09:11Z</time>
      </trkpt>
      <trkpt lat="42.41566" lon="8.90431">
        <ele>1621.6</ele>
        <time>2015-06-30T08:09:16Z</time>
      </trkpt>
      <trkpt lat="42.41565" lon="8.90432">
        <ele>1620</ele>
        <time>2015-06-30T08:09:25Z</time>
      </trkpt>
      <trkpt lat="42.41564" lon="8.90427">
        <ele>1619.4</ele>
        <time>2015-06-30T08:09:33Z</time>
      </trkpt>
      <trkpt lat="42.41566" lon="8.90423">
        <ele>1618.2</ele>
        <time>2015-06-30T08:09:39Z</time>
      </trkpt>
      <trkpt lat="42.4157" lon="8.90422">
        <ele>1616.6</ele>
        <time>2015-06-30T08:09:48Z</time>
      </trkpt>
      <trkpt lat="42.41575" lon="8.90421">
        <ele>1616</ele>
        <time>2015-06-30T08:09:56Z</time>
      </trkpt>
      <trkpt lat="42.41574" lon="8.90413">
        <ele>1615.2</ele>
        <time>2015-06-30T08:10:01Z</time>
      </trkpt>
      <trkpt lat="42.41575" lon="8.90408">
        <ele>1614</ele>
        <time>2015-06-30T08:10:06Z</time>
      </trkpt>
      <trkpt lat="42.41578" lon="8.90408">
        <ele>1612.8</ele>
        <time>2015-06-30T08:10:13Z</time>
      </trkpt>
      <trkpt lat="42.41583" lon="8.90408">
        <ele>1611.6</ele>
        <time>2015-06-30T08:10:21Z</time>
      </trkpt>
      <trkpt lat="42.41585" lon="8.90409">
        <ele>1610.8</ele>
        <time>2015-06-30T08:10:28Z</time>
      </trkpt>
      <trkpt lat="42.41586" lon="8.90409">
        <ele>1609.6</ele>
        <time>2015-06-30T08:10:34Z</time>
      </trkpt>
      <trkpt lat="42.41589" lon="8.90409">
        <ele>1608.6</ele>
        <time>2015-06-30T08:10:40Z</time>
      </trkpt>
      <trkpt lat="42.41589" lon="8.90409">
        <ele>1608</ele>
        <time>2015-06-30T08:10:43Z</time>
      </trkpt>
      <trkpt lat="42.41589" lon="8.90408">
        <ele>1607.8</ele>
        <time>2015-06-30T08:10:45Z</time>
      </trkpt>
      <trkpt lat="42.4159" lon="8.90406">
        <ele>1606.4</ele>
        <time>2015-06-30T08:10:51Z</time>
      </trkpt>
      <trkpt lat="42.4159" lon="8.90403">
        <ele>1605.2</ele>
        <time>2015-06-30T08:10:57Z</time>
      </trkpt>
      <trkpt lat="42.41591" lon="8.904">
        <ele>1604.2</ele>
        <time>2015-06-30T08:11:03Z</time>
      </trkpt>
      <trkpt lat="42.4159" lon="8.90396">
        <ele>1603</ele>
        <time>2015-06-30T08:11:11Z</time>
      </trkpt>
      <trkpt lat="42.41586" lon="8.90394">
        <ele>1602.2</ele>
        <time>2015-06-30T08:11:16Z</time>
      </trkpt>
      <trkpt lat="42.41584" lon="8.90394">
        <ele>1600.8</ele>
        <time>2015-06-30T08:11:25Z</time>
      </trkpt>
      <trkpt lat="42.41582" lon="8.90392">
        <ele>1599.8</ele>
        <time>2015-06-30T08:11:32Z</time>
      </trkpt>
      <trkpt lat="42.4158" lon="8.90389">
        <ele>1598.4</ele>
        <time>2015-06-30T08:11:40Z</time>
      </trkpt>
      <trkpt lat="42.41574" lon="8.90384">
        <ele>1596.8</ele>
        <time>2015-06-30T08:11:52Z</time>
      </trkpt>
      <trkpt lat="42.41568" lon="8.90372">
        <ele>1595.8</ele>
        <time>2015-06-30T08:12:10Z</time>
      </trkpt>
      <trkpt lat="42.4157" lon="8.90328">
        <ele>1596.2</ele>
        <time>2015-06-30T08:12:57Z</time>
      </trkpt>
      <trkpt lat="42.41573" lon="8.90304">
        <ele>1596.6</ele>
        <time>2015-06-30T08:13:20Z</time>
      </trkpt>
      <trkpt lat="42.41571" lon="8.90285">
        <ele>1597</ele>
        <time>2015-06-30T08:13:43Z</time>
      </trkpt>
      <trkpt lat="42.41571" lon="8.90281">
        <ele>1598.4</ele>
        <time>2015-06-30T08:13:52Z</time>
      </trkpt>
      <trkpt lat="42.41571" lon="8.90274">
        <ele>1599.2</ele>
        <time>2015-06-30T08:14:01Z</time>
      </trkpt>
      <trkpt lat="42.41572" lon="8.90264">
        <ele>1601</ele>
        <time>2015-06-30T08:14:16Z</time>
      </trkpt>
      <trkpt lat="42.41571" lon="8.9026">
        <ele>1601.2</ele>
        <time>2015-06-30T08:14:20Z</time>
      </trkpt>
      <trkpt lat="42.41572" lon="8.9025">
        <ele>1601.8</ele>
        <time>2015-06-30T08:14:33Z</time>
      </trkpt>
      <trkpt lat="42.41572" lon="8.90246">
        <ele>1602.8</ele>
        <time>2015-06-30T08:14:40Z</time>
      </trkpt>
      <trkpt lat="42.41584" lon="8.90225">
        <ele>1603.2</ele>
        <time>2015-06-30T08:15:05Z</time>
      </trkpt>
      <trkpt lat="42.41593" lon="8.90171">
        <ele>1603</ele>
        <time>2015-06-30T08:16:03Z</time>
      </trkpt>
      <trkpt lat="42.41596" lon="8.90169">
        <ele>1602.8</ele>
        <time>2015-06-30T08:16:09Z</time>
      </trkpt>
      <trkpt lat="42.41599" lon="8.90168">
        <ele>1602</ele>
        <time>2015-06-30T08:16:14Z</time>
      </trkpt>
      <trkpt lat="42.41602" lon="8.90166">
        <ele>1601.2</ele>
        <time>2015-06-30T08:16:18Z</time>
      </trkpt>
      <trkpt lat="42.41605" lon="8.90163">
        <ele>1599.6</ele>
        <time>2015-06-30T08:16:24Z</time>
      </trkpt>
      <trkpt lat="42.41608" lon="8.9016">
        <ele>1598.4</ele>
        <time>2015-06-30T08:16:31Z</time>
      </trkpt>
      <trkpt lat="42.41611" lon="8.90157">
        <ele>1597.4</ele>
        <time>2015-06-30T08:16:37Z</time>
      </trkpt>
      <trkpt lat="42.41613" lon="8.90156">
        <ele>1596.6</ele>
        <time>2015-06-30T08:16:42Z</time>
      </trkpt>
      <trkpt lat="42.41615" lon="8.90157">
        <ele>1595.8</ele>
        <time>2015-06-30T08:16:46Z</time>
      </trkpt>
      <trkpt lat="42.41617" lon="8.9016">
        <ele>1594.2</ele>
        <time>2015-06-30T08:16:52Z</time>
      </trkpt>
      <trkpt lat="42.41617" lon="8.90162">
        <ele>1593.4</ele>
        <time>2015-06-30T08:16:57Z</time>
      </trkpt>
      <trkpt lat="42.41617" lon="8.90164">
        <ele>1592.4</ele>
        <time>2015-06-30T08:17:01Z</time>
      </trkpt>
      <trkpt lat="42.41622" lon="8.90164">
        <ele>1590.8</ele>
        <time>2015-06-30T08:17:08Z</time>
      </trkpt>
      <trkpt lat="42.41624" lon="8.90162">
        <ele>1589.6</ele>
        <time>2015-06-30T08:17:14Z</time>
      </trkpt>
      <trkpt lat="42.41626" lon="8.90161">
        <ele>1588.6</ele>
        <time>2015-06-30T08:17:20Z</time>
      </trkpt>
      <trkpt lat="42.41631" lon="8.90158">
        <ele>1587.2</ele>
        <time>2015-06-30T08:17:27Z</time>
      </trkpt>
      <trkpt lat="42.41633" lon="8.90155">
        <ele>1586.6</ele>
        <time>2015-06-30T08:17:32Z</time>
      </trkpt>
      <trkpt lat="42.41637" lon="8.90151">
        <ele>1585</ele>
        <time>2015-06-30T08:17:39Z</time>
      </trkpt>
      <trkpt lat="42.41639" lon="8.90141">
        <ele>1583.8</ele>
        <time>2015-06-30T08:17:48Z</time>
      </trkpt>
      <trkpt lat="42.41641" lon="8.90137">
        <ele>1583.2</ele>
        <time>2015-06-30T08:17:54Z</time>
      </trkpt>
      <trkpt lat="42.41644" lon="8.9013">
        <ele>1581.6</ele>
        <time>2015-06-30T08:18:02Z</time>
      </trkpt>
      <trkpt lat="42.41663" lon="8.90121">
        <ele>1580.8</ele>
        <time>2015-06-30T08:18:44Z</time>
      </trkpt>
      <trkpt lat="42.41666" lon="8.90121">
        <ele>1580</ele>
        <time>2015-06-30T08:18:50Z</time>
      </trkpt>
      <trkpt lat="42.41669" lon="8.90121">
        <ele>1578.8</ele>
        <time>2015-06-30T08:18:57Z</time>
      </trkpt>
      <trkpt lat="42.41671" lon="8.9012">
        <ele>1577.8</ele>
        <time>2015-06-30T08:19:05Z</time>
      </trkpt>
      <trkpt lat="42.41673" lon="8.90121">
        <ele>1576.6</ele>
        <time>2015-06-30T08:19:14Z</time>
      </trkpt>
      <trkpt lat="42.41674" lon="8.90124">
        <ele>1575.8</ele>
        <time>2015-06-30T08:19:23Z</time>
      </trkpt>
      <trkpt lat="42.41677" lon="8.90125">
        <ele>1575.4</ele>
        <time>2015-06-30T08:19:27Z</time>
      </trkpt>
      <trkpt lat="42.41681" lon="8.90126">
        <ele>1574</ele>
        <time>2015-06-30T08:19:32Z</time>
      </trkpt>
      <trkpt lat="42.41686" lon="8.90126">
        <ele>1572.4</ele>
        <time>2015-06-30T08:19:41Z</time>
      </trkpt>
      <trkpt lat="42.41687" lon="8.90129">
        <ele>1571.6</ele>
        <time>2015-06-30T08:19:49Z</time>
      </trkpt>
      <trkpt lat="42.4169" lon="8.90133">
        <ele>1571</ele>
        <time>2015-06-30T08:19:54Z</time>
      </trkpt>
      <trkpt lat="42.41692" lon="8.90133">
        <ele>1569</ele>
        <time>2015-06-30T08:20:02Z</time>
      </trkpt>
      <trkpt lat="42.41696" lon="8.90132">
        <ele>1568</ele>
        <time>2015-06-30T08:20:09Z</time>
      </trkpt>
      <trkpt lat="42.41701" lon="8.90131">
        <ele>1567</ele>
        <time>2015-06-30T08:20:15Z</time>
      </trkpt>
      <trkpt lat="42.41704" lon="8.90131">
        <ele>1566</ele>
        <time>2015-06-30T08:20:21Z</time>
      </trkpt>
      <trkpt lat="42.41707" lon="8.90132">
        <ele>1564.8</ele>
        <time>2015-06-30T08:20:27Z</time>
      </trkpt>
      <trkpt lat="42.4171" lon="8.90132">
        <ele>1563.6</ele>
        <time>2015-06-30T08:20:35Z</time>
      </trkpt>
      <trkpt lat="42.41713" lon="8.90132">
        <ele>1562.6</ele>
        <time>2015-06-30T08:20:43Z</time>
      </trkpt>
      <trkpt lat="42.41715" lon="8.90131">
        <ele>1562</ele>
        <time>2015-06-30T08:20:48Z</time>
      </trkpt>
      <trkpt lat="42.41719" lon="8.90129">
        <ele>1560.4</ele>
        <time>2015-06-30T08:20:56Z</time>
      </trkpt>
      <trkpt lat="42.41719" lon="8.90128">
        <ele>1559.6</ele>
        <time>2015-06-30T08:21:01Z</time>
      </trkpt>
      <trkpt lat="42.4172" lon="8.90129">
        <ele>1558.4</ele>
        <time>2015-06-30T08:21:07Z</time>
      </trkpt>
      <trkpt lat="42.41722" lon="8.90129">
        <ele>1557.4</ele>
        <time>2015-06-30T08:21:13Z</time>
      </trkpt>
      <trkpt lat="42.41723" lon="8.90129">
        <ele>1556.8</ele>
        <time>2015-06-30T08:21:17Z</time>
      </trkpt>
      <trkpt lat="42.41724" lon="8.9013">
        <ele>1554.8</ele>
        <time>2015-06-30T08:21:26Z</time>
      </trkpt>
      <trkpt lat="42.41726" lon="8.90134">
        <ele>1554</ele>
        <time>2015-06-30T08:21:32Z</time>
      </trkpt>
      <trkpt lat="42.41727" lon="8.90137">
        <ele>1553.2</ele>
        <time>2015-06-30T08:21:37Z</time>
      </trkpt>
      <trkpt lat="42.41728" lon="8.90139">
        <ele>1551.6</ele>
        <time>2015-06-30T08:21:44Z</time>
      </trkpt>
      <trkpt lat="42.41728" lon="8.90141">
        <ele>1550.4</ele>
        <time>2015-06-30T08:21:51Z</time>
      </trkpt>
      <trkpt lat="42.41731" lon="8.90142">
        <ele>1549.4</ele>
        <time>2015-06-30T08:21:58Z</time>
      </trkpt>
      <trkpt lat="42.41733" lon="8.90144">
        <ele>1548.8</ele>
        <time>2015-06-30T08:22:03Z</time>
      </trkpt>
      <trkpt lat="42.41735" lon="8.90145">
        <ele>1547.2</ele>
        <time>2015-06-30T08:22:10Z</time>
      </trkpt>
      <trkpt lat="42.41738" lon="8.90145">
        <ele>1545.8</ele>
        <time>2015-06-30T08:22:19Z</time>
      </trkpt>
      <trkpt lat="42.41739" lon="8.90146">
        <ele>1545.2</ele>
        <time>2015-06-30T08:22:24Z</time>
      </trkpt>
      <trkpt lat="42.41745" lon="8.9015">
        <ele>1543.4</ele>
        <time>2015-06-30T08:22:53Z</time>
      </trkpt>
      <trkpt lat="42.41746" lon="8.90155">
        <ele>1542.4</ele>
        <time>2015-06-30T08:23:02Z</time>
      </trkpt>
      <trkpt lat="42.41748" lon="8.90159">
        <ele>1541.6</ele>
        <time>2015-06-30T08:23:08Z</time>
      </trkpt>
      <trkpt lat="42.41748" lon="8.90161">
        <ele>1540.6</ele>
        <time>2015-06-30T08:23:12Z</time>
      </trkpt>
      <trkpt lat="42.4175" lon="8.90161">
        <ele>1539.2</ele>
        <time>2015-06-30T08:23:18Z</time>
      </trkpt>
      <trkpt lat="42.41752" lon="8.90164">
        <ele>1538.2</ele>
        <time>2015-06-30T08:23:24Z</time>
      </trkpt>
      <trkpt lat="42.41752" lon="8.90165">
        <ele>1537.2</ele>
        <time>2015-06-30T08:23:29Z</time>
      </trkpt>
      <trkpt lat="42.41756" lon="8.90166">
        <ele>1535.6</ele>
        <time>2015-06-30T08:23:35Z</time>
      </trkpt>
      <trkpt lat="42.41754" lon="8.9017">
        <ele>1534.4</ele>
        <time>2015-06-30T08:23:41Z</time>
      </trkpt>
      <trkpt lat="42.41757" lon="8.90176">
        <ele>1533</ele>
        <time>2015-06-30T08:23:48Z</time>
      </trkpt>
      <trkpt lat="42.4176" lon="8.90179">
        <ele>1531.8</ele>
        <time>2015-06-30T08:23:55Z</time>
      </trkpt>
      <trkpt lat="42.41763" lon="8.90181">
        <ele>1530.4</ele>
        <time>2015-06-30T08:24:04Z</time>
      </trkpt>
      <trkpt lat="42.41763" lon="8.90185">
        <ele>1529</ele>
        <time>2015-06-30T08:24:14Z</time>
      </trkpt>
      <trkpt lat="42.41765" lon="8.90188">
        <ele>1528.4</ele>
        <time>2015-06-30T08:24:20Z</time>
      </trkpt>
      <trkpt lat="42.41767" lon="8.90191">
        <ele>1526.8</ele>
        <time>2015-06-30T08:24:29Z</time>
      </trkpt>
      <trkpt lat="42.41768" lon="8.90195">
        <ele>1525.6</ele>
        <time>2015-06-30T08:24:36Z</time>
      </trkpt>
      <trkpt lat="42.4177" lon="8.90196">
        <ele>1524.8</ele>
        <time>2015-06-30T08:24:41Z</time>
      </trkpt>
      <trkpt lat="42.41771" lon="8.90199">
        <ele>1523.6</ele>
        <time>2015-06-30T08:24:46Z</time>
      </trkpt>
      <trkpt lat="42.41773" lon="8.90197">
        <ele>1522.2</ele>
        <time>2015-06-30T08:24:52Z</time>
      </trkpt>
      <trkpt lat="42.41775" lon="8.90199">
        <ele>1521</ele>
        <time>2015-06-30T08:24:59Z</time>
      </trkpt>
      <trkpt lat="42.41776" lon="8.90202">
        <ele>1519.4</ele>
        <time>2015-06-30T08:25:06Z</time>
      </trkpt>
      <trkpt lat="42.41778" lon="8.90205">
        <ele>1518.4</ele>
        <time>2015-06-30T08:25:13Z</time>
      </trkpt>
      <trkpt lat="42.41779" lon="8.90212">
        <ele>1517</ele>
        <time>2015-06-30T08:25:23Z</time>
      </trkpt>
      <trkpt lat="42.41779" lon="8.90215">
        <ele>1516.6</ele>
        <time>2015-06-30T08:25:27Z</time>
      </trkpt>
      <trkpt lat="42.41779" lon="8.90219">
        <ele>1514.4</ele>
        <time>2015-06-30T08:25:34Z</time>
      </trkpt>
      <trkpt lat="42.41779" lon="8.9022">
        <ele>1513.4</ele>
        <time>2015-06-30T08:25:40Z</time>
      </trkpt>
      <trkpt lat="42.41782" lon="8.9022">
        <ele>1511.8</ele>
        <time>2015-06-30T08:25:49Z</time>
      </trkpt>
      <trkpt lat="42.41783" lon="8.90223">
        <ele>1511</ele>
        <time>2015-06-30T08:25:55Z</time>
      </trkpt>
      <trkpt lat="42.41786" lon="8.90227">
        <ele>1509.6</ele>
        <time>2015-06-30T08:26:02Z</time>
      </trkpt>
      <trkpt lat="42.41787" lon="8.90234">
        <ele>1508.4</ele>
        <time>2015-06-30T08:26:10Z</time>
      </trkpt>
      <trkpt lat="42.41783" lon="8.90237">
        <ele>1506.4</ele>
        <time>2015-06-30T08:26:20Z</time>
      </trkpt>
      <trkpt lat="42.41774" lon="8.90245">
        <ele>1505.6</ele>
        <time>2015-06-30T08:26:27Z</time>
      </trkpt>
      <trkpt lat="42.41761" lon="8.90248">
        <ele>1503.8</ele>
        <time>2015-06-30T08:26:40Z</time>
      </trkpt>
      <trkpt lat="42.41758" lon="8.90251">
        <ele>1503.6</ele>
        <time>2015-06-30T08:26:45Z</time>
      </trkpt>
      <trkpt lat="42.41754" lon="8.90257">
        <ele>1502.6</ele>
        <time>2015-06-30T08:27:06Z</time>
      </trkpt>
      <trkpt lat="42.41752" lon="8.90262">
        <ele>1502.4</ele>
        <time>2015-06-30T08:27:09Z</time>
      </trkpt>
      <trkpt lat="42.41752" lon="8.90264">
        <ele>1502.2</ele>
        <time>2015-06-30T08:27:10Z</time>
      </trkpt>
      <trkpt lat="42.41752" lon="8.90265">
        <ele>1501</ele>
        <time>2015-06-30T08:27:15Z</time>
      </trkpt>
      <trkpt lat="42.41756" lon="8.90264">
        <ele>1499.4</ele>
        <time>2015-06-30T08:27:22Z</time>
      </trkpt>
      <trkpt lat="42.41757" lon="8.90265">
        <ele>1498.4</ele>
        <time>2015-06-30T08:27:27Z</time>
      </trkpt>
      <trkpt lat="42.41761" lon="8.90263">
        <ele>1497</ele>
        <time>2015-06-30T08:27:35Z</time>
      </trkpt>
      <trkpt lat="42.41762" lon="8.90264">
        <ele>1496.6</ele>
        <time>2015-06-30T08:27:38Z</time>
      </trkpt>
      <trkpt lat="42.41763" lon="8.90265">
        <ele>1496.2</ele>
        <time>2015-06-30T08:27:40Z</time>
      </trkpt>
      <trkpt lat="42.41768" lon="8.90267">
        <ele>1494.8</ele>
        <time>2015-06-30T08:27:46Z</time>
      </trkpt>
      <trkpt lat="42.41769" lon="8.90269">
        <ele>1494</ele>
        <time>2015-06-30T08:27:49Z</time>
      </trkpt>
      <trkpt lat="42.41769" lon="8.90269">
        <ele>1493.4</ele>
        <time>2015-06-30T08:27:52Z</time>
      </trkpt>
      <trkpt lat="42.4177" lon="8.90269">
        <ele>1493.4</ele>
        <time>2015-06-30T08:27:53Z</time>
      </trkpt>
      <trkpt lat="42.41772" lon="8.90273">
        <ele>1492.4</ele>
        <time>2015-06-30T08:27:58Z</time>
      </trkpt>
      <trkpt lat="42.41772" lon="8.90275">
        <ele>1492.2</ele>
        <time>2015-06-30T08:28:00Z</time>
      </trkpt>
      <trkpt lat="42.41773" lon="8.90278">
        <ele>1491</ele>
        <time>2015-06-30T08:28:07Z</time>
      </trkpt>
      <trkpt lat="42.41777" lon="8.90277">
        <ele>1489.8</ele>
        <time>2015-06-30T08:28:13Z</time>
      </trkpt>
      <trkpt lat="42.41778" lon="8.90277">
        <ele>1489.6</ele>
        <time>2015-06-30T08:28:14Z</time>
      </trkpt>
      <trkpt lat="42.41778" lon="8.90278">
        <ele>1489.4</ele>
        <time>2015-06-30T08:28:15Z</time>
      </trkpt>
      <trkpt lat="42.41781" lon="8.9028">
        <ele>1488.8</ele>
        <time>2015-06-30T08:28:19Z</time>
      </trkpt>
      <trkpt lat="42.41782" lon="8.90281">
        <ele>1488.6</ele>
        <time>2015-06-30T08:28:20Z</time>
      </trkpt>
      <trkpt lat="42.41784" lon="8.90281">
        <ele>1488</ele>
        <time>2015-06-30T08:28:23Z</time>
      </trkpt>
      <trkpt lat="42.41785" lon="8.90282">
        <ele>1487.6</ele>
        <time>2015-06-30T08:28:25Z</time>
      </trkpt>
      <trkpt lat="42.41787" lon="8.90285">
        <ele>1486.6</ele>
        <time>2015-06-30T08:28:30Z</time>
      </trkpt>
      <trkpt lat="42.41789" lon="8.90289">
        <ele>1485</ele>
        <time>2015-06-30T08:28:37Z</time>
      </trkpt>
      <trkpt lat="42.4179" lon="8.90292">
        <ele>1484.4</ele>
        <time>2015-06-30T08:28:42Z</time>
      </trkpt>
      <trkpt lat="42.41793" lon="8.90299">
        <ele>1482.8</ele>
        <time>2015-06-30T08:28:48Z</time>
      </trkpt>
      <trkpt lat="42.41795" lon="8.90303">
        <ele>1481.6</ele>
        <time>2015-06-30T08:28:54Z</time>
      </trkpt>
      <trkpt lat="42.41798" lon="8.90305">
        <ele>1480.8</ele>
        <time>2015-06-30T08:28:59Z</time>
      </trkpt>
      <trkpt lat="42.418" lon="8.90307">
        <ele>1479.6</ele>
        <time>2015-06-30T08:29:04Z</time>
      </trkpt>
      <trkpt lat="42.41806" lon="8.90309">
        <ele>1478</ele>
        <time>2015-06-30T08:29:12Z</time>
      </trkpt>
      <trkpt lat="42.41809" lon="8.9031">
        <ele>1477.2</ele>
        <time>2015-06-30T08:29:17Z</time>
      </trkpt>
      <trkpt lat="42.41815" lon="8.90309">
        <ele>1475.6</ele>
        <time>2015-06-30T08:29:23Z</time>
      </trkpt>
      <trkpt lat="42.41816" lon="8.90311">
        <ele>1474.4</ele>
        <time>2015-06-30T08:29:29Z</time>
      </trkpt>
      <trkpt lat="42.41818" lon="8.90316">
        <ele>1473</ele>
        <time>2015-06-30T08:29:35Z</time>
      </trkpt>
      <trkpt lat="42.4182" lon="8.90318">
        <ele>1471.8</ele>
        <time>2015-06-30T08:29:42Z</time>
      </trkpt>
      <trkpt lat="42.4182" lon="8.90321">
        <ele>1470.8</ele>
        <time>2015-06-30T08:29:47Z</time>
      </trkpt>
      <trkpt lat="42.41823" lon="8.9032">
        <ele>1469.2</ele>
        <time>2015-06-30T08:29:54Z</time>
      </trkpt>
      <trkpt lat="42.41827" lon="8.90319">
        <ele>1468.2</ele>
        <time>2015-06-30T08:30:00Z</time>
      </trkpt>
      <trkpt lat="42.41829" lon="8.90315">
        <ele>1467.4</ele>
        <time>2015-06-30T08:30:04Z</time>
      </trkpt>
      <trkpt lat="42.41831" lon="8.90312">
        <ele>1466.6</ele>
        <time>2015-06-30T08:30:07Z</time>
      </trkpt>
      <trkpt lat="42.41834" lon="8.9031">
        <ele>1466.2</ele>
        <time>2015-06-30T08:30:10Z</time>
      </trkpt>
      <trkpt lat="42.41838" lon="8.90308">
        <ele>1465.4</ele>
        <time>2015-06-30T08:30:14Z</time>
      </trkpt>
      <trkpt lat="42.41847" lon="8.90305">
        <ele>1463.8</ele>
        <time>2015-06-30T08:30:23Z</time>
      </trkpt>
      <trkpt lat="42.41853" lon="8.90303">
        <ele>1463.2</ele>
        <time>2015-06-30T08:30:29Z</time>
      </trkpt>
      <trkpt lat="42.41854" lon="8.90303">
        <ele>1463</ele>
        <time>2015-06-30T08:30:30Z</time>
      </trkpt>
      <trkpt lat="42.41858" lon="8.90301">
        <ele>1461.8</ele>
        <time>2015-06-30T08:30:35Z</time>
      </trkpt>
      <trkpt lat="42.41859" lon="8.90301">
        <ele>1461.8</ele>
        <time>2015-06-30T08:30:36Z</time>
      </trkpt>
      <trkpt lat="42.41861" lon="8.90301">
        <ele>1461.2</ele>
        <time>2015-06-30T08:30:39Z</time>
      </trkpt>
      <trkpt lat="42.41864" lon="8.90301">
        <ele>1460.6</ele>
        <time>2015-06-30T08:30:44Z</time>
      </trkpt>
      <trkpt lat="42.41867" lon="8.90301">
        <ele>1459.6</ele>
        <time>2015-06-30T08:30:50Z</time>
      </trkpt>
      <trkpt lat="42.41871" lon="8.90294">
        <ele>1458</ele>
        <time>2015-06-30T08:31:05Z</time>
      </trkpt>
      <trkpt lat="42.41871" lon="8.90292">
        <ele>1457.6</ele>
        <time>2015-06-30T08:31:10Z</time>
      </trkpt>
      <trkpt lat="42.41872" lon="8.90296">
        <ele>1456</ele>
        <time>2015-06-30T08:31:22Z</time>
      </trkpt>
      <trkpt lat="42.41871" lon="8.90301">
        <ele>1455.2</ele>
        <time>2015-06-30T08:31:30Z</time>
      </trkpt>
      <trkpt lat="42.41872" lon="8.90306">
        <ele>1454.2</ele>
        <time>2015-06-30T08:31:37Z</time>
      </trkpt>
      <trkpt lat="42.41873" lon="8.90307">
        <ele>1453.4</ele>
        <time>2015-06-30T08:31:44Z</time>
      </trkpt>
      <trkpt lat="42.41876" lon="8.90307">
        <ele>1452.2</ele>
        <time>2015-06-30T08:31:51Z</time>
      </trkpt>
      <trkpt lat="42.41881" lon="8.90309">
        <ele>1450.8</ele>
        <time>2015-06-30T08:31:59Z</time>
      </trkpt>
      <trkpt lat="42.41884" lon="8.90309">
        <ele>1450.2</ele>
        <time>2015-06-30T08:32:05Z</time>
      </trkpt>
      <trkpt lat="42.41886" lon="8.90309">
        <ele>1449</ele>
        <time>2015-06-30T08:32:13Z</time>
      </trkpt>
      <trkpt lat="42.41894" lon="8.90312">
        <ele>1447.6</ele>
        <time>2015-06-30T08:32:44Z</time>
      </trkpt>
      <trkpt lat="42.41905" lon="8.90317">
        <ele>1447</ele>
        <time>2015-06-30T08:32:53Z</time>
      </trkpt>
      <trkpt lat="42.41911" lon="8.9032">
        <ele>1446.6</ele>
        <time>2015-06-30T08:32:59Z</time>
      </trkpt>
      <trkpt lat="42.41906" lon="8.90318">
        <ele>1446.6</ele>
        <time>2015-06-30T08:33:00Z</time>
      </trkpt>
      <trkpt lat="42.41903" lon="8.90315">
        <ele>1446.4</ele>
        <time>2015-06-30T08:33:02Z</time>
      </trkpt>
      <trkpt lat="42.41902" lon="8.90314">
        <ele>1446.4</ele>
        <time>2015-06-30T08:33:04Z</time>
      </trkpt>
      <trkpt lat="42.41895" lon="8.9031">
        <ele>1445.4</ele>
        <time>2015-06-30T08:33:13Z</time>
      </trkpt>
      <trkpt lat="42.41893" lon="8.90308">
        <ele>1445</ele>
        <time>2015-06-30T08:33:16Z</time>
      </trkpt>
      <trkpt lat="42.41893" lon="8.90305">
        <ele>1444.4</ele>
        <time>2015-06-30T08:33:23Z</time>
      </trkpt>
      <trkpt lat="42.41893" lon="8.90302">
        <ele>1443.4</ele>
        <time>2015-06-30T08:33:30Z</time>
      </trkpt>
      <trkpt lat="42.41894" lon="8.90301">
        <ele>1442.6</ele>
        <time>2015-06-30T08:33:35Z</time>
      </trkpt>
      <trkpt lat="42.41896" lon="8.90298">
        <ele>1441</ele>
        <time>2015-06-30T08:33:43Z</time>
      </trkpt>
      <trkpt lat="42.41898" lon="8.90297">
        <ele>1440.6</ele>
        <time>2015-06-30T08:33:48Z</time>
      </trkpt>
      <trkpt lat="42.419" lon="8.90296">
        <ele>1439.8</ele>
        <time>2015-06-30T08:33:52Z</time>
      </trkpt>
      <trkpt lat="42.41906" lon="8.90292">
        <ele>1437.8</ele>
        <time>2015-06-30T08:34:16Z</time>
      </trkpt>
      <trkpt lat="42.41911" lon="8.90291">
        <ele>1437.2</ele>
        <time>2015-06-30T08:34:22Z</time>
      </trkpt>
      <trkpt lat="42.41911" lon="8.90289">
        <ele>1436</ele>
        <time>2015-06-30T08:34:29Z</time>
      </trkpt>
      <trkpt lat="42.41916" lon="8.9029">
        <ele>1434.8</ele>
        <time>2015-06-30T08:34:42Z</time>
      </trkpt>
      <trkpt lat="42.4192" lon="8.90291">
        <ele>1434.4</ele>
        <time>2015-06-30T08:34:46Z</time>
      </trkpt>
      <trkpt lat="42.41924" lon="8.9029">
        <ele>1433.8</ele>
        <time>2015-06-30T08:34:49Z</time>
      </trkpt>
      <trkpt lat="42.41958" lon="8.90308">
        <ele>1432.6</ele>
        <time>2015-06-30T08:34:54Z</time>
      </trkpt>
      <trkpt lat="42.4199" lon="8.90321">
        <ele>1432</ele>
        <time>2015-06-30T08:34:59Z</time>
      </trkpt>
      <trkpt lat="42.42018" lon="8.90319">
        <ele>1430.8</ele>
        <time>2015-06-30T08:35:04Z</time>
      </trkpt>
      <trkpt lat="42.42047" lon="8.90307">
        <ele>1429.6</ele>
        <time>2015-06-30T08:35:11Z</time>
      </trkpt>
      <trkpt lat="42.42064" lon="8.90305">
        <ele>1428.8</ele>
        <time>2015-06-30T08:35:14Z</time>
      </trkpt>
      <trkpt lat="42.42076" lon="8.90301">
        <ele>1428.2</ele>
        <time>2015-06-30T08:35:18Z</time>
      </trkpt>
      <trkpt lat="42.42085" lon="8.90297">
        <ele>1426.2</ele>
        <time>2015-06-30T08:35:25Z</time>
      </trkpt>
      <trkpt lat="42.42087" lon="8.90293">
        <ele>1425.8</ele>
        <time>2015-06-30T08:35:29Z</time>
      </trkpt>
      <trkpt lat="42.42088" lon="8.90292">
        <ele>1425.2</ele>
        <time>2015-06-30T08:35:31Z</time>
      </trkpt>
      <trkpt lat="42.4209" lon="8.90291">
        <ele>1424.6</ele>
        <time>2015-06-30T08:35:33Z</time>
      </trkpt>
      <trkpt lat="42.42097" lon="8.9029">
        <ele>1424</ele>
        <time>2015-06-30T08:35:38Z</time>
      </trkpt>
      <trkpt lat="42.42103" lon="8.90289">
        <ele>1423.6</ele>
        <time>2015-06-30T08:35:45Z</time>
      </trkpt>
      <trkpt lat="42.42107" lon="8.9029">
        <ele>1423.4</ele>
        <time>2015-06-30T08:35:49Z</time>
      </trkpt>
      <trkpt lat="42.42108" lon="8.9029">
        <ele>1423.4</ele>
        <time>2015-06-30T08:35:50Z</time>
      </trkpt>
      <trkpt lat="42.41999" lon="8.90257">
        <ele>1422.6</ele>
        <time>2015-06-30T08:35:55Z</time>
      </trkpt>
      <trkpt lat="42.41965" lon="8.9025">
        <ele>1422</ele>
        <time>2015-06-30T08:35:57Z</time>
      </trkpt>
      <trkpt lat="42.41957" lon="8.90255">
        <ele>1421.6</ele>
        <time>2015-06-30T08:35:59Z</time>
      </trkpt>
      <trkpt lat="42.41944" lon="8.90255">
        <ele>1421.2</ele>
        <time>2015-06-30T08:36:01Z</time>
      </trkpt>
      <trkpt lat="42.41936" lon="8.90258">
        <ele>1420.8</ele>
        <time>2015-06-30T08:36:03Z</time>
      </trkpt>
      <trkpt lat="42.41936" lon="8.90257">
        <ele>1420.6</ele>
        <time>2015-06-30T08:36:05Z</time>
      </trkpt>
      <trkpt lat="42.41936" lon="8.90254">
        <ele>1420</ele>
        <time>2015-06-30T08:36:21Z</time>
      </trkpt>
      <trkpt lat="42.4194" lon="8.90245">
        <ele>1418.8</ele>
        <time>2015-06-30T08:36:37Z</time>
      </trkpt>
      <trkpt lat="42.41943" lon="8.9024">
        <ele>1418.4</ele>
        <time>2015-06-30T08:36:41Z</time>
      </trkpt>
      <trkpt lat="42.41948" lon="8.90232">
        <ele>1417.6</ele>
        <time>2015-06-30T08:36:48Z</time>
      </trkpt>
      <trkpt lat="42.41949" lon="8.90232">
        <ele>1417.4</ele>
        <time>2015-06-30T08:36:51Z</time>
      </trkpt>
      <trkpt lat="42.41947" lon="8.90227">
        <ele>1416.4</ele>
        <time>2015-06-30T08:37:00Z</time>
      </trkpt>
      <trkpt lat="42.41946" lon="8.90222">
        <ele>1414.8</ele>
        <time>2015-06-30T08:37:12Z</time>
      </trkpt>
      <trkpt lat="42.41948" lon="8.90227">
        <ele>1414.4</ele>
        <time>2015-06-30T08:37:18Z</time>
      </trkpt>
      <trkpt lat="42.41948" lon="8.90228">
        <ele>1414.2</ele>
        <time>2015-06-30T08:37:20Z</time>
      </trkpt>
      <trkpt lat="42.41949" lon="8.90227">
        <ele>1413.8</ele>
        <time>2015-06-30T08:37:24Z</time>
      </trkpt>
      <trkpt lat="42.41949" lon="8.90224">
        <ele>1413</ele>
        <time>2015-06-30T08:37:32Z</time>
      </trkpt>
      <trkpt lat="42.41952" lon="8.90224">
        <ele>1411.6</ele>
        <time>2015-06-30T08:37:44Z</time>
      </trkpt>
      <trkpt lat="42.41954" lon="8.90222">
        <ele>1410.4</ele>
        <time>2015-06-30T08:37:55Z</time>
      </trkpt>
      <trkpt lat="42.41954" lon="8.90219">
        <ele>1409.8</ele>
        <time>2015-06-30T08:38:01Z</time>
      </trkpt>
      <trkpt lat="42.41953" lon="8.90217">
        <ele>1409</ele>
        <time>2015-06-30T08:38:08Z</time>
      </trkpt>
      <trkpt lat="42.41953" lon="8.90213">
        <ele>1407.8</ele>
        <time>2015-06-30T08:38:15Z</time>
      </trkpt>
      <trkpt lat="42.41952" lon="8.90212">
        <ele>1407</ele>
        <time>2015-06-30T08:38:20Z</time>
      </trkpt>
      <trkpt lat="42.41953" lon="8.90208">
        <ele>1405.6</ele>
        <time>2015-06-30T08:38:26Z</time>
      </trkpt>
      <trkpt lat="42.41952" lon="8.90203">
        <ele>1404.4</ele>
        <time>2015-06-30T08:38:34Z</time>
      </trkpt>
      <trkpt lat="42.41954" lon="8.90201">
        <ele>1403.2</ele>
        <time>2015-06-30T08:38:40Z</time>
      </trkpt>
      <trkpt lat="42.41954" lon="8.90195">
        <ele>1401.8</ele>
        <time>2015-06-30T08:38:48Z</time>
      </trkpt>
      <trkpt lat="42.41955" lon="8.90192">
        <ele>1401.2</ele>
        <time>2015-06-30T08:38:55Z</time>
      </trkpt>
      <trkpt lat="42.41956" lon="8.90191">
        <ele>1399.8</ele>
        <time>2015-06-30T08:39:02Z</time>
      </trkpt>
      <trkpt lat="42.41955" lon="8.90187">
        <ele>1398.8</ele>
        <time>2015-06-30T08:39:08Z</time>
      </trkpt>
      <trkpt lat="42.41955" lon="8.90182">
        <ele>1397.4</ele>
        <time>2015-06-30T08:39:16Z</time>
      </trkpt>
      <trkpt lat="42.4196" lon="8.90187">
        <ele>1396.4</ele>
        <time>2015-06-30T08:39:34Z</time>
      </trkpt>
      <trkpt lat="42.41962" lon="8.90189">
        <ele>1396</ele>
        <time>2015-06-30T08:39:39Z</time>
      </trkpt>
      <trkpt lat="42.41966" lon="8.90191">
        <ele>1394.4</ele>
        <time>2015-06-30T08:39:48Z</time>
      </trkpt>
      <trkpt lat="42.41971" lon="8.90193">
        <ele>1393.2</ele>
        <time>2015-06-30T08:39:56Z</time>
      </trkpt>
      <trkpt lat="42.41971" lon="8.9019">
        <ele>1392.8</ele>
        <time>2015-06-30T08:40:01Z</time>
      </trkpt>
      <trkpt lat="42.41971" lon="8.90186">
        <ele>1391.4</ele>
        <time>2015-06-30T08:40:07Z</time>
      </trkpt>
      <trkpt lat="42.4197" lon="8.90182">
        <ele>1390.6</ele>
        <time>2015-06-30T08:40:12Z</time>
      </trkpt>
      <trkpt lat="42.41969" lon="8.90178">
        <ele>1389.2</ele>
        <time>2015-06-30T08:40:18Z</time>
      </trkpt>
      <trkpt lat="42.41971" lon="8.90176">
        <ele>1387.8</ele>
        <time>2015-06-30T08:40:25Z</time>
      </trkpt>
      <trkpt lat="42.41974" lon="8.90172">
        <ele>1387</ele>
        <time>2015-06-30T08:40:33Z</time>
      </trkpt>
      <trkpt lat="42.41975" lon="8.90173">
        <ele>1386.8</ele>
        <time>2015-06-30T08:40:34Z</time>
      </trkpt>
      <trkpt lat="42.41975" lon="8.90172">
        <ele>1386.2</ele>
        <time>2015-06-30T08:40:38Z</time>
      </trkpt>
      <trkpt lat="42.41974" lon="8.90167">
        <ele>1385</ele>
        <time>2015-06-30T08:40:44Z</time>
      </trkpt>
      <trkpt lat="42.41975" lon="8.90162">
        <ele>1383.8</ele>
        <time>2015-06-30T08:40:51Z</time>
      </trkpt>
      <trkpt lat="42.41976" lon="8.90157">
        <ele>1382.4</ele>
        <time>2015-06-30T08:40:58Z</time>
      </trkpt>
      <trkpt lat="42.41977" lon="8.90152">
        <ele>1382</ele>
        <time>2015-06-30T08:41:03Z</time>
      </trkpt>
      <trkpt lat="42.41979" lon="8.90143">
        <ele>1380</ele>
        <time>2015-06-30T08:41:12Z</time>
      </trkpt>
      <trkpt lat="42.41981" lon="8.90141">
        <ele>1379.6</ele>
        <time>2015-06-30T08:41:15Z</time>
      </trkpt>
      <trkpt lat="42.41982" lon="8.90138">
        <ele>1379.4</ele>
        <time>2015-06-30T08:41:18Z</time>
      </trkpt>
      <trkpt lat="42.41982" lon="8.90135">
        <ele>1378.4</ele>
        <time>2015-06-30T08:41:25Z</time>
      </trkpt>
      <trkpt lat="42.41983" lon="8.90132">
        <ele>1377.2</ele>
        <time>2015-06-30T08:41:32Z</time>
      </trkpt>
      <trkpt lat="42.41983" lon="8.90131">
        <ele>1376</ele>
        <time>2015-06-30T08:41:39Z</time>
      </trkpt>
      <trkpt lat="42.41985" lon="8.90127">
        <ele>1374.8</ele>
        <time>2015-06-30T08:41:49Z</time>
      </trkpt>
      <trkpt lat="42.41986" lon="8.90123">
        <ele>1374</ele>
        <time>2015-06-30T08:41:56Z</time>
      </trkpt>
      <trkpt lat="42.41988" lon="8.9012">
        <ele>1373</ele>
        <time>2015-06-30T08:42:01Z</time>
      </trkpt>
      <trkpt lat="42.41989" lon="8.90114">
        <ele>1371.6</ele>
        <time>2015-06-30T08:42:09Z</time>
      </trkpt>
      <trkpt lat="42.41991" lon="8.90111">
        <ele>1371</ele>
        <time>2015-06-30T08:42:15Z</time>
      </trkpt>
      <trkpt lat="42.41993" lon="8.90108">
        <ele>1369.4</ele>
        <time>2015-06-30T08:42:22Z</time>
      </trkpt>
      <trkpt lat="42.41994" lon="8.90105">
        <ele>1368.2</ele>
        <time>2015-06-30T08:42:30Z</time>
      </trkpt>
      <trkpt lat="42.41996" lon="8.90103">
        <ele>1367.6</ele>
        <time>2015-06-30T08:42:36Z</time>
      </trkpt>
      <trkpt lat="42.41996" lon="8.90098">
        <ele>1366.2</ele>
        <time>2015-06-30T08:42:42Z</time>
      </trkpt>
      <trkpt lat="42.41997" lon="8.90097">
        <ele>1365.6</ele>
        <time>2015-06-30T08:42:46Z</time>
      </trkpt>
      <trkpt lat="42.41997" lon="8.90095">
        <ele>1365</ele>
        <time>2015-06-30T08:42:55Z</time>
      </trkpt>
      <trkpt lat="42.41997" lon="8.90094">
        <ele>1364.2</ele>
        <time>2015-06-30T08:43:02Z</time>
      </trkpt>
      <trkpt lat="42.41995" lon="8.90094">
        <ele>1363</ele>
        <time>2015-06-30T08:43:15Z</time>
      </trkpt>
      <trkpt lat="42.41996" lon="8.90093">
        <ele>1362</ele>
        <time>2015-06-30T08:43:26Z</time>
      </trkpt>
      <trkpt lat="42.41996" lon="8.90091">
        <ele>1361</ele>
        <time>2015-06-30T08:43:35Z</time>
      </trkpt>
      <trkpt lat="42.41998" lon="8.90091">
        <ele>1360.4</ele>
        <time>2015-06-30T08:43:40Z</time>
      </trkpt>
      <trkpt lat="42.42003" lon="8.90089">
        <ele>1359.4</ele>
        <time>2015-06-30T08:43:46Z</time>
      </trkpt>
      <trkpt lat="42.42003" lon="8.90084">
        <ele>1359</ele>
        <time>2015-06-30T08:43:48Z</time>
      </trkpt>
      <trkpt lat="42.42005" lon="8.90079">
        <ele>1358.6</ele>
        <time>2015-06-30T08:43:51Z</time>
      </trkpt>
      <trkpt lat="42.42005" lon="8.90076">
        <ele>1357.4</ele>
        <time>2015-06-30T08:43:56Z</time>
      </trkpt>
      <trkpt lat="42.42005" lon="8.90069">
        <ele>1355.8</ele>
        <time>2015-06-30T08:44:03Z</time>
      </trkpt>
      <trkpt lat="42.42006" lon="8.90066">
        <ele>1355.2</ele>
        <time>2015-06-30T08:44:07Z</time>
      </trkpt>
      <trkpt lat="42.42007" lon="8.90064">
        <ele>1354.2</ele>
        <time>2015-06-30T08:44:12Z</time>
      </trkpt>
      <trkpt lat="42.42009" lon="8.90061">
        <ele>1352.8</ele>
        <time>2015-06-30T08:44:18Z</time>
      </trkpt>
      <trkpt lat="42.4201" lon="8.90058">
        <ele>1351.8</ele>
        <time>2015-06-30T08:44:24Z</time>
      </trkpt>
      <trkpt lat="42.42011" lon="8.90056">
        <ele>1350.6</ele>
        <time>2015-06-30T08:44:30Z</time>
      </trkpt>
      <trkpt lat="42.42013" lon="8.90051">
        <ele>1349.8</ele>
        <time>2015-06-30T08:44:35Z</time>
      </trkpt>
      <trkpt lat="42.42014" lon="8.90047">
        <ele>1348.4</ele>
        <time>2015-06-30T08:44:41Z</time>
      </trkpt>
      <trkpt lat="42.42016" lon="8.90043">
        <ele>1347.2</ele>
        <time>2015-06-30T08:44:46Z</time>
      </trkpt>
      <trkpt lat="42.42019" lon="8.9004">
        <ele>1346.4</ele>
        <time>2015-06-30T08:44:50Z</time>
      </trkpt>
      <trkpt lat="42.4202" lon="8.90038">
        <ele>1344.8</ele>
        <time>2015-06-30T08:44:55Z</time>
      </trkpt>
      <trkpt lat="42.42021" lon="8.90038">
        <ele>1343.4</ele>
        <time>2015-06-30T08:45:04Z</time>
      </trkpt>
      <trkpt lat="42.42022" lon="8.90044">
        <ele>1342.2</ele>
        <time>2015-06-30T08:45:11Z</time>
      </trkpt>
      <trkpt lat="42.42022" lon="8.90048">
        <ele>1341.8</ele>
        <time>2015-06-30T08:45:15Z</time>
      </trkpt>
      <trkpt lat="42.42024" lon="8.9004">
        <ele>1340.6</ele>
        <time>2015-06-30T08:45:33Z</time>
      </trkpt>
      <trkpt lat="42.42025" lon="8.90037">
        <ele>1340.4</ele>
        <time>2015-06-30T08:45:34Z</time>
      </trkpt>
      <trkpt lat="42.42025" lon="8.90036">
        <ele>1340.2</ele>
        <time>2015-06-30T08:45:37Z</time>
      </trkpt>
      <trkpt lat="42.42019" lon="8.90033">
        <ele>1338.4</ele>
        <time>2015-06-30T08:45:54Z</time>
      </trkpt>
      <trkpt lat="42.42019" lon="8.90028">
        <ele>1338.2</ele>
        <time>2015-06-30T08:46:05Z</time>
      </trkpt>
      <trkpt lat="42.42026" lon="8.90024">
        <ele>1336.8</ele>
        <time>2015-06-30T08:46:41Z</time>
      </trkpt>
      <trkpt lat="42.42027" lon="8.90023">
        <ele>1335.8</ele>
        <time>2015-06-30T08:46:52Z</time>
      </trkpt>
      <trkpt lat="42.42027" lon="8.90021">
        <ele>1334.6</ele>
        <time>2015-06-30T08:47:01Z</time>
      </trkpt>
      <trkpt lat="42.42032" lon="8.90016">
        <ele>1333.8</ele>
        <time>2015-06-30T08:47:10Z</time>
      </trkpt>
      <trkpt lat="42.42032" lon="8.90015">
        <ele>1332.6</ele>
        <time>2015-06-30T08:47:18Z</time>
      </trkpt>
      <trkpt lat="42.42035" lon="8.90016">
        <ele>1330.8</ele>
        <time>2015-06-30T08:47:33Z</time>
      </trkpt>
      <trkpt lat="42.42034" lon="8.90013">
        <ele>1330.6</ele>
        <time>2015-06-30T08:47:39Z</time>
      </trkpt>
      <trkpt lat="42.42037" lon="8.9001">
        <ele>1329.2</ele>
        <time>2015-06-30T08:47:46Z</time>
      </trkpt>
      <trkpt lat="42.42038" lon="8.90005">
        <ele>1328</ele>
        <time>2015-06-30T08:47:52Z</time>
      </trkpt>
      <trkpt lat="42.42035" lon="8.89999">
        <ele>1327</ele>
        <time>2015-06-30T08:47:57Z</time>
      </trkpt>
      <trkpt lat="42.42034" lon="8.89992">
        <ele>1325.4</ele>
        <time>2015-06-30T08:48:04Z</time>
      </trkpt>
      <trkpt lat="42.42037" lon="8.89988">
        <ele>1324.6</ele>
        <time>2015-06-30T08:48:10Z</time>
      </trkpt>
      <trkpt lat="42.4204" lon="8.89984">
        <ele>1323.4</ele>
        <time>2015-06-30T08:48:15Z</time>
      </trkpt>
      <trkpt lat="42.42042" lon="8.89977">
        <ele>1322</ele>
        <time>2015-06-30T08:48:22Z</time>
      </trkpt>
      <trkpt lat="42.42042" lon="8.89974">
        <ele>1321.2</ele>
        <time>2015-06-30T08:48:26Z</time>
      </trkpt>
      <trkpt lat="42.42042" lon="8.89972">
        <ele>1321</ele>
        <time>2015-06-30T08:48:28Z</time>
      </trkpt>
      <trkpt lat="42.42048" lon="8.89971">
        <ele>1318.8</ele>
        <time>2015-06-30T08:48:41Z</time>
      </trkpt>
      <trkpt lat="42.42053" lon="8.89975">
        <ele>1318.4</ele>
        <time>2015-06-30T08:48:49Z</time>
      </trkpt>
      <trkpt lat="42.42049" lon="8.8998">
        <ele>1317.8</ele>
        <time>2015-06-30T08:48:55Z</time>
      </trkpt>
      <trkpt lat="42.42051" lon="8.8997">
        <ele>1317.4</ele>
        <time>2015-06-30T08:49:15Z</time>
      </trkpt>
      <trkpt lat="42.42055" lon="8.89973">
        <ele>1316.6</ele>
        <time>2015-06-30T08:49:24Z</time>
      </trkpt>
      <trkpt lat="42.42054" lon="8.89974">
        <ele>1315.4</ele>
        <time>2015-06-30T08:49:32Z</time>
      </trkpt>
      <trkpt lat="42.42053" lon="8.8997">
        <ele>1315</ele>
        <time>2015-06-30T08:49:36Z</time>
      </trkpt>
      <trkpt lat="42.42056" lon="8.89965">
        <ele>1313</ele>
        <time>2015-06-30T08:49:45Z</time>
      </trkpt>
      <trkpt lat="42.42058" lon="8.89959">
        <ele>1311.8</ele>
        <time>2015-06-30T08:49:53Z</time>
      </trkpt>
      <trkpt lat="42.42057" lon="8.89954">
        <ele>1311</ele>
        <time>2015-06-30T08:49:58Z</time>
      </trkpt>
      <trkpt lat="42.42055" lon="8.8995">
        <ele>1310.2</ele>
        <time>2015-06-30T08:50:02Z</time>
      </trkpt>
      <trkpt lat="42.42055" lon="8.8995">
        <ele>1309.8</ele>
        <time>2015-06-30T08:50:03Z</time>
      </trkpt>
      <trkpt lat="42.42054" lon="8.89948">
        <ele>1308.6</ele>
        <time>2015-06-30T08:50:08Z</time>
      </trkpt>
      <trkpt lat="42.42055" lon="8.89945">
        <ele>1307.2</ele>
        <time>2015-06-30T08:50:14Z</time>
      </trkpt>
      <trkpt lat="42.42055" lon="8.89939">
        <ele>1306</ele>
        <time>2015-06-30T08:50:20Z</time>
      </trkpt>
      <trkpt lat="42.42045" lon="8.89911">
        <ele>1303.6</ele>
        <time>2015-06-30T08:50:42Z</time>
      </trkpt>
      <trkpt lat="42.42046" lon="8.89919">
        <ele>1303.6</ele>
        <time>2015-06-30T08:50:47Z</time>
      </trkpt>
      <trkpt lat="42.42048" lon="8.89921">
        <ele>1303.4</ele>
        <time>2015-06-30T08:50:50Z</time>
      </trkpt>
      <trkpt lat="42.4205" lon="8.89922">
        <ele>1302.6</ele>
        <time>2015-06-30T08:51:03Z</time>
      </trkpt>
      <trkpt lat="42.4205" lon="8.89915">
        <ele>1300</ele>
        <time>2015-06-30T08:51:45Z</time>
      </trkpt>
      <trkpt lat="42.42053" lon="8.8991">
        <ele>1299.8</ele>
        <time>2015-06-30T08:51:49Z</time>
      </trkpt>
      <trkpt lat="42.42067" lon="8.89899">
        <ele>1298.6</ele>
        <time>2015-06-30T08:52:15Z</time>
      </trkpt>
      <trkpt lat="42.42074" lon="8.89894">
        <ele>1297.2</ele>
        <time>2015-06-30T08:52:29Z</time>
      </trkpt>
      <trkpt lat="42.42088" lon="8.89887">
        <ele>1295.6</ele>
        <time>2015-06-30T08:53:09Z</time>
      </trkpt>
      <trkpt lat="42.42092" lon="8.89887">
        <ele>1295</ele>
        <time>2015-06-30T08:53:17Z</time>
      </trkpt>
      <trkpt lat="42.42095" lon="8.89888">
        <ele>1294</ele>
        <time>2015-06-30T08:53:24Z</time>
      </trkpt>
      <trkpt lat="42.42097" lon="8.89889">
        <ele>1292.6</ele>
        <time>2015-06-30T08:53:31Z</time>
      </trkpt>
      <trkpt lat="42.42111" lon="8.89886">
        <ele>1289.8</ele>
        <time>2015-06-30T08:53:51Z</time>
      </trkpt>
      <trkpt lat="42.42113" lon="8.89887">
        <ele>1289.4</ele>
        <time>2015-06-30T08:53:54Z</time>
      </trkpt>
      <trkpt lat="42.42117" lon="8.89875">
        <ele>1287.8</ele>
        <time>2015-06-30T08:54:23Z</time>
      </trkpt>
      <trkpt lat="42.4212" lon="8.89872">
        <ele>1287.2</ele>
        <time>2015-06-30T08:54:31Z</time>
      </trkpt>
      <trkpt lat="42.42125" lon="8.89864">
        <ele>1285.4</ele>
        <time>2015-06-30T08:54:39Z</time>
      </trkpt>
      <trkpt lat="42.42127" lon="8.89849">
        <ele>1285</ele>
        <time>2015-06-30T08:54:44Z</time>
      </trkpt>
      <trkpt lat="42.42131" lon="8.89842">
        <ele>1284.8</ele>
        <time>2015-06-30T08:54:47Z</time>
      </trkpt>
      <trkpt lat="42.42132" lon="8.89843">
        <ele>1284.4</ele>
        <time>2015-06-30T08:54:49Z</time>
      </trkpt>
      <trkpt lat="42.42133" lon="8.89844">
        <ele>1284.4</ele>
        <time>2015-06-30T08:54:50Z</time>
      </trkpt>
      <trkpt lat="42.42139" lon="8.89833">
        <ele>1282.6</ele>
        <time>2015-06-30T08:55:18Z</time>
      </trkpt>
      <trkpt lat="42.4214" lon="8.89829">
        <ele>1282.6</ele>
        <time>2015-06-30T08:55:20Z</time>
      </trkpt>
      <trkpt lat="42.4214" lon="8.8983">
        <ele>1282.6</ele>
        <time>2015-06-30T08:55:23Z</time>
      </trkpt>
      <trkpt lat="42.42139" lon="8.89827">
        <ele>1282.4</ele>
        <time>2015-06-30T08:55:25Z</time>
      </trkpt>
      <trkpt lat="42.42135" lon="8.89817">
        <ele>1282.4</ele>
        <time>2015-06-30T08:55:28Z</time>
      </trkpt>
      <trkpt lat="42.42127" lon="8.89818">
        <ele>1282</ele>
        <time>2015-06-30T08:55:31Z</time>
      </trkpt>
      <trkpt lat="42.42126" lon="8.89801">
        <ele>1281.2</ele>
        <time>2015-06-30T08:55:36Z</time>
      </trkpt>
      <trkpt lat="42.42125" lon="8.89782">
        <ele>1281</ele>
        <time>2015-06-30T08:55:39Z</time>
      </trkpt>
      <trkpt lat="42.42123" lon="8.89753">
        <ele>1280.6</ele>
        <time>2015-06-30T08:55:43Z</time>
      </trkpt>
      <trkpt lat="42.42122" lon="8.89743">
        <ele>1280.4</ele>
        <time>2015-06-30T08:55:48Z</time>
      </trkpt>
      <trkpt lat="42.42125" lon="8.89749">
        <ele>1280.4</ele>
        <time>2015-06-30T08:55:49Z</time>
      </trkpt>
      <trkpt lat="42.42128" lon="8.89758">
        <ele>1279.4</ele>
        <time>2015-06-30T08:55:53Z</time>
      </trkpt>
      <trkpt lat="42.42132" lon="8.89766">
        <ele>1277.6</ele>
        <time>2015-06-30T08:56:02Z</time>
      </trkpt>
      <trkpt lat="42.42136" lon="8.89769">
        <ele>1277.2</ele>
        <time>2015-06-30T08:56:08Z</time>
      </trkpt>
      <trkpt lat="42.42136" lon="8.89782">
        <ele>1277</ele>
        <time>2015-06-30T08:56:14Z</time>
      </trkpt>
      <trkpt lat="42.42137" lon="8.89788">
        <ele>1277</ele>
        <time>2015-06-30T08:56:16Z</time>
      </trkpt>
      <trkpt lat="42.42138" lon="8.898">
        <ele>1277.2</ele>
        <time>2015-06-30T08:56:20Z</time>
      </trkpt>
      <trkpt lat="42.42139" lon="8.89802">
        <ele>1277.2</ele>
        <time>2015-06-30T08:56:21Z</time>
      </trkpt>
      <trkpt lat="42.42144" lon="8.89823">
        <ele>1277.2</ele>
        <time>2015-06-30T08:56:31Z</time>
      </trkpt>
      <trkpt lat="42.4215" lon="8.89852">
        <ele>1277</ele>
        <time>2015-06-30T08:56:40Z</time>
      </trkpt>
      <trkpt lat="42.42154" lon="8.89857">
        <ele>1277</ele>
        <time>2015-06-30T08:56:45Z</time>
      </trkpt>
      <trkpt lat="42.42155" lon="8.89859">
        <ele>1277</ele>
        <time>2015-06-30T08:56:47Z</time>
      </trkpt>
      <trkpt lat="42.42159" lon="8.89859">
        <ele>1276.6</ele>
        <time>2015-06-30T08:56:53Z</time>
      </trkpt>
      <trkpt lat="42.42164" lon="8.89855">
        <ele>1275.6</ele>
        <time>2015-06-30T08:57:00Z</time>
      </trkpt>
      <trkpt lat="42.42165" lon="8.89855">
        <ele>1275.4</ele>
        <time>2015-06-30T08:57:01Z</time>
      </trkpt>
      <trkpt lat="42.42165" lon="8.89854">
        <ele>1275.2</ele>
        <time>2015-06-30T08:57:03Z</time>
      </trkpt>
      <trkpt lat="42.42166" lon="8.89858">
        <ele>1274.8</ele>
        <time>2015-06-30T08:57:09Z</time>
      </trkpt>
      <trkpt lat="42.42167" lon="8.89852">
        <ele>1272.8</ele>
        <time>2015-06-30T08:57:34Z</time>
      </trkpt>
      <trkpt lat="42.4217" lon="8.89853">
        <ele>1272</ele>
        <time>2015-06-30T08:57:43Z</time>
      </trkpt>
      <trkpt lat="42.4217" lon="8.89857">
        <ele>1271.4</ele>
        <time>2015-06-30T08:57:49Z</time>
      </trkpt>
      <trkpt lat="42.42172" lon="8.89854">
        <ele>1270</ele>
        <time>2015-06-30T08:58:17Z</time>
      </trkpt>
      <trkpt lat="42.42175" lon="8.89854">
        <ele>1270</ele>
        <time>2015-06-30T08:58:19Z</time>
      </trkpt>
      <trkpt lat="42.42176" lon="8.89856">
        <ele>1269.6</ele>
        <time>2015-06-30T08:58:21Z</time>
      </trkpt>
      <trkpt lat="42.4218" lon="8.89872">
        <ele>1269.2</ele>
        <time>2015-06-30T08:58:27Z</time>
      </trkpt>
      <trkpt lat="42.42182" lon="8.8988">
        <ele>1268.8</ele>
        <time>2015-06-30T08:58:32Z</time>
      </trkpt>
      <trkpt lat="42.4218" lon="8.89886">
        <ele>1268.4</ele>
        <time>2015-06-30T08:58:38Z</time>
      </trkpt>
      <trkpt lat="42.42181" lon="8.8987">
        <ele>1267</ele>
        <time>2015-06-30T08:58:45Z</time>
      </trkpt>
      <trkpt lat="42.42181" lon="8.89865">
        <ele>1266.8</ele>
        <time>2015-06-30T08:58:47Z</time>
      </trkpt>
      <trkpt lat="42.42191" lon="8.89857">
        <ele>1266.8</ele>
        <time>2015-06-30T08:59:26Z</time>
      </trkpt>
      <trkpt lat="42.42186" lon="8.8987">
        <ele>1265.8</ele>
        <time>2015-06-30T08:59:44Z</time>
      </trkpt>
      <trkpt lat="42.42187" lon="8.8987">
        <ele>1265.8</ele>
        <time>2015-06-30T08:59:46Z</time>
      </trkpt>
      <trkpt lat="42.42186" lon="8.89864">
        <ele>1266</ele>
        <time>2015-06-30T08:59:51Z</time>
      </trkpt>
      <trkpt lat="42.42187" lon="8.89853">
        <ele>1265.8</ele>
        <time>2015-06-30T08:59:55Z</time>
      </trkpt>
      <trkpt lat="42.42189" lon="8.89848">
        <ele>1266</ele>
        <time>2015-06-30T08:59:58Z</time>
      </trkpt>
      <trkpt lat="42.42192" lon="8.89845">
        <ele>1266</ele>
        <time>2015-06-30T09:00:00Z</time>
      </trkpt>
      <trkpt lat="42.42196" lon="8.89834">
        <ele>1265.8</ele>
        <time>2015-06-30T09:00:04Z</time>
      </trkpt>
      <trkpt lat="42.42196" lon="8.898">
        <ele>1265.6</ele>
        <time>2015-06-30T09:00:07Z</time>
      </trkpt>
      <trkpt lat="42.42204" lon="8.8982">
        <ele>1265.2</ele>
        <time>2015-06-30T09:00:13Z</time>
      </trkpt>
      <trkpt lat="42.42205" lon="8.8982">
        <ele>1265.2</ele>
        <time>2015-06-30T09:00:15Z</time>
      </trkpt>
      <trkpt lat="42.42205" lon="8.89826">
        <ele>1265.2</ele>
        <time>2015-06-30T09:00:20Z</time>
      </trkpt>
      <trkpt lat="42.42206" lon="8.89829">
        <ele>1265.2</ele>
        <time>2015-06-30T09:00:24Z</time>
      </trkpt>
      <trkpt lat="42.42208" lon="8.89831">
        <ele>1265</ele>
        <time>2015-06-30T09:00:29Z</time>
      </trkpt>
      <trkpt lat="42.42212" lon="8.89829">
        <ele>1264</ele>
        <time>2015-06-30T09:00:36Z</time>
      </trkpt>
      <trkpt lat="42.42217" lon="8.89818">
        <ele>1262.8</ele>
        <time>2015-06-30T09:00:43Z</time>
      </trkpt>
      <trkpt lat="42.42221" lon="8.89825">
        <ele>1262.2</ele>
        <time>2015-06-30T09:00:48Z</time>
      </trkpt>
      <trkpt lat="42.42224" lon="8.89826">
        <ele>1261.6</ele>
        <time>2015-06-30T09:00:52Z</time>
      </trkpt>
      <trkpt lat="42.42223" lon="8.89833">
        <ele>1260.6</ele>
        <time>2015-06-30T09:01:01Z</time>
      </trkpt>
      <trkpt lat="42.42224" lon="8.89834">
        <ele>1260</ele>
        <time>2015-06-30T09:01:39Z</time>
      </trkpt>
      <trkpt lat="42.42227" lon="8.89837">
        <ele>1259.4</ele>
        <time>2015-06-30T09:01:48Z</time>
      </trkpt>
      <trkpt lat="42.42229" lon="8.89838">
        <ele>1258</ele>
        <time>2015-06-30T09:02:00Z</time>
      </trkpt>
      <trkpt lat="42.42233" lon="8.89836">
        <ele>1257</ele>
        <time>2015-06-30T09:02:09Z</time>
      </trkpt>
      <trkpt lat="42.42237" lon="8.89835">
        <ele>1255.8</ele>
        <time>2015-06-30T09:02:25Z</time>
      </trkpt>
      <trkpt lat="42.42239" lon="8.89834">
        <ele>1255.6</ele>
        <time>2015-06-30T09:02:30Z</time>
      </trkpt>
      <trkpt lat="42.42242" lon="8.89833">
        <ele>1254.2</ele>
        <time>2015-06-30T09:02:38Z</time>
      </trkpt>
      <trkpt lat="42.42245" lon="8.89833">
        <ele>1253.8</ele>
        <time>2015-06-30T09:02:43Z</time>
      </trkpt>
      <trkpt lat="42.42246" lon="8.89832">
        <ele>1252.8</ele>
        <time>2015-06-30T09:02:49Z</time>
      </trkpt>
      <trkpt lat="42.42249" lon="8.89831">
        <ele>1251.6</ele>
        <time>2015-06-30T09:02:55Z</time>
      </trkpt>
      <trkpt lat="42.42254" lon="8.8983">
        <ele>1250.4</ele>
        <time>2015-06-30T09:03:17Z</time>
      </trkpt>
      <trkpt lat="42.42256" lon="8.8983">
        <ele>1250</ele>
        <time>2015-06-30T09:03:23Z</time>
      </trkpt>
      <trkpt lat="42.42258" lon="8.89828">
        <ele>1248.6</ele>
        <time>2015-06-30T09:03:35Z</time>
      </trkpt>
      <trkpt lat="42.42259" lon="8.89828">
        <ele>1247.8</ele>
        <time>2015-06-30T09:03:46Z</time>
      </trkpt>
      <trkpt lat="42.42261" lon="8.89829">
        <ele>1247</ele>
        <time>2015-06-30T09:04:01Z</time>
      </trkpt>
      <trkpt lat="42.42264" lon="8.89827">
        <ele>1246.2</ele>
        <time>2015-06-30T09:04:09Z</time>
      </trkpt>
      <trkpt lat="42.42265" lon="8.89825">
        <ele>1245.2</ele>
        <time>2015-06-30T09:04:17Z</time>
      </trkpt>
      <trkpt lat="42.42268" lon="8.89825">
        <ele>1244.2</ele>
        <time>2015-06-30T09:04:25Z</time>
      </trkpt>
      <trkpt lat="42.42273" lon="8.89829">
        <ele>1242.8</ele>
        <time>2015-06-30T09:04:33Z</time>
      </trkpt>
      <trkpt lat="42.42277" lon="8.89831">
        <ele>1241.6</ele>
        <time>2015-06-30T09:04:51Z</time>
      </trkpt>
      <trkpt lat="42.42282" lon="8.89832">
        <ele>1241</ele>
        <time>2015-06-30T09:04:59Z</time>
      </trkpt>
      <trkpt lat="42.42286" lon="8.89828">
        <ele>1239.8</ele>
        <time>2015-06-30T09:05:10Z</time>
      </trkpt>
      <trkpt lat="42.42293" lon="8.89817">
        <ele>1238.8</ele>
        <time>2015-06-30T09:05:28Z</time>
      </trkpt>
      <trkpt lat="42.42297" lon="8.89815">
        <ele>1238.2</ele>
        <time>2015-06-30T09:05:38Z</time>
      </trkpt>
      <trkpt lat="42.42298" lon="8.89819">
        <ele>1237</ele>
        <time>2015-06-30T09:05:50Z</time>
      </trkpt>
      <trkpt lat="42.42301" lon="8.89816">
        <ele>1236.6</ele>
        <time>2015-06-30T09:05:55Z</time>
      </trkpt>
      <trkpt lat="42.42303" lon="8.89815">
        <ele>1235.4</ele>
        <time>2015-06-30T09:06:02Z</time>
      </trkpt>
      <trkpt lat="42.42308" lon="8.89811">
        <ele>1235.2</ele>
        <time>2015-06-30T09:06:05Z</time>
      </trkpt>
      <trkpt lat="42.4231" lon="8.89808">
        <ele>1235</ele>
        <time>2015-06-30T09:06:07Z</time>
      </trkpt>
      <trkpt lat="42.42319" lon="8.89797">
        <ele>1234.2</ele>
        <time>2015-06-30T09:06:25Z</time>
      </trkpt>
      <trkpt lat="42.42321" lon="8.89795">
        <ele>1233.8</ele>
        <time>2015-06-30T09:06:39Z</time>
      </trkpt>
      <trkpt lat="42.42324" lon="8.89793">
        <ele>1233.2</ele>
        <time>2015-06-30T09:06:45Z</time>
      </trkpt>
      <trkpt lat="42.42328" lon="8.89793">
        <ele>1232</ele>
        <time>2015-06-30T09:06:52Z</time>
      </trkpt>
      <trkpt lat="42.42331" lon="8.89792">
        <ele>1230.8</ele>
        <time>2015-06-30T09:06:58Z</time>
      </trkpt>
      <trkpt lat="42.42332" lon="8.89791">
        <ele>1230.2</ele>
        <time>2015-06-30T09:07:02Z</time>
      </trkpt>
      <trkpt lat="42.42333" lon="8.89788">
        <ele>1228.6</ele>
        <time>2015-06-30T09:07:09Z</time>
      </trkpt>
      <trkpt lat="42.42333" lon="8.89787">
        <ele>1227.8</ele>
        <time>2015-06-30T09:07:17Z</time>
      </trkpt>
      <trkpt lat="42.42334" lon="8.89784">
        <ele>1227.2</ele>
        <time>2015-06-30T09:07:21Z</time>
      </trkpt>
      <trkpt lat="42.42337" lon="8.89775">
        <ele>1225.8</ele>
        <time>2015-06-30T09:07:27Z</time>
      </trkpt>
      <trkpt lat="42.42338" lon="8.89769">
        <ele>1225</ele>
        <time>2015-06-30T09:07:33Z</time>
      </trkpt>
      <trkpt lat="42.42366" lon="8.89767">
        <ele>1225.2</ele>
        <time>2015-06-30T09:08:39Z</time>
      </trkpt>
      <trkpt lat="42.42369" lon="8.89768">
        <ele>1224.8</ele>
        <time>2015-06-30T09:08:44Z</time>
      </trkpt>
      <trkpt lat="42.42374" lon="8.89769">
        <ele>1223</ele>
        <time>2015-06-30T09:08:52Z</time>
      </trkpt>
      <trkpt lat="42.42377" lon="8.89771">
        <ele>1222.2</ele>
        <time>2015-06-30T09:09:24Z</time>
      </trkpt>
      <trkpt lat="42.4238" lon="8.89768">
        <ele>1222.4</ele>
        <time>2015-06-30T09:09:53Z</time>
      </trkpt>
      <trkpt lat="42.42381" lon="8.8977">
        <ele>1221.4</ele>
        <time>2015-06-30T09:09:59Z</time>
      </trkpt>
      <trkpt lat="42.42382" lon="8.89772">
        <ele>1220.4</ele>
        <time>2015-06-30T09:10:05Z</time>
      </trkpt>
      <trkpt lat="42.4238" lon="8.89778">
        <ele>1219.2</ele>
        <time>2015-06-30T09:10:15Z</time>
      </trkpt>
      <trkpt lat="42.42379" lon="8.89783">
        <ele>1218.4</ele>
        <time>2015-06-30T09:10:21Z</time>
      </trkpt>
      <trkpt lat="42.42377" lon="8.89787">
        <ele>1217.6</ele>
        <time>2015-06-30T09:10:26Z</time>
      </trkpt>
      <trkpt lat="42.42378" lon="8.89789">
        <ele>1216.4</ele>
        <time>2015-06-30T09:10:32Z</time>
      </trkpt>
      <trkpt lat="42.42384" lon="8.89789">
        <ele>1215</ele>
        <time>2015-06-30T09:10:40Z</time>
      </trkpt>
      <trkpt lat="42.42387" lon="8.89782">
        <ele>1214.2</ele>
        <time>2015-06-30T09:10:47Z</time>
      </trkpt>
      <trkpt lat="42.42388" lon="8.89781">
        <ele>1214</ele>
        <time>2015-06-30T09:10:49Z</time>
      </trkpt>
      <trkpt lat="42.42396" lon="8.89771">
        <ele>1213</ele>
        <time>2015-06-30T09:10:57Z</time>
      </trkpt>
      <trkpt lat="42.424" lon="8.89765">
        <ele>1212</ele>
        <time>2015-06-30T09:11:11Z</time>
      </trkpt>
      <trkpt lat="42.42403" lon="8.89767">
        <ele>1211.6</ele>
        <time>2015-06-30T09:11:16Z</time>
      </trkpt>
      <trkpt lat="42.42405" lon="8.89766">
        <ele>1210.2</ele>
        <time>2015-06-30T09:11:22Z</time>
      </trkpt>
      <trkpt lat="42.42408" lon="8.89766">
        <ele>1209.2</ele>
        <time>2015-06-30T09:11:28Z</time>
      </trkpt>
      <trkpt lat="42.4241" lon="8.89767">
        <ele>1208.2</ele>
        <time>2015-06-30T09:11:34Z</time>
      </trkpt>
      <trkpt lat="42.42412" lon="8.89766">
        <ele>1207.4</ele>
        <time>2015-06-30T09:11:40Z</time>
      </trkpt>
      <trkpt lat="42.42414" lon="8.89768">
        <ele>1205.8</ele>
        <time>2015-06-30T09:11:50Z</time>
      </trkpt>
      <trkpt lat="42.42416" lon="8.89771">
        <ele>1205</ele>
        <time>2015-06-30T09:11:58Z</time>
      </trkpt>
      <trkpt lat="42.42417" lon="8.89771">
        <ele>1204.6</ele>
        <time>2015-06-30T09:12:02Z</time>
      </trkpt>
      <trkpt lat="42.42418" lon="8.8977">
        <ele>1204</ele>
        <time>2015-06-30T09:12:05Z</time>
      </trkpt>
      <trkpt lat="42.4242" lon="8.89772">
        <ele>1202.8</ele>
        <time>2015-06-30T09:12:14Z</time>
      </trkpt>
      <trkpt lat="42.4243" lon="8.89776">
        <ele>1201.4</ele>
        <time>2015-06-30T09:12:37Z</time>
      </trkpt>
      <trkpt lat="42.42431" lon="8.8978">
        <ele>1201.2</ele>
        <time>2015-06-30T09:12:42Z</time>
      </trkpt>
      <trkpt lat="42.42431" lon="8.89786">
        <ele>1199.8</ele>
        <time>2015-06-30T09:12:51Z</time>
      </trkpt>
      <trkpt lat="42.42422" lon="8.89789">
        <ele>1199.6</ele>
        <time>2015-06-30T09:14:02Z</time>
      </trkpt>
      <trkpt lat="42.42421" lon="8.89796">
        <ele>1200.2</ele>
        <time>2015-06-30T09:14:34Z</time>
      </trkpt>
      <trkpt lat="42.42424" lon="8.89789">
        <ele>1201.8</ele>
        <time>2015-06-30T09:15:04Z</time>
      </trkpt>
      <trkpt lat="42.42425" lon="8.89787">
        <ele>1202</ele>
        <time>2015-06-30T09:15:07Z</time>
      </trkpt>
      <trkpt lat="42.42425" lon="8.89784">
        <ele>1202.6</ele>
        <time>2015-06-30T09:15:11Z</time>
      </trkpt>
      <trkpt lat="42.42429" lon="8.89784">
        <ele>1203.8</ele>
        <time>2015-06-30T09:15:24Z</time>
      </trkpt>
      <trkpt lat="42.42431" lon="8.89787">
        <ele>1203.8</ele>
        <time>2015-06-30T09:15:26Z</time>
      </trkpt>
      <trkpt lat="42.42436" lon="8.89797">
        <ele>1203.8</ele>
        <time>2015-06-30T09:15:33Z</time>
      </trkpt>
      <trkpt lat="42.42437" lon="8.89798">
        <ele>1204.2</ele>
        <time>2015-06-30T09:15:35Z</time>
      </trkpt>
      <trkpt lat="42.4245" lon="8.89796">
        <ele>1204</ele>
        <time>2015-06-30T09:15:57Z</time>
      </trkpt>
      <trkpt lat="42.42452" lon="8.89796">
        <ele>1203.4</ele>
        <time>2015-06-30T09:16:02Z</time>
      </trkpt>
      <trkpt lat="42.42461" lon="8.89803">
        <ele>1202.6</ele>
        <time>2015-06-30T09:16:22Z</time>
      </trkpt>
      <trkpt lat="42.4247" lon="8.89809">
        <ele>1204.6</ele>
        <time>2015-06-30T09:16:46Z</time>
      </trkpt>
      <trkpt lat="42.42475" lon="8.89811">
        <ele>1205.6</ele>
        <time>2015-06-30T09:16:59Z</time>
      </trkpt>
      <trkpt lat="42.42477" lon="8.89809">
        <ele>1206.8</ele>
        <time>2015-06-30T09:17:08Z</time>
      </trkpt>
      <trkpt lat="42.42484" lon="8.8981">
        <ele>1207</ele>
        <time>2015-06-30T09:17:27Z</time>
      </trkpt>
      <trkpt lat="42.4249" lon="8.89818">
        <ele>1207.4</ele>
        <time>2015-06-30T09:18:02Z</time>
      </trkpt>
      <trkpt lat="42.42492" lon="8.89817">
        <ele>1209.2</ele>
        <time>2015-06-30T09:18:19Z</time>
      </trkpt>
      <trkpt lat="42.42494" lon="8.8982">
        <ele>1209.8</ele>
        <time>2015-06-30T09:18:28Z</time>
      </trkpt>
      <trkpt lat="42.42492" lon="8.89825">
        <ele>1211.2</ele>
        <time>2015-06-30T09:18:37Z</time>
      </trkpt>
      <trkpt lat="42.42489" lon="8.89832">
        <ele>1212</ele>
        <time>2015-06-30T09:18:46Z</time>
      </trkpt>
      <trkpt lat="42.42488" lon="8.89836">
        <ele>1212.8</ele>
        <time>2015-06-30T09:18:51Z</time>
      </trkpt>
      <trkpt lat="42.42488" lon="8.89839">
        <ele>1214.6</ele>
        <time>2015-06-30T09:19:00Z</time>
      </trkpt>
      <trkpt lat="42.42489" lon="8.8984">
        <ele>1215.8</ele>
        <time>2015-06-30T09:19:12Z</time>
      </trkpt>
      <trkpt lat="42.4249" lon="8.89848">
        <ele>1217.4</ele>
        <time>2015-06-30T09:19:29Z</time>
      </trkpt>
      <trkpt lat="42.4249" lon="8.89852">
        <ele>1218.6</ele>
        <time>2015-06-30T09:19:38Z</time>
      </trkpt>
      <trkpt lat="42.42487" lon="8.89852">
        <ele>1219.8</ele>
        <time>2015-06-30T09:19:48Z</time>
      </trkpt>
      <trkpt lat="42.42485" lon="8.89855">
        <ele>1221</ele>
        <time>2015-06-30T09:19:56Z</time>
      </trkpt>
      <trkpt lat="42.4249" lon="8.89866">
        <ele>1222.8</ele>
        <time>2015-06-30T09:20:12Z</time>
      </trkpt>
      <trkpt lat="42.42501" lon="8.8988">
        <ele>1224.2</ele>
        <time>2015-06-30T09:20:39Z</time>
      </trkpt>
      <trkpt lat="42.42502" lon="8.89883">
        <ele>1225</ele>
        <time>2015-06-30T09:20:47Z</time>
      </trkpt>
      <trkpt lat="42.42509" lon="8.89895">
        <ele>1226.6</ele>
        <time>2015-06-30T09:21:07Z</time>
      </trkpt>
      <trkpt lat="42.42512" lon="8.89899">
        <ele>1227.8</ele>
        <time>2015-06-30T09:21:21Z</time>
      </trkpt>
      <trkpt lat="42.42517" lon="8.89899">
        <ele>1228.6</ele>
        <time>2015-06-30T09:21:37Z</time>
      </trkpt>
      <trkpt lat="42.4252" lon="8.899">
        <ele>1227.8</ele>
        <time>2015-06-30T09:21:42Z</time>
      </trkpt>
      <trkpt lat="42.42545" lon="8.89909">
        <ele>1228.4</ele>
        <time>2015-06-30T09:22:53Z</time>
      </trkpt>
      <trkpt lat="42.42547" lon="8.89906">
        <ele>1227.4</ele>
        <time>2015-06-30T09:23:03Z</time>
      </trkpt>
      <trkpt lat="42.42554" lon="8.89911">
        <ele>1226.2</ele>
        <time>2015-06-30T09:23:28Z</time>
      </trkpt>
      <trkpt lat="42.42557" lon="8.89917">
        <ele>1225.8</ele>
        <time>2015-06-30T09:23:43Z</time>
      </trkpt>
      <trkpt lat="42.42563" lon="8.89919">
        <ele>1224.6</ele>
        <time>2015-06-30T09:23:56Z</time>
      </trkpt>
      <trkpt lat="42.42568" lon="8.89923">
        <ele>1224.2</ele>
        <time>2015-06-30T09:24:04Z</time>
      </trkpt>
      <trkpt lat="42.42569" lon="8.89923">
        <ele>1224.2</ele>
        <time>2015-06-30T09:24:06Z</time>
      </trkpt>
      <trkpt lat="42.4257" lon="8.89926">
        <ele>1224.4</ele>
        <time>2015-06-30T09:24:16Z</time>
      </trkpt>
      <trkpt lat="42.4257" lon="8.89929">
        <ele>1225</ele>
        <time>2015-06-30T09:24:19Z</time>
      </trkpt>
      <trkpt lat="42.42571" lon="8.89933">
        <ele>1225.6</ele>
        <time>2015-06-30T09:24:23Z</time>
      </trkpt>
      <trkpt lat="42.42572" lon="8.89939">
        <ele>1226.6</ele>
        <time>2015-06-30T09:24:29Z</time>
      </trkpt>
      <trkpt lat="42.42574" lon="8.89942">
        <ele>1228</ele>
        <time>2015-06-30T09:24:38Z</time>
      </trkpt>
      <trkpt lat="42.42576" lon="8.89943">
        <ele>1229</ele>
        <time>2015-06-30T09:24:44Z</time>
      </trkpt>
      <trkpt lat="42.42581" lon="8.89949">
        <ele>1230.2</ele>
        <time>2015-06-30T09:24:51Z</time>
      </trkpt>
      <trkpt lat="42.42584" lon="8.89956">
        <ele>1231.6</ele>
        <time>2015-06-30T09:25:01Z</time>
      </trkpt>
      <trkpt lat="42.42586" lon="8.89961">
        <ele>1232.4</ele>
        <time>2015-06-30T09:25:07Z</time>
      </trkpt>
      <trkpt lat="42.42587" lon="8.89965">
        <ele>1233.4</ele>
        <time>2015-06-30T09:25:11Z</time>
      </trkpt>
      <trkpt lat="42.42588" lon="8.89968">
        <ele>1233.8</ele>
        <time>2015-06-30T09:25:14Z</time>
      </trkpt>
      <trkpt lat="42.42589" lon="8.89971">
        <ele>1234.8</ele>
        <time>2015-06-30T09:25:21Z</time>
      </trkpt>
      <trkpt lat="42.42594" lon="8.89974">
        <ele>1236</ele>
        <time>2015-06-30T09:25:29Z</time>
      </trkpt>
      <trkpt lat="42.426" lon="8.89977">
        <ele>1237.8</ele>
        <time>2015-06-30T09:25:44Z</time>
      </trkpt>
      <trkpt lat="42.42604" lon="8.89983">
        <ele>1238.6</ele>
        <time>2015-06-30T09:25:54Z</time>
      </trkpt>
      <trkpt lat="42.42608" lon="8.89987">
        <ele>1239.4</ele>
        <time>2015-06-30T09:26:01Z</time>
      </trkpt>
      <trkpt lat="42.42614" lon="8.89984">
        <ele>1240.2</ele>
        <time>2015-06-30T09:26:07Z</time>
      </trkpt>
      <trkpt lat="42.42615" lon="8.89982">
        <ele>1240.4</ele>
        <time>2015-06-30T09:26:10Z</time>
      </trkpt>
      <trkpt lat="42.42616" lon="8.89982">
        <ele>1240.2</ele>
        <time>2015-06-30T09:26:12Z</time>
      </trkpt>
      <trkpt lat="42.42623" lon="8.89986">
        <ele>1240</ele>
        <time>2015-06-30T09:26:29Z</time>
      </trkpt>
      <trkpt lat="42.42624" lon="8.89987">
        <ele>1240.2</ele>
        <time>2015-06-30T09:26:31Z</time>
      </trkpt>
      <trkpt lat="42.42628" lon="8.89994">
        <ele>1241.4</ele>
        <time>2015-06-30T09:26:40Z</time>
      </trkpt>
      <trkpt lat="42.42628" lon="8.89995">
        <ele>1241.6</ele>
        <time>2015-06-30T09:26:41Z</time>
      </trkpt>
      <trkpt lat="42.42631" lon="8.89999">
        <ele>1242.2</ele>
        <time>2015-06-30T09:26:47Z</time>
      </trkpt>
      <trkpt lat="42.42633" lon="8.90002">
        <ele>1242.4</ele>
        <time>2015-06-30T09:26:51Z</time>
      </trkpt>
      <trkpt lat="42.42636" lon="8.90015">
        <ele>1244</ele>
        <time>2015-06-30T09:27:06Z</time>
      </trkpt>
      <trkpt lat="42.42638" lon="8.90025">
        <ele>1245.2</ele>
        <time>2015-06-30T09:27:18Z</time>
      </trkpt>
      <trkpt lat="42.4263" lon="8.90033">
        <ele>1245.8</ele>
        <time>2015-06-30T09:27:42Z</time>
      </trkpt>
      <trkpt lat="42.42627" lon="8.90032">
        <ele>1245.6</ele>
        <time>2015-06-30T09:27:49Z</time>
      </trkpt>
      <trkpt lat="42.42626" lon="8.90037">
        <ele>1245.4</ele>
        <time>2015-06-30T09:28:16Z</time>
      </trkpt>
      <trkpt lat="42.4263" lon="8.90038">
        <ele>1245.8</ele>
        <time>2015-06-30T09:28:58Z</time>
      </trkpt>
      <trkpt lat="42.42626" lon="8.90026">
        <ele>1245.4</ele>
        <time>2015-06-30T09:29:25Z</time>
      </trkpt>
      <trkpt lat="42.42625" lon="8.90026">
        <ele>1245.2</ele>
        <time>2015-06-30T09:29:27Z</time>
      </trkpt>
      <trkpt lat="42.42626" lon="8.90035">
        <ele>1245.6</ele>
        <time>2015-06-30T09:29:39Z</time>
      </trkpt>
      <trkpt lat="42.42624" lon="8.90033">
        <ele>1245.2</ele>
        <time>2015-06-30T09:30:07Z</time>
      </trkpt>
      <trkpt lat="42.42635" lon="8.90037">
        <ele>1245.4</ele>
        <time>2015-06-30T09:30:51Z</time>
      </trkpt>
      <trkpt lat="42.42629" lon="8.90036">
        <ele>1245.2</ele>
        <time>2015-06-30T09:31:00Z</time>
      </trkpt>
      <trkpt lat="42.42629" lon="8.9003">
        <ele>1245.2</ele>
        <time>2015-06-30T09:32:16Z</time>
      </trkpt>
      <trkpt lat="42.42625" lon="8.90031">
        <ele>1245.2</ele>
        <time>2015-06-30T09:32:59Z</time>
      </trkpt>
      <trkpt lat="42.42624" lon="8.90035">
        <ele>1245.2</ele>
        <time>2015-06-30T09:34:10Z</time>
      </trkpt>
      <trkpt lat="42.42623" lon="8.90034">
        <ele>1245.4</ele>
        <time>2015-06-30T09:34:17Z</time>
      </trkpt>
      <trkpt lat="42.4263" lon="8.90036">
        <ele>1245.6</ele>
        <time>2015-06-30T09:34:42Z</time>
      </trkpt>
      <trkpt lat="42.42632" lon="8.90036">
        <ele>1245.4</ele>
        <time>2015-06-30T09:34:59Z</time>
      </trkpt>
      <trkpt lat="42.42632" lon="8.90036">
        <ele>1244.8</ele>
        <time>2015-06-30T09:35:00Z</time>
      </trkpt>
    </trkseg>
  </trk>
</gpx>